[[{"header":{"parameterUnit":"m.s-1","parameterCategory":1,"la1":30.6,"la2":28.766,"lo1":-90.7593,"lo2":-88.6598,"dx":0.0162,"dy":0.0183,"nx":116,"ny":114,"refTime":"2023-01-30T18:00:00:Z","depth":0,"parameterNumber":2,"parameterNumberName":"U-component_of_WINDS"},"data":[0.0,0.0,0.0,0.0,0.0,0.0,0.0,0.0,0.0,0.0,0.0,0.0,0.0,0.0,0.0,0.0,0.0,0.0,0.0,0.0,0.0,0.0,0.0,0.0,0.0,0.0,0.0,0.0,0.0,0.0,0.0,0.0,0.0,0.0,0.0,0.0,0.0,0.0,0.0,0.0,0.0,0.0,0.0,0.0,0.0,0.0,0.0,0.0,0.0,0.0,0.0,0.0,0.0,0.0,0.0,0.0,0.0,0.0,0.0,0.0,0.0,0.0,0.0,0.0,0.0,0.0,0.0,0.0,0.0,0.0,0.0,0.0,0.0,0.0,0.0,0.0,0.0,0.0,0.0,0.0,0.0,0.0,0.0,0.0,0.0,0.0,0.0,0.0,0.0,0.0,0.0,0.0,0.0,0.0,0.0,0.0,0.0,0.0,0.0,0.0,0.0,0.0,0.0,0.0,0.0,0.0,0.0,0.0,0.0,0.0,0.0,0.0,0.0,0.0,0.0,0.0,0.0,0.0,0.0,0.0,0.0,0.0,0.0,0.0,0.0,0.0,0.0,0.0,0.0,0.0,0.0,0.0,0.0,0.0,0.0,0.0,0.0,0.0,0.0,0.0,0.0,0.0,0.0,0.0,0.0,0.0,0.0,0.0,0.0,0.0,0.0,0.0,0.0,0.0,0.0,0.0,0.0,0.0,0.0,0.0,0.0,0.0,0.0,0.0,0.0,0.0,0.0,0.0,0.0,0.0,0.0,0.0,0.0,0.0,0.0,0.0,0.0,0.0,0.0,0.0,0.0,0.0,0.0,0.0,0.0,0.0,0.0,0.0,0.0,0.0,0.0,0.0,0.0,0.0,0.0,0.0,0.0,0.0,0.0,0.0,0.0,0.0,0.0,0.0,0.0,0.0,0.0,0.0,0.0,0.0,0.0,0.0,0.0,0.0,0.0,0.0,0.0,0.0,0.0,0.0,0.0,0.0,0.0,0.0,0.0,0.0,0.0,0.0,0.0,0.0,0.0,0.0,0.0,0.0,0.0,0.0,0.0,0.0,0.0,0.0,0.0,0.0,0.0,0.0,0.0,0.0,0.0,0.0,0.0,0.0,0.0,0.0,0.0,0.0,0.0,0.0,0.0,0.0,0.0,0.0,0.0,0.0,0.0,0.0,0.0,0.0,0.0,0.0,0.0,0.0,0.0,0.0,0.0,0.0,0.0,0.0,0.0,0.0,0.0,0.0,0.0,0.0,0.0,0.0,0.0,0.0,0.0,0.0,0.0,0.0,0.0,0.0,0.0,0.0,0.0,0.0,0.0,0.0,0.0,0.0,0.0,0.0,0.0,0.0,0.0,0.0,0.0,0.0,0.0,0.0,0.0,0.0,0.0,0.0,0.0,0.0,0.0,0.0,0.0,0.0,0.0,0.0,0.0,0.0,0.0,0.0,0.0,0.0,0.0,0.0,0.0,0.0,0.0,0.0,0.0,0.0,0.0,0.0,0.0,0.0,0.0,0.0,0.0,0.0,0.0,0.0,0.0,0.0,0.0,0.0,0.0,0.0,0.0,0.0,0.0,0.0,0.0,0.0,0.0,0.0,0.0,0.0,0.0,0.0,0.0,0.0,0.0,0.0,0.0,0.0,0.0,0.0,0.0,0.0,0.0,0.0,0.0,0.0,0.0,0.0,0.0,0.0,0.0,0.0,0.0,0.0,0.0,0.0,0.0,0.0,0.0,0.0,0.0,0.0,0.0,0.0,0.0,0.0,0.0,0.0,0.0,0.0,0.0,0.0,0.0,0.0,0.0,0.0,0.0,0.0,0.0,0.0,0.0,0.0,0.0,0.0,0.0,0.0,0.0,0.0,0.0,0.0,0.0,0.0,0.0,0.0,0.0,0.0,0.0,0.0,0.0,0.0,0.0,0.0,0.0,0.0,0.0,0.0,0.0,0.0,0.0,0.0,0.0,0.0,0.0,0.0,0.0,0.0,0.0,0.0,0.0,0.0,0.0,0.0,0.0,0.0,0.0,0.0,0.0,0.0,0.0,0.0,0.0,0.0,0.0,0.0,0.0,0.0,0.0,0.0,0.0,0.0,0.0,0.0,0.0,0.0,0.0,0.0,0.0,0.0,0.0,0.0,0.0,0.0,0.0,0.0,0.0,0.0,0.0,0.0,0.0,0.0,0.0,0.0,0.0,0.0,0.0,0.0,0.0,0.0,0.0,0.0,0.0,0.0,0.0,0.0,0.0,0.0,0.0,0.0,0.0,0.0,0.0,0.0,0.0,0.0,0.0,0.0,0.0,0.0,0.0,0.0,0.0,0.0,0.0,0.0,0.0,0.0,0.0,0.0,0.0,0.0,0.0,0.0,0.0,0.0,0.0,0.0,0.0,0.0,0.0,0.0,0.0,0.0,0.0,0.0,0.0,0.0,0.0,0.0,0.0,0.0,0.0,0.0,0.0,0.0,0.0,0.0,0.0,0.0,0.0,0.0,0.0,0.0,0.0,0.0,0.0,0.0,0.0,0.0,0.0,0.0,0.0,0.0,0.0,0.0,0.0,0.0,0.0,0.0,0.0,0.0,0.0,0.0,0.0,0.0,0.0,0.0,0.0,0.0,0.0,0.0,0.0,0.0,0.0,0.0,0.0,0.0,0.0,0.0,0.0,0.0,0.0,0.0,0.0,0.0,0.0,0.0,0.0,0.0,0.0,0.0,0.0,0.0,0.0,0.0,0.0,0.0,0.0,0.0,0.0,0.0,0.0,0.0,0.0,0.0,0.0,0.0,0.0,0.0,0.0,0.0,0.0,0.0,0.0,0.0,0.0,0.0,0.0,0.0,0.0,0.0,0.0,0.0,0.0,0.0,0.0,0.0,0.0,0.0,0.0,0.0,0.0,0.0,0.0,0.0,0.0,0.0,0.0,0.0,0.0,0.0,0.0,0.0,0.0,0.0,0.0,0.0,0.0,0.0,0.0,0.0,0.0,0.0,0.0,0.0,0.0,0.0,0.0,0.0,0.0,0.0,0.0,0.0,0.0,0.0,0.0,0.0,0.0,0.0,0.0,0.0,0.0,0.0,0.0,0.0,0.0,0.0,0.0,0.0,0.0,0.0,0.0,0.0,0.0,0.0,0.0,0.0,0.0,0.0,0.0,0.0,0.0,0.0,0.0,0.0,0.0,0.0,0.0,0.0,0.0,0.0,0.0,0.0,0.0,0.0,0.0,0.0,0.0,0.0,0.0,0.0,0.0,0.0,0.0,0.0,0.0,0.0,0.0,0.0,0.0,0.0,0.0,0.0,0.0,0.0,0.0,0.0,0.0,0.0,0.0,0.0,0.0,0.0,0.0,0.0,0.0,0.0,0.0,0.0,0.0,0.0,0.0,0.0,0.0,0.0,0.0,0.0,0.0,0.0,0.0,0.0,0.0,0.0,0.0,0.0,0.0,0.0,0.0,0.0,0.0,0.0,0.0,0.0,0.0,0.0,0.0,0.0,0.0,0.0,0.0,0.0,0.0,0.0,0.0,0.0,0.0,0.0,0.0,0.0,0.0,0.0,0.0,0.0,0.0,0.0,0.0,0.0,0.0,0.0,0.0,0.0,0.0,0.0,0.0,0.0,0.0,0.0,0.0,0.0,0.0,0.0,0.0,0.0,0.0,0.0,0.0,0.0,0.0,0.0,0.0,0.0,0.0,0.0,0.0,0.0,0.0,0.0,0.0,0.0,0.0,0.0,0.0,0.0,0.0,0.0,0.0,0.0,0.0,0.0,0.0,0.0,0.0,0.0,0.0,0.0,0.0,0.0,0.0,0.0,0.0,0.0,0.0,0.0,0.0,0.0,0.0,0.0,0.0,0.0,0.0,0.0,0.0,0.0,0.0,0.0,0.0,0.0,0.0,0.0,0.0,0.0,0.0,0.0,0.0,0.0,0.0,0.0,0.0,0.0,0.0,0.0,0.0,0.0,0.0,0.0,0.0,0.0,0.0,0.0,0.0,0.0,0.0,0.0,0.0,0.0,0.0,0.0,0.0,0.0,0.0,0.0,0.0,0.0,0.0,0.0,0.0,0.0,0.0,0.0,0.0,0.0,0.0,0.0,0.0,0.0,0.0,0.0,0.0,0.0,0.0,0.0,0.0,0.0,0.0,0.0,0.0,0.0,0.0,0.0,0.0,0.0,0.0,0.0,0.0,0.0,0.0,0.0,0.0,0.0,0.0,0.0,0.0,0.0,0.0,0.0,0.0,0.0,0.0,0.0,0.0,0.0,0.0,0.0,0.0,0.0,0.0,0.0,0.0,0.0,0.0,0.0,0.0,0.0,0.0,0.0,0.0,0.0,0.0,0.0,0.0,0.0,0.0,0.0,0.0,0.0,0.0,0.0,0.0,0.0,0.0,0.0,0.0,0.0,0.0,0.0,0.0,0.0,0.0,0.0,0.0,0.0,0.0,0.0,0.0,0.0,0.0,0.0,0.0,0.0,0.0,0.0,0.0,0.0,0.0,0.0,0.0,0.0,0.0,0.0,0.0,0.0,0.0,0.0,0.0,0.0,0.0,0.0,0.0,0.0,0.0,0.0,0.0,0.0,0.0,0.0,0.0,0.0,0.0,0.0,0.0,0.0,0.0,0.0,0.0,0.0,0.0,0.0,0.0,0.0,0.0,0.0,0.0,0.0,0.0,0.0,0.0,0.0,0.0,0.0,0.0,0.0,0.0,0.0,0.0,0.0,0.0,0.0,0.0,0.0,0.0,0.0,0.0,0.0,0.0,0.0,0.0,0.0,0.0,0.0,0.0,0.0,0.0,0.0,0.0,0.0,0.0,0.0,0.0,0.0,0.0,0.0,0.0,0.0,0.0,0.0,0.0,0.0,0.0,0.0,0.0,0.0,0.0,0.0,0.0,0.0,0.0,0.0,0.0,0.0,0.0,0.0,0.0,0.0,0.0,0.0,0.0,0.0,0.0,0.0,0.0,0.0,0.0,0.0,0.0,0.0,0.0,0.0,0.0,0.0,0.0,0.0,0.0,0.0,0.0,0.0,0.0,0.0,0.0,0.0,0.0,0.0,0.0,0.0,0.0,0.0,0.0,0.0,0.0,0.0,0.0,0.0,0.0,0.0,0.0,0.0,0.0,0.0,0.0,0.0,0.0,0.0,0.0,0.0,0.0,0.0,0.0,0.0,0.0,0.0,0.0,0.0,0.0,0.0,0.0,0.0,0.0,0.0,0.0,0.0,0.0,0.0,0.0,0.0,0.0,0.0,0.0,0.0,0.0,0.0,0.0,0.0,0.0,0.0,0.0,0.0,0.0,0.0,0.0,0.0,0.0,0.0,0.0,0.0,0.0,0.0,0.0,0.0,0.0,0.0,0.0,0.0,0.0,0.0,0.0,0.0,0.0,0.0,0.0,0.0,0.0,0.0,0.0,0.0,0.0,0.0,0.0,0.0,0.0,0.0,0.0,0.0,0.0,0.0,0.0,0.0,0.0,0.0,0.0,0.0,0.0,0.0,0.0,0.0,0.0,0.0,0.0,0.0,0.0,0.0,0.0,0.0,0.0,0.0,0.0,0.0,0.0,0.0,0.0,0.0,0.0,0.0,0.0,0.0,0.0,0.0,0.0,0.0,0.0,0.0,0.0,0.0,0.0,0.0,0.0,0.0,0.0,0.0,0.0,0.0,0.0,0.0,0.0,0.0,0.0,0.0,0.0,0.0,0.0,0.0,0.0,0.0,0.0,0.0,0.0,0.0,0.0,0.0,0.0,0.0,0.0,0.0,0.0,0.0,0.0,0.0,0.0,0.0,0.0,0.0,0.0,0.0,0.0,0.0,0.0,0.0,0.0,0.0,0.0,0.0,0.0,0.0,0.0,0.0,0.0,0.0,0.0,0.0,0.0,0.0,0.0,0.0,0.0,0.0,0.0,0.0,0.0,0.0,0.0,0.0,0.0,0.0,0.0,0.0,0.0,0.0,0.0,0.0,0.0,0.0,0.0,0.0,0.0,0.0,0.0,0.0,0.0,0.0,0.0,0.0,0.0,0.0,0.0,0.0,0.0,0.0,0.0,0.0,0.0,0.0,0.0,0.0,0.0,0.0,0.0,0.0,0.0,0.0,0.0,0.0,1.1284,0.0,0.0,0.0,0.0,0.0,0.0,0.0,0.0,0.0,0.0,0.0,0.0,0.0,0.0,0.0,0.0,0.0,0.0,0.0,0.0,0.0,0.0,0.0,0.0,0.0,0.0,0.0,0.0,0.0,0.0,0.0,0.0,0.0,0.0,0.0,0.0,0.0,0.0,0.0,0.0,0.0,0.0,0.0,0.0,0.0,0.0,0.0,0.0,0.0,0.0,0.0,0.0,0.0,0.0,0.0,0.0,0.0,0.0,0.0,0.0,0.0,0.0,0.0,0.0,0.0,0.0,0.0,0.0,0.0,0.0,0.0,0.0,0.0,0.0,0.0,0.0,0.0,0.0,0.0,0.0,0.0,0.0,0.0,0.0,0.0,0.0,0.0,0.0,0.0,0.0,0.0,0.0,0.0,0.0,0.0,0.0,0.0,0.0,0.0,0.0,0.0,0.0,0.0,0.0,0.0,0.0,0.0,0.0,0.0,0.0,0.0,0.0,0.0,0.0,0.0,0.0,1.1379,0.0,0.0,0.0,0.0,0.0,0.0,0.0,0.0,0.0,0.0,0.0,0.0,0.0,0.0,0.0,0.0,0.0,0.0,0.0,0.0,0.0,0.0,0.0,0.0,0.0,0.0,0.0,0.0,0.0,0.0,0.0,0.0,0.0,0.0,0.0,0.0,0.0,0.0,0.0,0.0,0.0,0.0,0.0,0.0,0.0,0.0,0.0,0.0,0.0,0.0,0.0,0.0,0.0,0.0,0.0,0.0,0.0,0.0,0.0,0.0,0.0,0.0,0.0,0.0,0.0,0.0,0.0,0.0,0.0,0.0,0.0,0.0,0.0,0.0,0.0,0.0,0.0,0.0,0.0,0.0,0.0,0.0,0.0,0.0,0.0,0.0,0.0,0.0,0.0,0.0,0.0,0.0,0.0,0.0,0.0,0.0,0.0,0.0,0.0,0.0,0.0,0.0,0.0,0.0,0.0,0.0,0.0,0.0,0.5476,0.7107,0.8783,1.0555,1.1049,1.0478,1.067,1.0673,1.0637,0.0,0.0,0.0,0.0,0.0,0.0,0.0,0.0,0.0,0.0,0.0,0.0,0.0,0.0,0.0,0.0,0.0,0.0,0.0,0.0,0.0,0.0,0.0,0.0,0.0,0.0,0.0,0.0,0.0,0.0,0.0,0.0,0.0,0.0,0.0,0.0,0.0,0.0,0.0,1.7304,1.7482,1.7505,1.7327,0.0,0.0,0.0,0.0,0.0,0.0,0.0,0.0,0.0,0.0,0.0,0.0,0.0,0.0,0.0,0.0,0.0,0.0,0.0,0.0,0.0,0.0,0.0,0.0,0.0,0.0,0.0,0.0,0.0,0.0,0.0,0.0,0.0,0.0,0.0,0.0,0.0,0.0,0.0,0.0,0.0,0.0,0.0,0.0,0.74,0.7682,0.0,0.0,0.0,0.0,0.0,0.0,0.0,0.0,0.0,0.0,0.0,0.0,0.0,0.6051,0.6214,0.6593,0.6828,0.6932,0.8722,0.974,1.0093,1.138,1.1409,1.0414,1.0428,0.0,1.1067,1.1569,0.0,0.0,0.0,0.0,0.0,0.0,0.0,0.0,0.0,0.0,0.0,0.0,0.0,0.0,0.0,0.0,0.0,0.0,0.0,0.0,0.0,0.0,0.0,0.0,0.0,0.0,0.0,0.0,0.0,0.0,0.0,0.0,0.0,0.0,0.0,0.0,1.7427,1.7872,1.8194,1.812,1.8212,1.8398,1.7338,1.6644,1.6301,1.6136,0.0,0.0,0.0,0.0,0.0,0.0,0.0,0.0,0.0,0.0,0.0,0.0,0.0,0.0,0.0,0.0,0.0,0.0,0.0,0.0,0.0,0.0,0.0,0.0,0.0,0.0,0.0,0.0,0.0,0.0,0.0,0.0,0.0,0.0,0.0,0.0,0.0,0.0,0.0,0.4999,0.4495,0.4979,0.59,0.6972,0.0,0.0,0.0,0.0,0.0,0.0,0.0,0.0,0.0,0.8521,0.7883,0.7617,0.7781,0.8347,0.8601,0.8579,0.9893,1.0559,1.061,1.1439,1.1548,1.1045,1.0865,1.0593,1.0248,1.0016,1.0427,1.1108,0.0,0.0,0.0,0.0,0.6884,0.5832,0.0,0.0,0.0,0.0,0.0,0.0,0.0,0.0,0.0,0.0,0.0,0.0,0.0,0.0,0.0,1.9833,0.0,0.0,0.0,0.0,0.0,0.0,0.0,0.0,0.0,0.0,0.0,0.0,1.7976,1.8617,1.9034,1.8868,1.9033,1.9436,1.8306,1.7379,1.6654,1.6421,1.6246,0.0,0.0,0.0,0.0,0.0,0.0,0.0,0.0,0.0,0.0,0.0,0.0,0.0,0.0,0.0,0.0,0.0,0.0,0.0,0.0,0.0,0.0,0.0,0.0,0.0,0.0,0.0,0.0,0.0,0.0,0.0,0.0,0.0,0.0,0.0,0.0,0.0,0.0,0.2167,0.2215,0.2615,0.4125,0.5737,0.0,0.0,0.0,0.0,0.0,0.0,0.8131,0.7897,0.8091,0.8755,0.8844,0.8893,0.8979,0.9348,0.9528,0.9504,1.0368,1.0814,1.0851,1.1203,1.1285,1.113,1.0671,0.9889,0.8916,0.8664,0.8801,0.9082,0.8197,0.7819,0.75,0.5425,0.3931,0.2842,0.0,0.0,0.0,0.0,0.0,0.0,0.0,0.0,0.0,0.0,0.0,0.0,0.0,0.0,1.8951,2.0263,2.0662,2.096,0.0,0.0,0.0,0.0,0.0,0.0,0.0,0.0,0.0,1.8315,1.8392,1.8765,1.9464,1.9697,1.9866,1.995,1.943,1.8613,1.758,1.6664,1.6109,1.5863,0.0,0.0,0.0,0.0,0.0,0.0,0.0,0.0,0.0,0.0,0.0,0.0,0.0,0.0,0.0,0.0,0.0,0.0,0.0,0.0,0.0,0.0,0.0,0.0,0.0,0.0,0.0,0.0,0.0,0.0,0.0,0.0,0.0,0.0,0.0,0.0,0.0,0.0,0.0,0.0424,0.2624,0.0,0.0,0.0,0.0,0.704,0.7092,0.7779,0.9319,0.8333,0.8458,1.005,0.9275,0.9012,0.9463,0.9743,0.9842,0.9792,1.0476,1.0828,1.0897,1.0782,1.0433,0.9843,0.9148,0.8195,0.7224,0.8543,0.8306,0.7062,0.6172,0.5104,0.392,0.2564,0.1297,0.0197,0.0,0.0,0.0,0.0,0.0,0.0,0.0,0.0,0.0,0.0,0.0,0.0,0.0,1.9099,2.0147,2.1081,2.1429,2.1523,2.1308,0.0,0.0,0.0,0.0,0.0,0.0,0.0,1.7638,1.8583,1.9577,2.0331,2.0821,2.0456,2.0388,2.054,1.9462,1.8835,1.8499,1.6918,1.6015,1.5649,1.5272,1.4977,0.0,0.0,0.0,0.0,0.0,0.0,0.0,0.0,0.0,0.0,0.0,0.0,0.0,0.0,0.0,0.0,0.0,0.0,0.0,0.0,0.0,0.0,0.0,0.0,0.0,0.0,0.0,0.0,0.0,0.0,0.0,0.0,0.0,0.0,0.0,0.0,0.0,0.1141,0.2291,0.0,0.0,0.6221,0.665,0.7028,0.7319,0.7721,0.8323,0.8417,0.8833,0.966,0.962,0.9634,0.9752,0.9863,0.9893,0.9868,1.0122,1.0235,1.0248,0.9995,0.974,0.9466,0.8161,0.7233,0.6597,0.6318,0.5906,0.5332,0.4199,0.3291,0.2511,0.1486,0.0443,-0.0456,0.0,0.0,0.0,0.0,0.0,0.0,0.0,0.0,0.0,0.0,0.0,1.7356,1.8003,1.9418,2.0761,2.1883,2.2242,2.2176,2.1601,0.0,0.0,0.0,0.0,0.0,0.0,1.7232,1.8201,1.9487,2.0511,2.1213,2.1582,2.1088,2.09,2.0891,1.9699,1.9302,1.9426,1.7512,1.6184,1.533,1.4895,1.4315,1.3684,0.0,0.0,0.0,0.0,0.0,0.0,0.0,0.0,0.0,0.0,0.0,0.0,0.0,0.0,0.0,0.0,0.0,0.0,0.0,0.0,0.0,0.0,0.0,0.0,0.0,0.0,0.0,0.0,0.0,0.0,0.0,0.0,0.0,0.0,0.0,0.1134,0.2048,0.2943,0.4145,0.5882,0.645,0.6844,0.7251,0.7817,0.8289,0.8535,0.9213,0.9773,1.0166,1.0408,1.0424,1.0155,1.0182,1.0081,0.9905,1.0094,1.0081,0.988,0.9749,0.9509,0.9116,0.7645,0.6703,0.6112,0.5035,0.4515,0.4258,0.2984,0.2081,0.1467,0.0551,-0.025,-0.0852,0.0,0.0,0.0,0.0,0.0,0.0,0.0,0.0,0.0,0.0,1.579,1.7152,1.8296,1.9383,2.0747,2.2531,2.2979,2.2835,2.2118,2.1048,0.0,0.0,0.0,0.0,1.7311,1.7841,1.9045,2.0991,2.0991,2.1213,2.1612,2.1582,2.1368,2.0975,2.0241,2.0134,2.0377,1.8454,1.6583,1.4932,1.5045,1.3874,1.2188,0.0,0.0,0.0,0.0,0.0,0.0,0.0,0.0,0.0,0.0,0.0,0.0,0.0,0.0,0.0,0.0,0.0,0.0,0.0,0.0,0.0,0.0,0.0,0.0,0.0,0.0,0.0,0.0,0.0,0.0,0.0,0.0,0.0,0.1957,0.2592,0.3125,0.3035,0.4505,0.545,0.5322,0.6441,0.7299,0.7613,0.859,0.9457,1.0175,1.071,1.1228,1.1709,1.1634,1.1312,1.0734,1.0747,1.047,0.9931,1.047,1.0445,0.9943,1.01,0.9676,0.875,0.7521,0.6542,0.5745,0.4935,0.4377,0.3858,0.255,0.1509,0.0649,-0.029,-0.0861,-0.1004,0.0,0.0,0.0,0.0,0.0,0.0,0.0,0.0,0.0,0.0,1.5941,1.7349,1.8312,1.9781,2.1275,2.2583,2.2293,2.1791,2.1259,0.0,0.0,0.0,0.0,0.0,1.7857,1.8009,1.9045,2.0991,2.0991,2.1385,2.2106,2.1446,2.1118,2.0991,2.0428,2.0235,2.027,1.89,1.7412,1.5828,1.4791,1.3116,1.1307,0.0,0.0,0.0,0.0,0.0,0.0,0.0,0.0,0.0,0.0,0.0,0.0,0.0,0.0,0.0,0.0,0.0,0.0,0.0,0.0,0.0,0.0,0.0,0.0,0.0,0.0,0.0,0.0,0.0,0.0,0.0,0.0,0.3275,0.304,0.3627,0.4421,0.538,0.585,0.6456,0.7416,0.8096,0.8513,0.8602,0.9733,1.036,1.0284,1.1018,1.1638,1.2036,1.1771,1.1487,1.1201,1.1309,1.106,1.0468,1.088,1.0853,1.0468,1.0088,0.9652,0.9143,0.7645,0.6695,0.6165,0.506,0.4366,0.3891,0.2893,0.2438,0.2182,0.1144,0.0895,0.1258,0.0,0.0,0.0,0.0,0.0,0.0,0.0,0.0,0.0,0.0,1.5919,1.7445,1.8282,1.9956,2.1327,2.2168,2.2123,2.1496,2.0162,0.0,0.0,0.0,0.0,1.7312,1.8066,1.8106,1.8948,2.0731,2.0894,2.115,2.1446,2.1166,2.0894,2.0682,2.0416,2.0501,2.0782,1.9765,1.8241,1.6407,1.4929,1.2981,1.1069,1.1367,1.1165,1.0824,1.1559,1.1921,1.219,1.2853,0.0,0.0,0.0,0.0,0.0,0.0,0.0,0.0,0.0,0.0,0.0,0.0,0.0,0.0,0.0,0.0,0.0,0.0,0.0,0.0,0.0,0.0,0.0,0.0,0.3968,0.4468,0.467,0.5008,0.5689,0.6747,0.707,0.749,0.8332,0.9314,0.9744,0.9297,1.0894,1.1604,1.0979,1.1769,1.2487,1.2896,1.2475,1.2104,1.1734,1.1878,1.1525,1.0706,1.1272,1.1232,1.0681,1.0479,1.0016,0.0,0.8063,0.7299,0.6878,0.5837,0.5269,0.0,0.0,0.0,0.0,0.0,0.273,0.3321,0.0,0.0,0.0,0.0,0.0,0.0,0.0,0.0,0.0,0.0,0.0,1.7368,1.8113,1.9829,2.1078,2.1393,2.1978,2.1285,0.0,0.0,0.0,1.5539,1.615,1.6993,1.8066,1.8171,1.891,2.0382,2.0797,2.0829,2.0434,2.0748,2.0698,2.0314,2.0348,2.0765,2.1383,2.0634,1.9011,1.6858,1.5222,1.3183,1.1027,1.0884,1.0614,1.0329,1.0693,1.0508,1.0222,1.1015,0.0,0.0,0.0,0.0,0.0,0.0,0.0,0.0,0.0,0.0,0.0,0.0,0.0,0.0,0.0,0.0,0.0,0.0,0.0,0.0,0.0,0.0,0.0,0.0,0.5293,0.6021,0.6475,0.6811,0.7165,0.7609,0.8304,0.8779,0.8779,1.0405,1.0987,0.9916,1.1998,1.2869,1.1943,0.0,0.0,0.0,0.0,1.298,1.2303,1.2372,1.1902,1.0894,1.158,1.1528,1.0822,1.1028,1.0493,0.9422,0.8673,0.8143,0.7763,0.6961,0.6656,0.6468,0.4424,0.3644,0.3711,0.4112,0.4585,0.5147,0.0,0.0,0.0,0.0,0.0,0.0,0.0,0.0,0.0,1.3323,1.5515,1.7069,1.697,1.914,2.0527,2.0331,2.0133,1.9224,0.0,0.0,1.5975,1.5665,1.62,1.6993,1.8066,1.8478,1.9381,2.0862,2.0975,2.1118,2.1337,2.0699,2.0382,2.0314,2.0698,2.0748,2.0534,2.0304,1.923,1.7427,1.5362,1.2689,0.9969,0.9839,0.9495,0.9098,0.9632,0.9952,1.0191,1.0428,1.1167,1.2087,1.2861,0.0,0.0,0.0,0.0,0.0,0.0,0.0,0.0,0.0,0.0,0.0,0.0,0.0,0.0,0.0,0.0,0.0,0.0,0.0,0.0,0.5695,0.6301,0.7052,0.7927,0.9252,0.989,0.9254,1.0336,1.1126,1.1079,1.2207,1.2509,1.1362,1.2544,1.3018,1.2389,1.3251,1.3802,1.3901,1.3802,1.346,1.286,1.2551,1.2303,1.2077,0.0,0.0,1.1416,1.0834,1.0289,0.979,0.9357,0.8931,0.8524,0.7782,0.7532,0.7481,0.6087,0.5697,0.5947,0.6404,0.6612,0.676,0.0,0.0,0.0,0.0,0.0,0.0,0.0,0.0,0.0,0.0,1.5147,1.638,1.6668,1.8501,1.9491,1.8976,1.782,0.0,0.0,1.5843,1.5491,1.5709,1.622,1.6993,1.8066,1.8917,1.9766,2.0649,2.1261,2.1359,2.0927,2.0501,2.0314,2.0314,2.055,2.0748,2.0894,2.0203,1.9227,1.7939,1.5476,1.295,1.0625,0.9939,0.9175,0.8595,0.8982,0.9126,0.9177,0.9996,1.0667,1.1352,1.2609,1.285,1.2719,0.0,0.0,0.0,0.0,0.0,0.0,0.0,0.0,0.0,0.0,0.0,0.0,0.0,0.0,0.591,0.0,0.0,0.679,0.7307,0.7653,0.8043,0.8587,0.9767,1.0607,1.0695,1.1833,1.2469,1.2171,1.3367,1.3524,1.1866,1.3212,1.3642,1.2544,1.3173,1.3648,1.3901,1.3682,1.3363,1.2988,1.2602,1.2278,1.1989,1.1738,1.1593,1.1605,1.1326,1.1039,1.0719,1.0355,1.0084,0.9857,0.9335,0.9266,0.9408,0.829,0.787,0.7939,0.8308,0.8439,0.8474,0.0,0.0,0.0,0.0,0.0,0.0,0.0,0.0,0.0,0.0,1.4914,1.5873,1.6488,1.7854,1.8419,0.0,0.0,0.0,0.0,1.5296,1.5024,1.5819,1.6355,1.7118,1.8066,1.9306,2.007,2.0314,2.1436,2.1453,2.0449,2.0449,2.0382,2.0299,2.0382,2.0748,2.1165,2.0062,1.909,1.8016,1.566,1.3554,1.1809,1.0653,0.9555,0.8687,0.8926,0.871,0.8571,0.9882,1.0439,1.0859,1.2523,1.2868,1.2579,1.2189,1.1719,0.0,0.0,0.0,0.0,0.0,0.0,0.0,0.0,0.0,0.5572,0.6018,0.629,0.6753,0.7719,0.7919,0.8118,0.8756,0.9009,0.9231,0.9488,1.0457,1.1423,1.2294,1.2947,1.32,1.2736,1.4052,1.4146,1.2193,1.3724,1.4125,1.2698,1.3082,1.3459,1.3735,1.348,1.3229,1.3048,1.2602,1.2241,1.1902,1.1921,1.1869,1.1769,1.1857,1.1818,1.1588,1.1259,1.1063,1.0982,1.0804,1.0919,1.116,1.0441,1.012,1.0025,0.9885,0.9982,1.0266,0.0,0.0,0.0,0.0,0.0,0.0,0.0,0.0,0.0,0.0,0.0,0.0,0.0,0.0,0.0,0.0,0.0,0.0,1.6371,1.5014,1.4837,1.6341,1.6912,1.7504,1.8106,1.9462,2.0212,2.0314,2.1198,2.1402,2.0926,2.0926,2.0698,2.0314,2.0731,2.0532,1.9909,1.9671,1.874,1.7221,1.5905,1.4312,1.2619,1.1855,1.0788,0.9666,0.9703,0.9776,1.0044,1.054,1.0885,1.1291,1.2493,1.2168,1.1371,1.1041,0.0,0.8238,0.6546,0.5944,0.5593,0.4713,0.4854,0.5099,0.0,0.0,0.5899,0.5846,0.6666,0.7466,0.7839,0.7919,0.8234,0.9239,1.0146,1.1085,1.2025,1.3495,1.4452,1.4451,1.3716,1.3167,1.2985,1.4087,1.4273,1.2973,1.3708,1.3873,1.3154,1.3581,1.3648,1.3301,1.3648,1.3609,1.3166,1.2655,1.263,1.2998,1.2084,1.187,1.2303,1.1832,1.1635,1.1588,1.1558,1.132,1.1037,1.1405,1.1643,1.1747,1.2069,1.2409,1.2555,1.0872,1.1012,1.2107,0.0,0.0,0.0,0.0,0.0,0.0,0.0,0.0,0.0,0.0,0.0,0.0,0.0,0.0,0.0,0.0,0.0,0.0,1.5014,1.4511,1.4999,1.6899,1.7463,1.8027,1.8535,2.0065,2.0795,2.0731,2.1744,2.1931,2.1337,2.1118,2.0894,2.0682,2.0616,2.0366,1.9924,1.9096,1.8113,1.7005,1.5592,1.4125,1.2773,1.2483,1.1838,1.0954,1.0573,1.0569,0.0,0.0,1.1345,1.1358,1.2205,1.195,1.1046,0.9775,0.8811,0.0,0.5445,0.4155,0.0,0.0,0.3905,0.4299,0.5259,0.5742,0.6133,0.6696,0.7406,0.8034,0.8297,0.8861,0.9482,0.0,1.1012,1.1735,1.2507,1.2642,1.2894,1.3393,1.2765,1.2625,1.3433,1.4284,1.4328,1.3168,1.3703,1.3953,1.3607,1.3802,1.3802,1.3615,1.4019,1.4019,1.3615,1.294,1.2688,1.2883,1.2465,1.22,1.2178,1.2709,1.2788,1.2542,1.2542,1.2444,1.2291,1.2479,1.2599,1.2586,1.2479,1.2931,1.3478,1.231,1.2221,1.2838,0.0,0.0,0.0,0.0,0.0,0.0,0.0,0.0,0.0,0.0,0.0,0.0,0.0,0.0,0.0,0.0,0.0,0.0,0.0,1.4096,1.506,1.6994,1.7891,1.8496,1.8893,2.0421,2.1075,2.0797,2.1999,2.2261,2.1598,2.1446,2.1291,2.115,2.0682,2.0385,2.0119,1.8707,1.7612,1.676,1.5484,1.4128,1.2882,1.3024,1.2833,1.2402,1.1685,1.1564,0.0,0.0,1.2139,1.1789,1.2289,1.1864,1.074,0.8772,0.743,0.6269,0.4595,0.0,0.0,0.3413,0.3555,0.3918,0.5597,0.611,0.6438,0.7523,0.8091,0.8562,0.9014,0.9603,0.0,1.0895,1.1577,1.2212,1.2728,1.2346,1.228,1.2807,1.248,1.2652,1.3783,1.4141,1.4058,1.3388,1.3791,1.4007,1.3927,1.4032,1.4052,1.4052,1.4342,1.4374,1.4052,1.3482,1.3203,1.3203,1.3203,1.3015,1.2734,1.3632,1.3835,1.3391,1.3391,1.3323,1.3198,1.3323,1.3391,1.3387,1.3097,1.3485,1.4164,1.3857,1.3709,1.3827,0.0,0.0,0.0,0.0,0.0,0.0,0.0,0.0,0.0,0.0,0.0,0.0,0.0,0.0,0.0,0.0,0.0,0.0,0.0,1.3864,1.4898,1.6441,1.8019,1.8893,1.8893,2.028,2.078,2.0314,2.1661,2.2065,2.1628,2.2032,2.2003,2.1552,2.115,2.0715,2.0196,1.8736,1.741,1.6296,1.576,1.453,1.3062,1.363,1.3902,1.3854,1.3085,0.0,0.0,0.0,1.3476,1.3076,1.3076,1.1862,0.0,0.8193,0.538,0.0,0.0,0.0,0.3273,0.4142,0.4385,0.467,0.537,0.6077,0.6919,0.8036,0.8496,0.8944,0.9897,0.9772,0.9864,1.0829,1.1899,1.2723,1.3205,1.4109,1.4495,1.3904,1.3774,1.3737,0.0,1.3368,1.3313,1.3934,1.393,1.3914,1.3901,1.4278,1.447,1.447,1.4501,1.4501,1.447,1.446,1.4446,1.4446,1.4446,1.4446,1.4446,1.4442,1.4246,1.3868,1.3868,1.3615,1.3232,1.3682,1.3868,1.3934,1.4296,1.4665,1.5019,1.5374,1.5518,1.5651,0.0,0.0,0.0,0.0,0.0,0.0,0.0,0.0,0.0,0.0,0.0,0.0,0.0,0.0,0.0,0.0,0.0,0.0,0.0,1.3902,1.5089,1.6318,1.749,1.845,1.9228,1.994,2.062,2.1165,2.1945,2.2209,2.2061,2.2419,2.2493,2.2307,2.1898,2.1299,2.046,1.9119,1.7732,1.6316,1.5422,1.4465,1.3631,1.3864,1.3976,1.3969,0.0,0.0,0.0,0.0,0.0,0.0,1.312,0.0,0.0,0.7126,0.0,0.0,0.0,0.0,0.4858,0.5444,0.561,0.593,0.7109,0.7526,0.8113,0.9411,1.0102,1.032,1.0084,1.0565,1.1137,1.1431,1.2057,1.2852,1.3729,1.3243,1.2958,1.3398,1.3152,0.0,0.0,0.0,0.0,1.4323,1.4105,1.4219,1.5003,1.5153,1.536,1.562,1.5877,1.5649,1.485,1.4952,1.48,1.4287,1.427,1.4465,1.4876,1.4627,1.4438,1.431,1.431,1.4214,1.4052,1.4214,1.431,1.4342,1.4696,1.5064,1.5506,1.6403,1.7039,1.7498,0.0,0.0,0.0,0.0,0.0,0.0,0.0,0.0,0.0,0.0,0.0,0.0,0.0,0.0,0.0,0.0,0.0,0.0,0.0,0.0,1.5161,1.6159,1.7173,1.8104,1.8951,1.9386,2.0,2.0825,2.1541,2.1904,2.1921,2.2452,2.2695,2.2695,2.2289,2.167,2.0877,1.9181,1.754,1.6026,1.5318,1.4586,1.3965,1.4368,1.4568,0.0,0.0,0.0,0.0,0.0,0.0,0.0,0.0,0.0,0.0,0.0,0.0,0.0,0.0,0.5933,0.6005,0.6812,0.6801,0.6988,0.8304,0.8642,0.9152,1.0921,1.1172,1.1058,1.0914,1.1199,1.1474,1.1411,1.1838,1.2472,1.3363,1.2782,1.2476,1.3077,1.3236,0.0,0.0,0.0,0.0,1.4635,1.451,1.4695,1.536,1.5677,1.6016,1.6412,1.667,1.638,1.5474,1.5577,1.534,1.477,1.4735,1.4936,1.5359,1.5074,1.4876,1.4721,1.4721,1.4627,1.4501,1.4658,1.4786,1.4925,1.5316,1.5762,1.6336,1.7341,1.8237,1.8992,0.0,0.0,0.0,0.0,0.0,0.0,0.0,0.0,0.0,0.0,0.0,0.0,0.0,0.0,0.0,0.0,0.0,0.0,0.0,0.0,0.0,1.6013,1.7057,1.777,1.8146,1.8582,1.9006,1.9438,2.0592,2.1167,2.1218,2.2176,2.2609,2.2531,2.215,2.1723,2.1166,1.8808,1.695,1.5541,1.5533,1.4911,1.4134,1.5138,0.0,0.0,0.0,0.0,0.0,0.0,0.0,0.0,0.0,0.0,0.0,0.0,0.0,0.5831,0.7464,0.7222,0.6805,0.8211,0.8036,0.7822,0.9042,0.9313,0.9998,1.2412,1.1832,1.1182,0.0,0.0,1.1044,1.0992,1.1353,1.1845,1.2353,1.2794,1.3066,0.0,0.0,0.0,0.0,0.0,0.0,1.4941,0.0,1.5212,1.5092,1.5879,1.6474,1.6841,1.6841,1.6644,1.6293,1.6266,1.6105,1.5799,1.5799,1.5799,1.5799,1.5799,1.5551,1.5134,1.5134,1.4907,1.4596,1.4968,1.533,1.5677,1.6145,1.6722,1.7403,1.8145,1.9093,2.0052,0.0,0.0,0.0,0.0,0.0,0.0,0.0,0.0,0.0,0.0,0.0,0.0,0.0,0.0,0.0,0.0,0.0,0.0,0.0,0.0,0.0,0.0,0.0,0.0,0.0,0.0,0.0,0.0,0.0,2.0557,2.1047,2.1566,2.1354,2.0525,2.0426,1.9704,1.8517,1.7229,1.6528,1.6189,0.0,1.5704,1.5839,0.0,0.0,0.0,0.0,0.0,0.0,0.0,0.0,0.0,0.0,0.0,0.9399,0.0,0.0,0.8111,0.8132,0.8401,0.8807,0.9327,0.9313,0.9512,1.0689,1.0989,1.1376,1.2721,1.3073,1.3002,0.0,0.0,0.0,1.208,1.2467,0.0,1.2992,1.2792,0.0,0.0,0.0,1.4563,1.5295,1.5583,0.0,0.0,1.5235,1.5188,1.6293,1.6565,1.6942,1.7542,1.7296,1.6881,1.6224,1.5732,1.5591,1.5799,1.5799,1.5799,1.5799,1.5799,1.5741,1.561,1.561,1.5551,1.5477,1.558,1.5811,1.6145,1.6528,1.6926,1.7427,1.8416,1.9294,2.0103,0.0,0.0,0.0,0.0,0.0,0.0,0.0,0.0,0.0,0.0,0.0,0.0,0.0,0.0,0.0,0.0,0.0,0.0,0.0,0.0,0.0,0.0,0.0,0.0,0.0,0.0,0.0,0.0,0.0,0.0,0.0,2.0463,2.0447,1.9845,1.9563,1.8851,1.7811,0.0,0.0,0.0,0.0,0.0,0.0,0.0,0.0,0.0,0.0,0.0,0.0,0.0,0.0,1.1893,1.0749,1.025,0.9908,0.8885,0.0,0.8948,0.8925,0.9375,0.9878,1.0262,1.0517,1.0914,1.1779,1.1981,1.2334,1.3586,1.3757,0.0,0.0,0.0,0.0,0.0,0.0,0.0,1.2842,1.283,1.3083,0.0,1.4253,0.0,1.5862,1.5718,1.5907,0.0,1.5722,1.5679,1.6878,1.6723,1.6892,1.7549,1.7248,1.6807,1.6248,1.598,1.5987,1.6189,1.5933,1.5948,1.6189,1.5933,1.5799,1.5799,0.0,1.5799,1.5799,1.5799,1.608,1.6528,1.6738,1.7076,1.7633,1.8576,1.9164,1.9562,0.0,0.0,0.0,0.0,0.0,0.0,0.0,0.0,0.0,0.0,0.0,0.0,0.0,0.0,0.0,0.0,0.0,0.0,0.0,0.0,0.0,0.0,0.0,0.0,0.0,0.0,0.0,0.0,0.0,0.0,0.0,0.0,0.0,0.0,0.0,0.0,0.0,0.0,0.0,0.0,0.0,0.0,0.0,0.0,0.0,0.0,0.0,0.0,0.0,0.0,1.1158,1.1285,1.0387,1.0145,1.0089,0.9444,0.9199,0.9204,0.9849,1.0162,1.0429,1.1027,1.1485,1.1957,1.2473,1.2663,1.3119,1.4525,0.0,0.0,1.4797,0.0,1.3351,1.2792,0.0,1.2519,1.2526,1.2897,1.3396,1.3942,1.452,1.5284,1.6304,1.5553,1.5605,1.707,1.657,1.645,1.6959,1.6564,1.6581,1.715,1.7001,1.6674,1.6246,1.6638,1.6756,1.6577,1.6129,1.6144,1.6562,1.6024,1.5799,1.5799,0.0,0.0,1.5885,1.5885,1.6274,1.6866,1.6866,1.7281,1.7923,1.8468,1.8764,1.8859,0.0,0.0,0.0,0.0,0.0,0.0,0.0,0.0,0.0,0.0,0.0,0.0,0.0,0.0,0.0,0.0,0.0,0.0,0.0,0.0,0.0,0.0,0.0,0.0,0.0,0.0,0.0,0.0,0.0,0.0,0.0,0.0,0.0,0.0,0.0,0.0,0.0,0.0,0.0,0.0,0.0,0.0,0.0,0.0,0.0,0.0,0.0,0.0,0.0,0.0,1.0782,1.0488,1.0331,1.0504,1.0666,1.021,1.0584,1.1056,1.0778,1.0767,1.0984,1.194,1.199,1.2029,1.2873,1.3465,0.0,0.0,0.0,1.5171,1.4899,1.5059,0.0,1.3899,0.0,0.0,0.0,0.0,1.3436,0.0,0.0,0.0,0.0,0.0,0.0,0.0,0.0,1.7104,1.6475,1.6347,1.634,1.6474,1.7059,1.6909,1.5885,1.6983,1.7012,1.5978,1.6353,1.6353,1.5963,1.5858,1.5799,1.5799,1.5799,0.0,1.6219,1.6219,1.6617,1.7224,1.7224,1.7626,1.8153,1.7732,1.8159,1.8901,0.0,0.0,0.0,0.0,0.0,0.0,0.0,0.0,0.0,0.0,0.0,0.0,0.0,0.0,0.0,0.0,0.0,0.0,0.0,0.0,0.0,0.0,0.0,0.0,0.0,0.0,0.0,0.0,0.0,0.0,0.0,0.0,0.0,0.0,0.0,0.0,0.0,0.0,0.0,0.0,0.0,0.0,0.0,0.0,0.0,0.0,0.0,0.0,0.0,0.0,1.1729,1.0992,1.0467,1.042,1.0547,1.0342,1.0616,1.0931,1.0945,1.116,1.1538,1.2261,1.2494,1.265,1.3094,0.0,0.0,0.0,0.0,1.5699,1.5678,0.0,0.0,0.0,0.0,0.0,0.0,0.0,0.0,0.0,0.0,0.0,0.0,0.0,0.0,0.0,0.0,1.7272,1.7296,1.643,1.6008,1.6201,1.6925,1.7001,1.6383,1.7599,1.7745,1.6787,1.6726,1.6547,1.6263,1.5948,1.5799,1.5829,1.6129,0.0,1.6113,1.7018,1.7488,1.7662,1.8243,1.8416,1.8299,1.7988,1.8068,1.8295,0.0,0.0,0.0,0.0,0.0,0.0,0.0,0.0,0.0,0.0,0.0,0.0,0.0,0.0,0.0,0.0,0.0,0.0,0.0,0.0,0.0,0.0,0.0,0.0,0.0,0.0,0.0,0.0,0.0,0.0,0.0,0.0,0.0,0.0,0.0,0.0,0.0,0.0,0.0,0.0,0.0,0.0,0.0,0.0,0.0,0.0,0.0,0.0,0.0,0.0,1.295,1.2218,1.1016,1.0544,1.0428,1.0322,1.042,1.0684,1.1051,1.1572,1.2167,1.2651,1.2969,1.3245,1.3474,1.3894,0.0,0.0,0.0,1.6007,1.6434,0.0,0.0,0.0,0.0,0.0,0.0,0.0,0.0,0.0,0.0,0.0,0.0,0.0,0.0,0.0,0.0,0.0,1.7557,1.6319,1.5681,1.5899,1.6719,1.7082,1.6904,1.8254,1.8448,1.7473,1.71,1.6771,1.6488,1.6009,1.5873,1.6009,1.6488,0.0,0.0,1.7941,1.8448,1.8426,1.917,1.918,1.8696,1.8453,1.8187,1.7977,0.0,0.0,0.0,0.0,0.0,0.0,0.0,0.0,0.0,0.0,0.0,0.0,0.0,0.0,0.0,0.0,0.0,0.0,0.0,0.0,0.0,0.0,0.0,0.0,0.0,0.0,0.0,0.0,0.0,0.0,0.0,0.0,0.0,0.0,0.0,0.0,0.0,0.0,0.0,0.0,0.0,0.0,0.0,0.0,0.0,0.0,0.0,0.0,0.0,0.0,0.0,1.4198,1.2267,1.1319,1.0829,1.0428,0.0,0.0,1.1609,1.2235,1.3002,1.357,1.339,1.3348,1.4341,0.0,0.0,0.0,1.6057,1.6459,1.6509,1.607,0.0,0.0,0.0,0.0,0.0,0.0,0.0,0.0,0.0,0.0,0.0,0.0,0.0,0.0,0.0,0.0,1.5638,1.5532,1.5479,1.536,1.6617,1.7155,1.6904,1.8697,1.8672,1.6816,1.7354,1.7012,1.5888,1.5829,1.6099,1.6622,1.6697,0.0,0.0,1.8773,1.9214,1.9782,1.9518,1.9536,1.9634,1.8592,1.8406,1.8609,0.0,0.0,0.0,0.0,0.0,0.0,0.0,0.0,0.0,0.0,0.0,0.0,0.0,0.0,0.0,0.0,0.0,0.0,0.0,0.0,0.0,0.0,0.0,0.0,0.0,0.0,0.0,0.0,0.0,0.0,0.0,0.0,0.0,0.0,0.0,0.0,0.0,0.0,0.0,0.0,0.0,0.0,0.0,0.0,0.0,0.0,0.0,0.0,0.0,0.0,0.0,0.0,1.4928,1.4025,0.0,0.0,1.1625,1.2196,1.2467,1.3161,1.3859,1.4145,1.3942,1.3744,1.412,0.0,0.0,1.513,1.5906,1.6522,1.6522,1.6333,1.6082,0.0,0.0,0.0,0.0,0.0,0.0,0.0,0.0,0.0,0.0,0.0,0.0,0.0,0.0,0.0,1.5581,1.5513,1.5673,1.6016,1.6834,1.7562,1.8108,1.8756,1.8493,1.7294,1.716,1.6831,1.6353,1.6353,1.6682,1.7356,1.8034,0.0,0.0,1.9987,2.0319,2.0033,2.0533,2.0261,1.9531,1.9092,1.8814,1.8702,0.0,0.0,0.0,0.0,0.0,0.0,0.0,0.0,0.0,0.0,0.0,0.0,0.0,0.0,0.0,0.0,0.0,0.0,0.0,0.0,0.0,0.0,0.0,0.0,0.0,0.0,0.0,0.0,0.0,0.0,0.0,0.0,0.0,0.0,0.0,0.0,0.0,0.0,0.0,0.0,0.0,0.0,0.0,0.0,0.0,0.0,0.0,0.0,0.0,0.0,0.0,0.0,0.0,0.0,0.0,0.0,1.226,1.2528,1.2556,1.3404,1.4212,1.4142,1.4224,1.4311,0.0,0.0,1.5076,1.5299,1.6049,1.668,1.6522,1.6637,1.6625,0.0,0.0,0.0,0.0,0.0,0.0,0.0,0.0,0.0,0.0,0.0,0.0,0.0,0.0,0.0,0.0,1.5734,1.6023,1.648,1.7006,1.7838,1.8878,1.8771,1.8373,1.7682,1.7025,1.6712,1.6712,1.6712,1.7237,1.8225,0.0,0.0,0.0,2.0613,2.0736,2.0224,2.0619,2.0238,1.9386,1.9223,1.9128,1.9001,0.0,0.0,0.0,0.0,0.0,0.0,0.0,0.0,0.0,0.0,0.0,0.0,0.0,0.0,0.0,0.0,0.0,0.0,0.0,0.0,0.0,0.0,0.0,0.0,0.0,0.0,0.0,0.0,0.0,0.0,0.0,0.0,0.0,0.0,0.0,0.0,0.0,0.0,0.0,0.0,0.0,0.0,0.0,0.0,0.0,0.0,0.0,0.0,0.0,0.0,0.0,0.0,0.0,0.0,0.0,0.0,1.2672,1.2584,1.1595,1.2676,1.3955,1.3367,1.417,1.5059,0.0,0.0,1.6282,1.6283,1.6822,1.7105,1.6595,1.6909,1.7312,1.7258,0.0,0.0,0.0,0.0,0.0,0.0,0.0,0.0,0.0,0.0,0.0,0.0,0.0,0.0,0.0,1.6208,1.6485,1.6507,1.7006,1.7838,1.8878,1.8771,1.8373,1.7682,1.7025,1.6712,1.6712,1.6712,1.7667,0.0,0.0,0.0,0.0,2.0378,2.0178,2.0475,1.937,1.9104,1.9353,1.8872,1.9106,1.9675,0.0,0.0,0.0,0.0,0.0,0.0,0.0,0.0,0.0,0.0,0.0,0.0,0.0,0.0,0.0,0.0,0.0,0.0,0.0,0.0,0.0,0.0,0.0,0.0,0.0,0.0,0.0,0.0,0.0,0.0,0.0,0.0,0.0,0.0,0.0,0.0,0.0,0.0,0.0,0.0,0.0,0.0,0.0,0.0,0.0,0.0,0.0,0.0,0.0,0.0,0.0,0.0,0.0,0.0,0.0,0.0,0.0,0.0,1.454,1.4904,1.5371,1.5872,1.5795,1.5668,1.601,0.0,1.6255,1.6838,1.7445,1.7787,1.7626,1.7747,1.7691,1.7244,1.7483,0.0,0.0,0.0,0.0,0.0,0.0,0.0,0.0,0.0,0.0,0.0,0.0,0.0,0.0,1.6931,1.7048,1.7033,1.7556,1.8139,1.8756,1.8257,1.7667,1.701,1.6816,1.6712,1.6726,1.7174,0.0,0.0,0.0,0.0,0.0,2.0702,2.0558,2.0146,1.9741,1.9296,1.8951,1.9281,1.951,1.969,0.0,0.0,0.0,0.0,0.0,0.0,0.0,0.0,0.0,0.0,0.0,0.0,0.0,0.0,0.0,0.0,0.0,0.0,0.0,0.0,0.0,0.0,0.0,0.0,0.0,0.0,0.0,0.0,0.0,0.0,0.0,0.0,0.0,0.0,0.0,0.0,0.0,0.0,0.0,0.0,0.0,0.0,0.0,0.0,0.0,0.0,0.0,0.0,0.0,0.0,0.0,0.0,0.0,0.0,0.0,0.0,0.0,0.0,0.0,1.5902,1.6232,1.6344,1.6273,0.0,0.0,0.0,1.7004,1.7662,1.8134,1.8341,1.8145,1.8263,1.8317,1.8058,0.0,0.0,0.0,0.0,0.0,0.0,0.0,0.0,0.0,0.0,0.0,0.0,0.0,0.0,0.0,1.7585,1.769,1.7895,1.7983,1.8235,1.8702,1.7772,1.7115,1.6712,1.6458,1.6473,1.6726,1.713,0.0,0.0,0.0,0.0,0.0,2.0517,2.0029,1.9035,1.9214,1.8887,1.8384,1.885,1.9199,1.9369,0.0,0.0,0.0,0.0,0.0,0.0,0.0,0.0,0.0,0.0,0.0,0.0,0.0,0.0,0.0,0.0,0.0,0.0,0.0,0.0,0.0,0.0,0.0,0.0,0.0,0.0,0.0,0.0,1.532,1.5588,1.562,0.0,0.0,0.0,0.0,0.0,0.0,0.0,0.0,0.0,0.0,0.0,0.0,0.0,0.0,0.0,0.0,0.0,0.0,0.0,0.0,0.0,0.0,0.0,0.0,0.0,0.0,0.0,0.0,0.0,0.0,0.0,0.0,0.0,0.0,0.0,0.0,0.0,1.8796,1.8817,1.8302,1.8612,1.9089,1.9525,0.0,0.0,0.0,0.0,0.0,0.0,0.0,0.0,0.0,0.0,0.0,0.0,0.0,0.0,0.0,1.8185,1.8419,1.893,1.8324,1.8156,1.8627,1.7354,1.6682,1.6667,1.6173,1.6203,1.6682,1.6817,0.0,0.0,0.0,0.0,0.0,1.9856,1.8881,1.7397,1.7991,1.7956,1.7626,1.784,1.8315,1.8765,0.0,0.0,0.0,0.0,0.0,0.0,0.0,0.0,0.0,0.0,0.0,0.0,0.0,0.0,0.0,0.0,0.0,0.0,0.0,0.0,0.0,0.0,0.0,0.0,0.0,0.0,0.0,1.4698,1.532,1.5588,1.5576,1.529,0.0,0.0,0.0,0.0,0.0,0.0,0.0,0.0,0.0,0.0,0.0,0.0,0.0,0.0,1.2655,1.3232,0.0,0.0,0.0,0.0,0.0,0.0,0.0,0.0,0.0,0.0,0.0,0.0,0.0,0.0,0.0,0.0,0.0,0.0,0.0,0.0,0.0,1.9479,1.9369,1.9442,1.9495,0.0,0.0,0.0,0.0,0.0,0.0,0.0,0.0,0.0,0.0,0.0,0.0,0.0,0.0,0.0,0.0,1.8688,1.8968,1.9479,1.8856,1.8312,1.7921,1.7115,1.6608,1.6409,1.697,1.6955,1.6455,1.8038,0.0,0.0,0.0,0.0,1.8809,1.9296,1.8492,1.7045,1.7975,1.7656,1.6754,1.7688,1.8138,1.8263,0.0,0.0,0.0,0.0,0.0,0.0,0.0,0.0,0.0,0.0,0.0,0.0,0.0,0.0,0.0,0.0,0.0,0.0,0.0,0.0,0.0,0.0,0.0,0.0,0.0,0.0,0.0,0.0,0.0,1.5469,0.0,0.0,0.0,0.0,0.0,0.0,0.0,0.0,0.0,0.0,0.0,0.0,0.0,0.0,0.0,0.0,1.1892,1.2435,0.0,1.4219,1.5321,1.665,0.0,0.0,0.0,0.0,2.1582,0.0,0.0,0.0,0.0,0.0,0.0,0.0,0.0,0.0,0.0,0.0,0.0,0.0,1.9639,0.0,0.0,0.0,0.0,0.0,0.0,0.0,0.0,0.0,0.0,0.0,0.0,0.0,0.0,0.0,0.0,0.0,0.0,1.9281,1.9406,1.969,1.9046,1.8538,1.8179,1.7488,1.7105,1.6953,1.7466,1.7561,1.7306,1.8206,1.8204,0.0,0.0,0.0,1.8144,1.9188,1.8543,1.6949,1.8174,1.7812,1.6748,1.7487,1.7747,1.7706,0.0,0.0,0.0,0.0,0.0,0.0,0.0,0.0,0.0,0.0,0.0,0.0,0.0,0.0,0.0,0.0,0.0,0.0,0.0,0.0,0.0,0.0,0.0,0.0,0.0,0.0,0.0,0.0,0.0,0.0,0.0,0.0,0.0,0.0,0.0,0.0,0.0,0.0,0.0,0.0,0.0,0.0,0.0,0.0,0.0,0.0,0.0,0.0,0.0,1.4219,1.4904,1.564,1.8311,0.0,0.0,0.0,0.0,0.0,0.0,0.0,0.0,0.0,0.0,0.0,0.0,0.0,0.0,0.0,0.0,0.0,0.0,0.0,0.0,0.0,0.0,0.0,0.0,0.0,0.0,0.0,0.0,0.0,0.0,0.0,0.0,0.0,0.0,0.0,0.0,1.969,1.969,1.969,1.9151,1.8852,1.8852,1.8104,1.7715,1.7779,1.7917,1.8126,1.8468,1.8189,1.8235,1.8547,0.0,0.0,1.7942,1.9185,1.8535,1.6929,1.8167,1.7925,1.6896,1.7101,1.7188,1.7118,0.0,0.0,0.0,0.0,0.0,0.0,0.0,0.0,0.0,0.0,0.0,0.0,0.0,0.0,0.0,0.0,0.0,0.0,0.0,0.0,0.0,0.0,0.0,0.0,0.0,0.0,0.0,0.0,0.0,0.0,1.6033,1.5286,1.5646,0.0,0.0,0.0,0.0,0.0,0.0,0.0,0.0,0.0,0.0,0.0,0.0,0.0,0.0,0.0,0.0,1.4992,1.5648,1.6462,1.9047,0.0,0.0,0.0,0.0,0.0,1.9408,1.8227,0.0,0.0,0.0,0.0,0.0,0.0,0.0,0.0,0.0,0.0,0.0,0.0,0.0,0.0,0.0,0.0,0.0,0.0,0.0,0.0,0.0,0.0,0.0,0.0,0.0,0.0,0.0,0.0,0.0,1.969,1.969,1.969,1.9585,1.954,1.954,1.8328,1.7861,1.813,1.8809,1.903,1.8853,1.9399,1.9484,1.9231,0.0,1.878,1.8553,1.8616,1.7768,1.6457,1.7234,1.6888,1.5987,1.6435,1.6637,1.6595,0.0,0.0,0.0,0.0,0.0,0.0,0.0,0.0,0.0,0.0,0.0,0.0,0.0,0.0,0.0,0.0,0.0,0.0,0.0,0.0,0.0,0.0,0.0,0.0,0.0,0.0,0.0,0.0,0.0,1.5086,1.5376,1.5606,1.6556,1.8114,0.0,0.0,0.0,0.0,0.0,0.0,0.0,0.0,0.0,0.0,0.0,0.0,0.0,0.0,0.0,0.0,1.5669,1.6608,1.897,0.0,0.0,0.0,0.0,0.0,1.9125,1.7812,1.6941,0.0,0.0,0.0,0.0,0.0,0.0,0.0,0.0,0.0,0.0,0.0,0.0,0.0,0.0,0.0,0.0,0.0,0.0,0.0,0.0,0.0,0.0,0.0,0.0,0.0,0.0,0.0,0.0,0.0,1.969,1.969,1.969,1.969,1.969,1.9091,1.8865,1.9019,1.9387,1.9592,1.9641,1.9791,1.9694,1.937,0.0,1.8755,1.8276,1.8357,1.777,1.6873,1.7182,1.6837,1.617,1.6421,1.6522,1.6522,0.0,0.0,0.0,0.0,0.0,0.0,0.0,0.0,0.0,0.0,0.0,0.0,0.0,0.0,0.0,0.0,0.0,0.0,0.0,0.0,0.0,0.0,0.0,0.0,0.0,0.0,0.0,1.3367,1.4063,1.453,1.4776,1.6037,1.7349,0.0,0.0,0.0,0.0,0.0,0.0,0.0,0.0,0.0,0.0,0.0,0.0,0.0,0.0,0.0,0.0,0.0,0.0,0.0,0.0,0.0,0.0,0.0,2.0175,1.9604,1.8557,1.7405,1.6454,0.0,0.0,1.5508,1.5407,0.0,0.0,0.0,0.0,0.0,0.0,0.0,0.0,0.0,0.0,0.0,0.0,0.0,0.0,0.0,0.0,0.0,0.0,0.0,0.0,0.0,0.0,0.0,0.0,0.0,1.969,1.969,1.969,1.969,1.969,1.969,1.969,1.969,1.9782,2.0,2.0265,1.9847,1.9623,1.957,1.9089,1.8594,1.8122,1.8151,1.7828,1.7312,1.7146,1.6951,1.668,1.668,1.6752,1.6879,0.0,0.0,0.0,0.0,0.0,0.0,0.0,0.0,0.0,0.0,0.0,0.0,0.0,0.0,0.0,0.0,0.0,0.0,0.0,0.0,0.0,0.0,0.0,0.0,0.0,1.0268,1.0523,1.1236,1.2131,1.3486,1.5285,1.6245,1.7086,0.0,0.0,0.0,0.0,0.0,0.0,0.0,0.0,0.0,0.0,0.0,0.0,0.0,0.0,0.0,0.0,0.0,0.0,0.0,0.0,0.0,0.0,0.0,1.8905,1.8386,1.6881,1.6474,1.6244,1.5235,0.0,0.0,1.5082,0.0,0.0,0.0,0.0,0.0,0.0,0.0,0.0,0.0,0.0,0.0,0.0,0.0,0.0,0.0,0.0,0.0,0.0,0.0,0.0,0.0,0.0,0.0,0.0,0.0,0.0,1.969,1.969,1.969,1.969,1.969,1.969,1.9711,2.0089,2.028,2.0283,1.9694,1.9725,2.0138,1.8652,1.8324,1.8745,1.7799,1.7354,1.7229,1.6752,1.6837,1.7229,1.7229,1.7544,1.7987,0.0,0.0,0.0,0.0,0.0,0.0,0.0,0.0,0.0,0.0,0.0,0.0,0.0,0.0,0.0,0.0,0.0,0.0,0.0,0.0,0.0,0.0,0.0,1.0089,0.9236,0.976,1.0157,1.0456,1.2311,1.4088,1.5757,1.6329,0.0,0.0,0.0,0.0,0.0,0.0,0.0,0.0,0.0,0.0,0.0,0.0,0.0,0.0,0.0,0.0,0.0,0.0,0.0,0.0,0.0,0.0,0.0,0.0,1.867,1.7832,1.6627,1.6157,1.5823,1.508,0.0,0.0,0.0,0.0,0.0,0.0,0.0,0.0,0.0,0.0,0.0,0.0,0.0,0.0,0.0,0.0,0.0,0.0,0.0,0.0,0.0,0.0,0.0,0.0,0.0,0.0,0.0,0.0,0.0,1.969,1.969,1.953,1.9207,1.9207,1.9043,1.8727,1.9522,1.9945,1.9929,1.9687,1.9527,1.9419,1.8782,1.8285,1.7867,1.7463,1.7118,1.6837,1.6951,1.7105,1.7353,1.7666,1.7947,1.8106,0.0,0.0,0.0,0.0,0.0,0.0,0.0,0.0,0.0,0.0,0.0,0.0,0.0,0.0,0.0,0.0,0.0,0.0,0.0,0.0,0.0,0.0,0.0,0.9948,0.902,0.99,1.0182,0.9802,1.215,1.4167,1.587,0.0,0.0,0.0,0.0,0.0,0.0,0.0,0.0,0.0,0.0,0.0,0.0,0.0,0.0,0.0,0.0,0.0,0.0,0.0,0.0,0.0,0.0,0.0,0.0,0.0,0.0,1.6584,1.5758,1.5498,0.0,0.0,0.0,0.0,0.0,0.0,0.0,0.0,0.0,0.0,0.0,0.0,0.0,0.0,0.0,0.0,0.0,0.0,0.0,0.0,0.0,0.0,0.0,0.0,0.0,0.0,0.0,0.0,0.0,0.0,0.0,0.0,1.953,1.9281,1.8893,1.8727,1.8458,1.8106,1.8855,1.9281,1.9442,1.9442,1.9244,1.8893,1.8727,1.8145,1.7312,1.7312,1.7188,1.7034,1.7435,1.7666,1.7867,1.8224,1.8458,1.8612,0.0,0.0,0.0,0.0,0.0,0.0,0.0,0.0,0.0,0.0,0.0,0.0,0.0,0.0,0.0,0.0,0.0,0.0,0.0,0.0,0.0,0.0,0.0,1.0862,0.9711,1.0502,1.0331,0.9125,1.1335,1.3482,1.5459,0.0,0.0,0.0,0.0,0.0,0.0,0.0,0.0,0.0,0.0,0.0,0.0,0.0,0.0,0.0,0.0,0.0,0.0,0.0,0.0,0.0,0.0,0.0,0.0,0.0,1.5092,1.442,1.4032,1.4407,0.0,0.0,0.0,0.0,0.0,0.0,0.0,0.0,0.0,0.0,0.0,0.0,0.0,0.0,0.0,0.0,0.0,0.0,0.0,0.0,0.0,0.0,0.0,0.0,0.0,0.0,0.0,0.0,0.0,0.0,0.0,0.0,1.9169,1.8893,1.8893,1.838,1.8106,1.8066,1.8106,1.838,1.8893,1.8893,1.8893,1.8855,1.8341,1.7787,1.7312,1.7312,1.7626,1.8106,1.8106,1.8419,1.8893,1.8893,1.9244,1.969,0.0,0.0,0.0,0.0,0.0,0.0,0.0,0.0,0.0,0.0,0.0,0.0,0.0,0.0,0.0,0.0,0.0,0.0,0.0,0.0,0.0,0.0,0.0,0.0,0.0,0.0,1.1832,1.2055,1.2615,1.3249,0.0,0.0,0.0,1.2977,0.0,0.0,0.0,0.0,0.0,0.0,0.0,0.0,0.0,0.0,0.0,0.0,0.0,0.0,0.0,0.0,0.0,0.0,0.0,0.0,0.0,1.5374,1.5159,1.497,1.4565,0.0,0.0,0.0,0.0,0.0,0.0,0.0,0.0,0.0,0.0,0.0,0.0,0.0,0.0,0.0,0.0,0.0,0.0,0.0,0.0,0.0,0.0,0.0,0.0,0.0,0.0,0.0,0.0,0.0,0.0,0.0,0.0,0.0,1.8419,1.8185,1.7787,1.7626,1.7353,1.6993,1.7353,1.7827,1.8341,1.8727,1.8688,1.8341,1.8574,1.838,1.7867,1.7867,1.7947,1.8145,1.8535,1.8765,1.8968,1.9332,1.9566,1.969,0.0,0.0,0.0,0.0,0.0,0.0,0.0,0.0,0.0,0.0,0.0,0.0,0.0,0.0,0.0,0.0,0.0,0.0,0.0,0.0,0.0,0.0,0.0,0.0,0.0,1.2171,1.3008,0.0,0.0,0.0,0.0,0.0,0.0,1.1839,0.0,0.0,0.0,0.0,0.0,0.0,0.0,0.0,0.0,0.0,0.0,0.0,0.0,0.0,0.0,0.0,0.0,0.0,0.0,0.0,0.0,1.4743,1.4318,1.3942,1.3308,0.0,0.0,0.0,0.0,0.0,0.0,0.0,0.0,0.0,0.0,0.0,0.0,0.0,0.0,0.0,0.0,0.0,0.0,0.0,0.0,0.0,0.0,0.0,0.0,0.0,0.0,0.0,0.0,0.0,0.0,0.0,0.0,0.0,1.7907,1.7626,1.7312,1.7076,1.6909,1.6837,1.7146,1.7585,1.8145,1.865,1.8727,1.8419,1.8535,1.8535,1.8419,1.8419,1.8535,1.8765,1.9095,1.9207,1.9244,1.9566,1.969,1.969,0.0,0.0,0.0,0.0,0.0,0.0,0.0,0.0,0.0,0.0,0.0,0.0,0.0,0.0,0.0,0.0,0.0,0.0,0.0,0.0,0.0,0.0,0.0,0.0,0.0,0.0,0.0,0.0,0.0,0.0,0.0,0.0,1.2233,1.1736,0.0,1.0697,0.0,0.0,0.0,0.0,0.0,0.0,0.0,0.0,0.0,0.0,0.0,0.0,0.0,0.0,0.0,0.0,0.0,0.0,1.4986,1.3976,1.3011,0.0,0.0,0.0,0.0,0.0,0.0,0.0,0.0,0.0,0.0,0.0,0.0,0.0,0.0,0.0,0.0,0.0,0.0,0.0,0.0,0.0,0.0,0.0,0.0,0.0,0.0,0.0,0.0,0.0,0.0,0.0,0.0,0.0,0.0,1.7947,1.7463,1.7229,1.7312,1.6837,1.6837,1.7394,1.7435,1.7706,1.8185,1.8688,1.893,1.8968,1.8458,1.8535,1.8968,1.8968,1.9244,1.969,1.969,1.969,1.969,1.969,1.969,1.969,0.0,0.0,0.0,0.0,0.0,0.0,0.0,0.0,0.0,0.0,0.0,0.0,0.0,0.0,0.0,0.0,0.0,0.0,0.0,0.0,0.0,0.0,0.0,0.0,0.0,0.0,0.0,0.0,0.0,0.0,0.0,0.0,0.0,1.0575,0.0,0.9992,0.0,0.0,0.0,0.0,0.0,0.0,0.0,0.0,0.0,0.0,0.0,0.0,0.0,0.0,0.0,0.0,1.6037,1.5679,1.559,1.4012,1.3245,0.0,0.0,0.0,0.0,0.0,0.0,0.0,0.0,0.0,0.0,0.0,0.0,0.0,0.0,0.0,0.0,0.0,0.0,0.0,0.0,0.0,0.0,0.0,0.0,0.0,0.0,0.0,0.0,0.0,0.0,0.0,0.0,0.0,0.0,1.6879,1.671,1.6879,1.7312,1.7188,1.7394,0.0,1.8341,1.8612,1.8727,1.8855,1.9132,1.953,1.9406,1.9406,1.953,1.953,1.9603,1.969,1.969,1.969,1.969,1.969,1.969,1.9765,0.0,0.0,0.0,0.0,0.0,0.0,0.0,0.0,0.0,0.0,0.0,0.0,0.0,0.0,0.0,0.0,0.0,0.0,0.0,0.0,0.0,0.0,0.0,0.0,0.0,0.0,0.0,0.0,0.0,0.0,0.0,0.0,0.0,1.0929,0.0,0.9928,0.0,0.0,0.0,0.0,0.0,0.0,0.0,0.0,0.0,0.0,1.6589,0.0,0.0,0.0,0.0,0.0,0.0,0.0,1.5079,1.367,0.0,0.0,0.0,0.0,0.0,0.0,0.0,0.0,0.0,0.0,0.0,0.0,0.0,0.0,0.0,0.0,0.0,0.0,0.0,0.0,0.0,0.0,0.0,0.0,0.0,0.0,0.0,0.0,0.0,0.0,0.0,0.0,0.0,1.6752,1.6909,1.6879,1.6879,1.7146,1.7666,1.7666,1.7947,1.8496,1.8765,1.9043,1.9281,1.9281,1.9442,1.969,1.969,1.969,1.969,1.969,1.969,1.969,1.969,1.969,1.9735,2.0049,2.0183,2.0273,0.0,0.0,0.0,0.0,0.0,0.0,0.0,0.0,0.0,0.0,0.0,0.0,0.0,0.0,0.0,0.0,0.0,0.0,0.0,0.0,0.0,0.0,0.0,0.0,0.0,0.0,0.0,0.0,0.0,0.0,0.0,0.0,0.0,1.1605,0.0,0.0,0.0,0.0,0.0,0.0,0.0,0.0,0.0,0.0,0.0,0.0,1.6261,1.7121,1.7452,1.7594,0.0,0.0,0.0,0.0,1.4461,0.0,0.0,0.0,0.0,0.0,0.0,0.0,0.0,0.0,0.0,0.0,0.0,0.0,0.0,0.0,0.0,0.0,0.0,0.0,0.0,0.0,0.0,0.0,0.0,0.0,0.0,0.0,0.0,0.0,0.0,0.0,0.0,0.0,1.6522,1.6595,1.6837,1.7312,1.7394,1.7706,1.8224,1.8263,1.8496,1.9043,1.9043,1.9281,1.969,1.969,1.969,1.969,1.969,1.969,1.969,1.969,1.975,1.9869,1.9869,1.9929,2.0094,2.0677,2.091,2.1114,0.0,0.0,0.0,0.0,0.0,0.0,0.0,0.0,0.0,0.0,0.0,0.0,0.0,0.0,0.0,0.0,0.0,0.0,0.0,0.0,0.0,0.0,0.0,0.0,0.0,0.0,0.0,0.0,0.0,0.0,0.0,0.0,0.0,0.0,0.0,0.0,0.0,0.0,0.0,0.0,0.0,0.0,0.0,0.0,0.0,0.0,1.4663,1.575,1.6339,1.6473,1.66,0.0,0.0,0.0,0.0,0.0,0.0,0.0,0.0,0.0,0.0,0.0,0.0,0.0,0.0,0.0,0.0,0.0,0.0,0.0,0.0,0.0,0.0,0.0,0.0,0.0,0.0,0.0,0.0,0.0,0.0,0.0,0.0,0.0,0.0,0.0,0.0,0.0,1.6522,1.6951,1.7229,1.7312,1.7747,1.8263,1.8779,1.8779,1.9043,1.9603,1.9603,1.9639,1.969,1.969,1.969,1.969,1.969,1.969,1.969,1.969,2.0034,2.0572,2.0572,2.0917,2.144,2.153,2.1827,2.2254,0.0,0.0,0.0,0.0,0.0,0.0,0.0,0.0,0.0,0.0,0.0,0.0,0.0,0.0,0.0,0.0,0.0,0.0,0.0,0.0,0.0,0.0,0.0,0.0,0.0,0.0,0.0,0.0,0.0,0.0,0.0,1.1217,1.1142,0.0,0.0,0.0,0.0,0.0,0.0,0.0,0.0,0.0,0.0,0.0,0.0,0.0,0.0,1.4896,1.5205,1.5366,1.5762,1.5951,1.4624,0.0,0.0,0.0,0.0,0.0,0.0,0.0,0.0,0.0,0.0,0.0,0.0,0.0,0.0,0.0,0.0,0.0,0.0,0.0,0.0,0.0,0.0,0.0,0.0,0.0,0.0,0.0,0.0,0.0,0.0,0.0,0.0,0.0,0.0,1.6637,1.6909,1.7146,1.7585,1.8185,1.8419,1.8817,1.9332,1.9369,1.9573,2.0035,2.0035,2.0035,2.0035,2.0035,1.9909,1.969,1.969,1.9899,2.0258,2.0258,2.0662,2.1261,2.1261,2.144,2.1739,2.2113,2.255,2.3064,0.0,0.0,0.0,0.0,0.0,0.0,0.0,0.0,0.0,0.0,0.0,0.0,0.0,0.0,0.0,0.0,0.0,0.0,0.0,0.0,0.0,0.0,0.0,0.0,0.0,0.0,0.0,0.0,0.0,0.0,1.159,1.084,1.0878,0.0,1.0697,0.0,0.0,0.0,0.0,0.0,0.0,0.0,0.0,0.0,0.0,0.0,0.0,1.4069,1.418,1.453,1.4815,1.4848,1.391,1.3816,0.0,0.0,0.0,0.0,0.0,0.0,0.0,0.0,0.0,0.0,0.0,0.0,0.0,0.0,0.0,0.0,0.0,0.0,0.0,0.0,0.0,0.0,0.0,0.0,0.0,0.0,0.0,0.0,0.0,0.0,0.0,0.0,0.0,1.6879,1.7271,1.7544,1.8066,1.8855,1.9043,1.9281,1.969,1.9818,2.0,2.0314,2.0416,2.0483,2.0483,2.0348,2.032,2.0294,2.0074,2.0243,2.0722,2.0902,2.135,2.1934,2.1934,2.2039,2.2274,2.2892,2.3437,2.3928,0.0,0.0,0.0,0.0,0.0,0.0,0.0,0.0,0.0,0.0,0.0,0.0,0.0,0.0,0.0,0.0,0.0,0.0,0.0,0.0,0.0,0.0,0.0,0.0,0.0,0.0,0.0,0.0,0.0,0.0,1.1046,1.0981,1.0981,1.1019,1.0505,1.0572,1.1019,0.0,0.0,0.0,0.0,0.0,0.0,0.0,0.0,0.0,0.0,0.0,1.32,1.4204,1.3774,1.2996,1.3663,1.3472,0.0,0.0,0.0,0.0,0.0,0.0,0.0,0.0,0.0,0.0,0.0,0.0,0.0,0.0,0.0,0.0,0.0,0.0,0.0,0.0,0.0,0.0,0.0,0.0,0.0,0.0,0.0,0.0,0.0,0.0,0.0,0.0,0.0,1.7271,1.7312,1.8263,1.8855,1.8893,1.9406,1.969,1.969,2.0089,2.028,2.0314,2.0764,2.0959,2.0959,2.0516,2.0895,2.1933,2.1011,2.0677,2.0767,2.1395,2.2024,2.2664,2.2664,2.2981,2.3591,2.4122,2.4649,2.5173,0.0,0.0,0.0,0.0,0.0,0.0,0.0,0.0,0.0,0.0,0.0,0.0,0.0,0.0,0.0,0.0,0.0,0.0,0.0,0.0,0.0,0.0,0.0,0.0,0.0,0.0,0.0,0.0,0.0,1.2318,1.1945,1.1653,1.1505,1.1505,1.0981,1.1019,1.1542,1.1836,0.0,0.0,0.0,0.0,0.0,0.0,0.0,0.0,0.0,0.0,0.0,1.3493,0.0,0.0,0.0,0.0,0.0,0.0,0.0,0.0,0.0,0.0,0.0,0.0,0.0,0.0,0.0,0.0,0.0,0.0,0.0,0.0,0.0,0.0,0.0,0.0,0.0,0.0,0.0,0.0,0.0,0.0,0.0,0.0,0.0,0.0,0.0,0.0,0.0,0.0,1.8302,1.8688,1.9177,1.9778,1.9732,1.969,1.969,2.0089,2.0449,2.0764,2.1181,2.1627,2.2099,2.1924,2.2015,2.2294,2.2393,2.2455,2.2432,2.2365,2.2697,2.3266,2.3266,2.34,2.3681,2.4184,2.4736,2.5297,0.0,0.0,0.0,0.0,0.0,0.0,0.0,0.0,0.0,0.0,0.0,0.0,0.0,0.0,0.0,0.0,0.0,0.0,0.0,0.0,0.0,0.0,0.0,0.0,0.0,0.0,0.0,0.0,0.0,0.0,0.0,0.0,1.2029,1.2029,1.1653,0.0,0.0,0.0,0.0,1.2176,0.0,0.0,1.1777,0.0,0.0,0.0,0.0,0.0,0.0,0.0,0.0,0.0,0.0,0.0,0.0,0.0,0.0,0.0,0.0,0.0,0.0,0.0,0.0,0.0,0.0,0.0,0.0,0.0,0.0,0.0,0.0,0.0,0.0,0.0,0.0,0.0,0.0,0.0,0.0,0.0,0.0,0.0,0.0,0.0,0.0,0.0,0.0,0.0,1.9103,1.9273,1.9671,2.028,2.0035,1.9854,1.969,2.0261,2.0682,2.1007,2.1568,2.2073,2.2568,2.2677,2.2752,2.2853,2.3226,2.3304,2.3151,2.3043,2.3236,2.3595,2.3595,2.3595,2.3681,2.4389,2.4894,2.5297,0.0,0.0,0.0,0.0,0.0,0.0,0.0,0.0,0.0,0.0,0.0,0.0,0.0,0.0,0.0,0.0,0.0,0.0,0.0,0.0,0.0,0.0,0.0,0.0,0.0,0.0,0.0,0.0,0.0,0.0,0.0,0.0,1.2461,0.0,1.2461,1.2461,1.2461,0.0,1.2779,1.3064,0.0,1.2,1.2277,0.0,0.0,0.0,1.1667,1.1714,0.0,0.0,0.0,0.0,0.0,0.0,0.0,0.0,0.0,0.0,0.0,0.0,0.0,0.0,0.0,0.0,0.0,0.0,0.0,0.0,0.0,0.0,0.0,0.0,0.0,0.0,0.0,0.0,0.0,0.0,0.0,0.0,0.0,0.0,0.0,0.0,0.0,0.0,0.0,1.9126,1.9585,2.0093,2.0348,2.0314,2.0314,2.0124,1.9711,2.0565,2.1007,2.1039,2.1903,2.2344,2.2333,2.2618,2.3078,2.3687,2.3496,2.3105,2.2739,2.3325,2.358,2.355,2.3565,2.3565,2.3721,2.4784,2.5189,2.5373,0.0,0.0,0.0,0.0,0.0,0.0,0.0,0.0,0.0,0.0,0.0,0.0,0.0,0.0,0.0,0.0,0.0,0.0,0.0,0.0,0.0,0.0,0.0,0.0,0.0,0.0,0.0,0.0,0.0,0.0,0.0,0.0,0.0,0.0,1.1993,1.1993,1.2029,1.272,0.0,0.0,1.2175,1.2274,0.0,0.0,0.0,0.0,0.0,1.1669,0.0,0.0,1.1614,1.0865,0.0,0.0,0.0,0.0,0.0,0.0,1.3754,0.0,0.0,0.0,0.0,0.0,0.0,0.0,0.0,0.0,0.0,0.0,0.0,0.0,0.0,0.0,0.0,0.0,0.0,0.0,0.0,0.0,0.0,0.0,0.0,0.0,0.0,0.0,1.9368,1.9954,2.0093,2.083,2.0959,2.0314,2.0616,2.0599,2.0158,2.0731,2.115,2.1446,2.2568,2.3105,2.3122,2.3725,2.3719,2.3243,2.3203,2.2707,2.2054,2.3146,2.3056,2.2263,2.2742,2.3156,2.3542,2.4227,2.5012,2.5888,0.0,0.0,0.0,0.0,0.0,0.0,0.0,0.0,0.0,0.0,0.0,0.0,0.0,0.0,0.0,0.0,0.0,0.0,0.0,0.0,0.0,0.0,0.0,0.0,0.0,0.0,0.0,0.0,0.0,0.0,0.0,0.0,0.0,0.0,0.0,0.0,0.0,0.0,0.0,0.0,1.1588,0.0,0.0,1.1595,1.1985,0.0,0.0,0.0,1.2072,1.2401,1.1823,0.0,0.0,0.0,0.0,0.0,0.0,0.0,0.0,0.0,0.0,0.0,0.0,0.0,0.0,1.4776,0.0,0.0,0.0,0.0,0.0,0.0,0.0,0.0,0.0,0.0,0.0,0.0,0.0,0.0,0.0,0.0,0.0,0.0,0.0,1.8893,1.9778,2.0483,2.083,2.1321,2.129,2.0616,2.0665,2.0499,2.0054,2.0665,2.1118,2.1368,2.2438,2.2936,2.297,2.3697,2.3614,2.291,2.3201,2.2679,2.1614,2.2637,2.2501,2.1739,2.2113,2.254,2.3033,2.3883,2.4571,2.5157,0.0,0.0,0.0,0.0,0.0,0.0,0.0,0.0,0.0,0.0,0.0,0.0,0.0,0.0,0.0,0.0,0.0,0.0,0.0,0.0,0.0,0.0,0.0,0.0,0.0,0.0,0.0,0.0,0.0,0.0,0.0,0.0,0.0,0.0,0.0,0.0,0.0,0.0,0.0,1.1634,1.0906,1.1645,0.0,0.0,1.2648,0.0,1.3369,1.2903,1.253,1.2659,1.2026,0.0,0.0,0.0,0.0,0.0,1.1057,0.0,0.0,0.0,0.0,0.0,0.0,0.0,1.3462,1.3707,1.3882,0.0,0.0,0.0,0.0,0.0,0.0,0.0,0.0,0.0,0.0,0.0,0.0,0.0,0.0,0.0,0.0,1.8341,1.893,1.9029,1.9919,2.0765,2.1552,2.1582,2.1399,2.0926,2.0516,2.0124,1.9782,2.0599,2.1023,2.1071,2.2082,2.2462,2.2344,2.3139,2.3137,2.2522,2.3178,2.2599,2.1224,2.1821,2.185,2.1485,2.156,2.1857,2.2419,2.3554,2.3888,2.3951,0.0,0.0,0.0,0.0,0.0,0.0,0.0,0.0,0.0,0.0,0.0,0.0,0.0,0.0,0.0,0.0,0.0,0.0,0.0,0.0,0.0,0.0,0.0,0.0,0.0,0.0,0.0,0.0,0.0,0.0,0.0,0.0,0.0,0.0,0.0,0.0,0.0,0.0,0.0,1.1136,1.1744,0.0,1.2536,1.2276,1.2687,1.3316,1.3195,1.3161,1.3218,0.0,1.2811,1.2268,0.0,0.0,0.0,0.0,0.0,0.0,0.0,0.0,0.0,0.0,0.0,0.0,1.4813,1.4927,1.4851,0.0,0.0,0.0,0.0,0.0,0.0,0.0,0.0,0.0,0.0,0.0,0.0,0.0,0.0,0.0,0.0,1.8779,1.9214,1.9954,2.0862,2.143,2.1582,2.1582,2.1228,2.0449,2.0348,2.0246,2.0177,2.0731,2.115,2.1507,2.3234,2.3444,2.2361,2.3663,2.3368,2.1796,2.1944,2.1424,2.0531,2.062,2.0467,2.0124,2.0692,2.1403,2.217,2.2417,2.3293,2.4382,0.0,0.0,0.0,0.0,0.0,0.0,0.0,0.0,0.0,0.0,0.0,0.0,0.0,0.0,0.0,0.0,0.0,0.0,0.0,0.0,0.0,0.0,0.0,0.0,0.0,0.0,0.0,0.0,0.0,0.0,0.0,0.0,0.0,0.0,0.0,0.0,0.0,0.0,0.9406,0.989,1.0924,0.0,1.27,1.2395,1.2754,1.3553,1.3792,1.4189,1.448,1.3923,1.3383,0.0,0.0,1.2242,1.1811,0.0,1.1627,1.1394,0.0,0.0,0.0,1.1869,0.0,0.0,0.0,1.4207,1.4545,0.0,0.0,0.0,0.0,0.0,0.0,0.0,0.0,0.0,0.0,0.0,0.0,0.0,0.0,0.0,0.0,1.9656,2.0215,2.0894,2.1352,2.1688,2.1928,2.1538,2.1118,2.0649,2.0227,2.0089,2.0314,2.0764,2.1213,2.1628,2.2845,2.3021,2.2344,2.3071,2.2853,2.1957,2.1957,2.1446,2.0649,2.0878,2.0583,2.003,2.0381,2.1049,2.1907,2.2248,2.2841,2.346,0.0,0.0,0.0,0.0,0.0,0.0,0.0,0.0,0.0,0.0,0.0,0.0,0.0,0.0,0.0,0.0,0.0,0.0,0.0,0.0,0.0,0.0,0.0,1.2881,0.0,0.0,0.0,0.0,0.0,0.0,0.0,0.0,0.0,0.0,0.0,0.0,0.0,0.0,0.0,0.9073,0.0,1.1194,1.2471,1.2184,1.2785,1.3979,1.4755,1.5381,1.5727,1.4728,0.0,1.3526,1.3038,1.2505,0.0,0.0,0.0,0.0,0.0,0.0,0.0,0.0,0.0,1.1568,0.0,0.0,0.0,0.0,0.0,0.0,0.0,0.0,0.0,0.0,0.0,0.0,0.0,0.0,0.0,0.0,0.0,0.0,0.0,2.0711,2.139,2.1598,2.182,2.1973,2.2049,2.1385,2.0926,2.0764,2.0085,1.9839,2.0193,2.0731,2.115,2.1491,2.2182,2.2446,2.231,2.2462,2.2446,2.231,2.231,2.1857,2.115,2.146,2.1197,2.0534,2.0483,2.0894,2.1648,2.2254,2.2398,2.2395,0.0,0.0,0.0,0.0,0.0,0.0,0.0,0.0,0.0,0.0,0.0,0.0,0.0,0.0,0.0,0.0,0.0,0.0,1.0973,0.0,0.0,0.0,0.0,0.0,1.2881,0.0,0.0,0.0,0.0,0.0,0.0,0.0,0.0,0.0,1.0094,0.0,0.0,0.0,0.9428,0.0,1.015,1.029,0.0,1.1205,1.2554,1.4258,1.5763,1.6343,1.6346,0.0,1.5149,1.4612,0.0,1.3529,0.0,0.0,0.0,0.0,0.0,0.0,0.0,0.0,1.1307,0.0,0.0,0.0,0.0,0.0,0.0,0.0,0.0,0.0,0.0,0.0,0.0,0.0,0.0,0.0,0.0,0.0,0.0,0.0,0.0,0.0,2.2256,2.1631,2.2588,2.2582,2.123,2.1055,2.0648,1.9889,1.9747,1.9711,1.9782,2.0599,2.1023,2.1103,2.2565,2.2936,2.2327,2.2987,2.2919,2.231,2.231,2.2003,2.1538,2.1582,2.1552,2.143,2.1055,2.1213,2.1598,2.1711,2.1965,2.2327,0.0,0.0,0.0,0.0,0.0,0.0,0.0,0.0,0.0,0.0,0.0,0.0,0.0,0.0,0.0,0.0,0.0,1.0064,0.0,0.0,0.0,0.0,0.0,0.0,0.0,0.0,0.0,0.0,1.2881,0.0,0.0,0.0,0.0,0.0,0.9944,0.0,0.862,0.0,0.0,0.0,0.0,0.0,0.0,1.117,1.2567,1.4011,1.471,1.5365,1.5928,0.0,1.5323,0.0,0.0,0.0,0.0,0.0,0.0,0.0,0.0,0.0,0.0,0.0,0.0,0.0,0.0,0.0,1.4214,0.0,0.0,0.0,0.0,0.0,0.0,0.0,0.0,0.0,0.0,0.0,0.0,0.0,0.0,0.0,0.0,0.0,0.0,0.0,2.2883,2.2908,2.1814,2.126,2.0829,2.0481,1.9945,1.9945,2.0447,2.0829,2.126,2.1751,2.2454,2.2598,2.2327,2.2632,2.2598,2.231,2.231,2.2032,2.1612,2.1899,2.1853,2.1628,2.1705,2.184,2.2003,2.2003,2.2135,2.2361,0.0,0.0,0.0,0.0,0.0,0.0,0.0,0.0,0.0,0.0,0.0,0.0,0.8857,0.9666,0.0,0.0,0.0,0.971,0.0,0.0,1.0762,0.0,0.0,0.0,0.0,0.0,0.0,0.0,0.0,0.0,0.0,0.0,0.0,0.0,0.0,0.9203,0.8321,0.0,0.0,0.8219,0.8871,0.9613,1.0399,1.1663,1.2829,1.3815,1.4003,1.4595,1.5342,1.5201,1.4928,0.0,1.3986,0.0,0.0,0.0,0.0,0.0,1.1507,0.0,0.0,0.0,0.0,0.0,0.0,0.0,0.0,0.0,0.0,0.0,0.0,0.0,0.0,0.0,0.0,0.0,0.0,0.0,0.0,0.0,0.0,0.0,0.0,0.0,0.0,2.2378,2.3173,2.3245,2.2157,2.1415,2.0926,2.0829,2.0085,2.005,2.0797,2.0926,2.1354,2.2106,2.2237,2.231,2.231,2.231,2.231,2.231,2.231,2.2106,2.1823,2.2163,2.2106,2.1823,2.218,2.231,2.231,2.231,2.2446,2.2682,0.0,1.032,0.0,0.0,0.0,0.0,0.0,0.0,0.0,0.0,0.0,0.0,0.0,0.0,0.0,0.0,0.0,0.8857,0.8857,0.0,0.9865,0.0,0.0,0.0,0.0,0.0,0.0,0.0,0.0,0.0,0.0,0.0,0.0,0.0,0.0,0.933,0.838,0.8049,0.8257,0.883,0.9481,1.0578,1.1831,0.0,1.338,1.3862,1.4468,0.0,0.0,1.4105,1.3926,0.0,0.0,0.0,0.0,0.0,0.0,0.0,0.0,0.0,0.0,1.2173,0.0,0.0,0.0,0.0,1.3375,0.0,0.0,0.0,0.0,0.0,0.0,0.0,0.0,0.0,0.0,0.0,0.0,0.0,0.0,0.0,0.0,0.0,0.0,2.2412,2.363,2.3631,2.1724,2.1213,2.0797,2.0348,1.9909,1.9909,2.0314,2.0748,2.1213,2.1628,2.2077,2.231,2.231,2.231,2.231,2.231,2.231,2.2282,2.2282,2.2282,2.2282,2.2282,2.2282,2.231,2.231,2.231,2.275,2.3359,0.0,0.0,0.0,0.0,0.0,0.0,0.0,0.8219,0.0,0.0,0.0,0.0,0.0,0.0,0.9263,0.0,0.0,0.8804,0.8804,0.9413,0.0,0.0,0.0,1.1814,0.0,0.0,0.0,0.0,0.0,0.0,0.0,0.0,0.0,0.0,0.0,0.9795,0.0,0.0,0.0,0.0,0.0,1.1683,1.254,0.0,0.0,1.3248,1.343,1.3789,0.0,1.3868,1.3663,1.3373,1.313,1.2626,1.2118,1.2098,1.2052,0.0,0.0,0.0,1.2013,1.1887,0.0,0.0,0.0,0.0,0.0,0.0,0.0,0.0,0.0,0.0,0.0,0.0,0.0,0.0,0.0,0.0,0.0,0.0,0.0,0.0,0.0,0.0,0.0,2.235,2.3207,2.3266,2.2111,2.1645,2.1213,2.0797,2.033,2.033,2.0764,2.0926,2.1354,2.2077,2.2209,2.231,2.231,2.231,2.231,2.231,2.231,2.231,2.231,2.231,2.231,2.231,2.231,2.231,2.2361,2.2852,2.2885,2.2818,0.814,0.0,0.0,0.0,0.0,0.0,0.0,0.0,0.0,0.0,0.8513,0.0,0.8804,0.0,0.9256,0.0,0.8804,0.8804,0.8804,0.9211,0.0,0.9465,1.0517,0.0,0.0,0.0,0.0,0.0,0.0,1.2171,0.0,0.0,0.0,0.0,0.0,0.0,0.0,0.0,0.8931,0.0,0.0,1.2236,0.0,0.0,1.2881,1.2881,0.0,1.3152,1.3457,1.3457,1.3194,1.2828,1.2768,1.2269,1.1653,1.1604,1.1714,1.1758,1.1645,1.1885,0.0,1.1875,1.2401,0.0,1.3329,0.0,0.0,0.0,0.0,0.0,0.0,0.0,0.0,0.0,0.0,0.0,0.0,0.0,0.0,0.0,0.0,0.0,0.0,0.0,2.2473,2.1558,2.2725,2.307,0.0,0.0,2.1337,2.1213,2.0616,2.0583,2.1213,2.1213,2.1584,2.231,2.231,2.231,2.231,2.231,2.231,2.231,2.231,2.231,2.231,2.231,2.231,2.231,2.231,2.231,2.2361,2.2835,2.3038,2.3257,0.0,0.0,0.0,0.0,0.834,0.0,0.0,0.0,0.7131,0.0,0.7821,0.7996,0.8699,0.8758,0.8804,0.8752,0.8758,0.0,0.8804,0.8804,0.0,0.0,0.9465,0.9814,0.9814,0.0,0.0,0.0,0.0,0.0,0.0,0.0,0.0,0.0,1.0581,0.0,0.9747,0.8839,0.9033,1.0012,1.1316,1.2295,1.2881,1.2881,1.2881,1.2881,1.2881,1.2881,1.2881,1.2881,1.2578,1.2161,1.22,1.1924,1.1587,1.1645,1.1914,1.2139,1.1783,1.1934,1.2256,1.2227,0.0,0.0,0.0,0.0,1.405,0.0,0.0,0.0,0.0,0.0,0.0,0.0,0.0,0.0,0.0,0.0,0.0,0.0,0.0,0.0,0.0,2.1773,2.2143,2.0238,2.228,2.3013,0.0,0.0,2.1293,2.1582,2.0797,2.0765,2.1612,2.1612,2.1853,2.2338,2.231,2.231,2.231,2.231,2.231,2.2338,2.2338,2.2338,2.2338,2.2338,2.231,2.231,2.231,2.231,2.231,2.2344,2.3291,2.4644,0.7978,0.8082,0.8621,0.0,0.8632,0.7405,0.0,0.0,0.0,0.0,0.793,0.8374,0.8049,0.848,0.8586,0.8049,0.848,0.0,0.0,0.0,0.0,0.8804,0.9465,0.9814,0.9814,1.0466,0.0,1.0064,0.0,0.0,1.0187,0.0,0.0,0.0,0.0,0.0,0.9791,0.932,0.9956,1.1366,1.2246,1.2715,0.0,0.0,1.2881,1.2881,1.2881,1.2881,1.2881,1.2881,1.2373,1.1846,1.251,1.1963,1.127,1.2256,1.2393,1.2275,1.249,1.2627,1.2722,1.2863,1.3247,1.3817,0.0,0.0,0.0,0.0,0.0,0.0,0.0,0.0,0.0,0.0,0.0,0.0,0.0,0.0,0.0,0.0,0.0,0.0,0.0,2.0595,2.0665,2.1438,2.1985,2.2101,0.0,0.0,0.0,2.1645,2.1383,2.1488,2.1972,2.1715,2.1919,2.2599,2.2415,2.231,2.231,2.231,2.2398,2.2599,2.2599,2.2599,2.2599,2.2599,2.249,2.231,2.231,2.231,2.2378,2.2919,2.4052,2.5338,0.7913,0.0,0.0,0.9273,0.0,0.0,0.7618,0.0,0.0,0.7136,0.7661,0.0,0.7389,0.7626,0.7777,0.7723,0.8103,0.0,0.0,0.0,0.0,0.8804,0.9159,0.9361,0.9361,0.971,0.0,0.9814,0.0,0.0,1.0261,0.0,0.0,0.0,0.0,1.0089,0.0,1.0066,1.0532,1.1416,1.2138,0.0,0.0,1.2774,1.2881,1.2881,1.2881,1.3065,1.3238,1.2968,1.2517,1.2024,1.224,1.166,1.1055,1.1797,1.2119,1.2239,1.2529,1.2734,1.2909,1.2963,1.3636,1.4198,1.4158,1.4499,1.4653,0.0,0.0,0.0,0.0,0.0,0.0,0.0,0.0,0.0,0.0,0.0,0.0,0.0,0.0,0.0,2.081,1.9852,1.9621,2.0911,2.1295,2.1562,0.0,0.0,0.0,2.1915,2.1718,2.179,2.2164,2.1998,2.2113,2.2527,2.236,2.231,2.231,2.2426,2.25,2.2537,2.2797,2.2848,2.2721,2.2873,2.2815,2.2686,2.2527,2.2398,2.2395,2.3122,2.412,2.5118,0.0,0.0,0.0,0.0,0.0,0.0,0.0,0.7876,0.0,0.7397,0.0,0.7043,0.6746,0.6644,0.6804,0.7343,0.0,0.7996,0.8593,0.8752,0.8804,0.8804,0.8804,0.8804,0.8804,0.891,0.0,0.0,0.0,0.0,1.0661,0.0,0.0,0.0,0.0,0.0,0.0,1.0914,1.0965,0.0,1.1724,1.1922,1.2021,1.2666,1.2881,1.2881,1.2881,1.3238,1.3589,1.3152,1.2823,1.2498,1.2051,1.1476,1.101,1.1045,1.1592,1.2112,1.2171,1.2549,1.2929,1.3017,1.3789,1.4347,1.3371,1.4026,1.4452,1.3368,1.3707,1.4187,0.0,0.0,0.0,0.0,0.0,0.0,0.0,0.0,0.0,0.0,0.0,0.0,0.0,1.9431,1.9015,1.9858,2.074,0.0,0.0,0.0,0.0,2.2282,2.1899,2.1961,2.2502,0.0,2.2389,2.2502,2.2389,2.231,2.231,2.2537,2.2563,2.2443,2.2965,2.3069,2.2848,2.3141,2.3236,2.3165,2.2822,2.2563,2.2434,2.3151,2.3849,2.4523,0.0,0.0,0.0,0.0,0.0,0.7648,1.0034,0.904,0.7887,0.741,0.748,0.7133,0.5863,0.6277,0.6421,0.5923,0.7009,0.0,0.0,0.0,0.0,0.8804,0.8804,0.8804,0.8804,0.9361,0.9666,0.0,1.0914,1.0965,0.9969,0.0,0.0,0.0,0.0,0.0,1.1616,1.1616,0.0,1.252,1.2666,1.2715,1.2715,1.2832,1.2881,1.2881,1.2881,1.2978,1.3104,1.3505,1.3366,1.3023,1.3319,1.26,1.1695,1.1911,1.1846,1.1758,1.2129,1.2549,1.3017,1.3505,1.3779,1.3932,1.3917,1.4339,1.4575,1.4045,1.4641,1.5326,1.5326,0.0,0.0,0.0,0.0,0.0,0.0,0.0,0.0,0.0,0.0,0.0,0.0,0.0,0.0,0.0,0.0,0.0,0.0,0.0,0.0,0.0,2.2209,0.0,0.0,0.0,2.2739,2.3608,2.2722,2.231,2.231,2.2349,2.2607,2.3038,2.3141,2.3305,2.3522,2.3588,2.3437,2.3165,2.2822,2.2669,2.2685,2.3204,2.3849,2.4608,0.0,0.0,0.0,0.0,0.0,0.0,0.0,0.9488,0.0,0.7583,0.7534,0.6936,0.5257,0.5333,0.5496,0.5487,0.6524,0.7289,0.767,0.8374,0.8804,0.8804,0.8804,0.0,0.8804,0.9465,0.9814,0.9814,1.0466,1.0415,0.0,0.0,0.0,0.0,0.0,1.1425,0.0,0.0,0.0,1.2344,1.2344,1.2344,1.2344,1.2764,1.2881,1.2881,1.2881,1.2881,1.2968,1.36,1.3739,1.3619,1.3475,1.2994,1.2423,1.2227,1.2236,1.2341,1.251,1.2725,1.2978,1.3238,1.3367,1.344,1.3497,1.3983,1.4305,1.4026,1.4838,1.5688,1.6008,1.607,0.0,0.0,0.0,0.0,0.0,0.0,0.0,0.0,0.0,0.0,0.0,0.0,0.0,0.0,0.0,0.0,0.0,0.0,0.0,0.0,0.0,0.0,0.0,0.0,0.0,2.3055,2.2564,2.231,2.231,2.2436,2.2652,2.2972,2.3323,2.3544,2.3714,2.3896,2.3774,2.3437,2.3277,2.3117,2.3,2.3206,2.3796,2.4503,0.0,0.6751,0.0,0.0,0.8846,0.0,1.0244,0.9525,0.8612,0.7809,0.739,0.6519,0.4875,0.4555,0.4736,0.5218,0.6091,0.6858,0.745,0.8321,0.8804,0.8804,0.8804,0.8804,0.8804,0.9465,0.9814,0.0,0.9969,0.9969,0.0,0.0,0.0,0.0,0.0,0.0,0.0,0.0,1.1814,1.1814,1.1972,1.2021,1.208,1.2666,1.2881,1.2881,1.2881,1.2881,1.3017,1.3732,1.4089,1.4094,1.3448,1.322,1.3017,1.2308,1.2334,1.2598,1.2598,1.2734,1.2861,1.2773,1.299,1.3149,1.2811,1.351,1.4169,1.3976,1.5006,1.6114,1.6582,1.6579,0.0,0.0,0.0,0.0,0.0,0.0,0.0,0.0,0.0,0.0,0.0,0.0,0.0,0.0,0.0,2.1935,2.2745,2.3331,2.3245,0.0,0.0,2.2541,2.2605,0.0,2.2395,2.2547,2.2378,2.231,2.231,2.2527,2.2686,2.2848,2.3369,2.3671,2.3816,2.4094,2.4036,2.3795,2.3714,2.3544,2.3318,2.3407,2.3974,2.4643,0.0,0.0,0.0,0.0,0.0,0.0,0.0,0.9314,0.8885,0.783,0.6662,0.562,0.4807,0.4555,0.4515,0.457,0.5823,0.6642,0.6696,0.7996,0.8804,0.8804,0.8804,0.8804,0.8804,0.9465,0.9814,0.0,0.0,1.0415,0.9814,0.0,0.0,0.0,0.0,0.0,0.0,1.1566,1.1814,1.1864,1.251,1.2774,1.2822,1.2881,1.2881,1.2881,1.2881,1.2881,1.3065,1.4247,1.463,1.455,1.3939,1.3575,1.3142,1.2004,1.1694,1.1734,1.1734,1.2322,1.2783,1.2393,1.299,1.338,1.2131,1.3292,1.4552,1.4169,1.5706,1.7146,1.7229,1.6849,1.6323,0.0,0.0,0.0,0.0,0.0,0.0,0.0,0.0,0.0,0.0,0.0,0.0,0.0,0.0,2.322,2.3317,2.4019,2.3835,2.2617,0.0,2.3399,2.3588,2.2731,2.2649,2.3291,2.2632,2.231,2.231,2.2338,2.2634,2.3165,2.3212,2.3588,2.4151,2.419,2.417,2.4113,2.3816,2.3692,2.37,2.4124,2.4772,2.5401,0.0,0.0,0.0,0.0,0.0,0.0,0.0,0.8511,0.7598,0.7127,0.6463,0.5718,0.4814,0.4555,0.468,0.5058,0.6041,0.6804,0.7235,0.8209,0.8804,0.8804,0.8804,0.8804,0.8804,0.9465,0.9614,0.0,0.0,0.9865,0.9211,0.9211,0.0,0.0,0.0,1.0568,1.0813,1.1065,1.1216,1.1266,1.1981,1.2236,1.2295,1.2715,1.2881,1.2881,1.2881,1.3152,1.3467,1.3563,1.3884,1.419,1.4283,1.4022,1.3448,1.2613,1.24,1.24,1.24,1.2607,1.2842,1.2666,1.2741,1.291,1.2979,1.3956,1.4959,1.5436,1.6718,1.7787,1.7787,1.7357,1.681,0.0,0.0,0.0,0.0,0.0,0.0,0.0,0.0,0.0,0.0,0.0,0.0,0.0,0.0,0.0,2.4069,2.4106,2.3866,2.3276,0.0,2.2182,2.2668,2.2139,2.2032,2.2315,2.2315,2.231,2.231,2.231,2.2624,2.3212,2.3628,2.3937,2.419,2.419,2.419,2.419,2.4036,2.3996,2.4032,2.42,2.4773,2.5421,0.582,0.0,0.8162,0.0,0.8891,0.9184,0.9293,0.7888,0.6651,0.6338,0.6258,0.5876,0.489,0.4848,0.5056,0.5492,0.6362,0.7128,0.767,0.8374,0.8804,0.8804,0.8804,0.0,0.8804,0.9263,0.9256,0.8804,0.904,0.0,0.848,0.0,0.0,0.0,1.0012,1.021,1.0218,1.0415,1.0517,1.0568,1.1458,1.1814,1.1864,1.2608,1.2881,1.2881,1.2881,1.3152,1.3515,1.3238,1.3334,1.36,1.4014,1.3767,1.3185,1.256,1.2378,1.2378,1.2378,1.2628,1.2871,1.2738,1.2872,1.3119,1.3597,1.4683,1.5893,1.6991,1.7802,1.8341,1.8341,1.7907,1.737,1.6811,0.0,0.0,0.0,0.0,0.0,0.0,0.0,1.8543,0.0,0.0,0.0,0.0,0.0,0.0,2.4017,2.3948,0.0,0.0,0.0,0.0,0.0,2.1664,2.1582,2.1628,2.2077,2.231,2.231,2.2388,2.2695,2.3212,2.3795,2.4113,2.419,2.419,2.419,2.419,2.419,2.4151,2.4072,2.431,2.4707,2.5078,0.5861,0.7664,0.915,0.8705,0.9592,0.9942,0.8628,0.7545,0.6535,0.5579,0.5993,0.6005,0.4992,0.542,0.5693,0.5504,0.6848,0.767,0.7723,0.8374,0.8804,0.0,0.0,0.8804,0.8804,0.8811,0.8811,0.8804,0.0,0.0,0.7723,0.0,0.8103,0.8804,0.8804,0.8804,0.8857,0.951,0.9814,0.9917,1.1266,1.1814,1.1864,1.2608,1.2881,1.2881,1.2881,1.2881,1.3017,1.36,1.342,1.2929,1.2929,1.2529,1.1991,1.1425,1.1246,1.1246,1.1246,1.2043,1.2809,1.2428,1.3487,1.4439,1.3533,1.5358,1.7572,1.8636,1.8878,1.8893,1.8893,1.8458,1.7894,1.7381,0.0,0.0,0.0,0.0,0.0,0.0,1.797,1.8199,1.8408,0.0,0.0,0.0,0.0,0.0,0.0,0.0,0.0,2.1388,2.1829,0.0,2.1321,2.152,2.1582,2.1628,2.2077,2.231,2.231,2.2573,2.2873,2.3212,2.3566,2.3896,2.419,2.419,2.419,2.419,2.419,2.3996,2.3783,2.4595,2.4705,2.4424,0.7203,0.8484,0.9504,0.9134,0.8719,0.8248,0.7834,0.6756,0.6112,0.6391,0.6556,0.6689,0.6803,0.6724,0.6884,0.0,0.7546,0.7937,0.0,0.8646,0.8804,0.8804,0.8804,0.8804,0.8804,0.8804,0.8804,0.8804,0.0,0.0,0.0,0.7943,0.8103,0.8804,0.8804,0.8804,0.8804,0.9008,0.9361,0.9865,1.0762,1.1416,1.1864,1.2608,1.2881,1.2881,1.2881,1.3152,1.3457,1.3238,1.3324,1.342,1.3017,1.2454,1.1965,1.2253,1.2002,1.1731,1.2205,1.2619,1.2948,1.3227,1.3725,1.4292,1.4759,1.643,1.8145,1.9207,1.9442,1.9442,1.9442,1.8688,1.8027,1.7867,1.6792,0.0,0.0,0.0,0.0,0.0,0.0,1.9101,0.0,2.0472,0.0,0.0,0.0,0.0,0.0,0.0,0.0,0.0,2.1616,0.0,2.1286,2.1229,2.1337,2.1628,2.2077,2.231,2.231,2.259,2.2772,2.2873,2.3212,2.3414,2.3522,2.3522,2.3522,2.3522,2.3522,2.3437,2.3387,2.3654,2.3673,2.3536,0.8526,0.9386,1.0062,0.9922,0.8951,0.8314,0.8602,0.7301,0.6616,0.7364,0.7702,0.7932,0.828,0.828,0.0,0.8185,0.8148,0.8315,0.8752,0.8804,0.8804,0.8804,0.8804,0.8804,0.8804,0.0,0.0,0.8804,0.854,0.8374,0.8374,0.7937,0.8103,0.8804,0.8804,0.8962,0.9159,0.9159,0.9562,1.021,1.0914,1.1416,1.1864,1.2608,1.2881,1.2881,1.2881,1.3152,1.342,1.3017,1.3152,1.342,1.3017,1.2393,1.1873,1.2344,1.2187,1.1913,1.2344,1.2666,1.3074,1.3662,1.4014,1.4616,1.6175,1.7341,1.8419,1.9479,1.969,1.969,1.969,1.8817,1.8106,1.8106,1.6927,1.6204,1.6744,0.0,0.0,0.0,0.0,0.0,0.0,2.0331,0.0,0.0,0.0,0.0,0.0,0.0,0.0,2.2608,2.1364,0.0,2.1301,2.1112,2.1213,2.1628,2.2077,2.231,2.231,2.249,2.2599,2.2721,2.2923,2.3093,2.3189,2.3189,2.3189,2.3189,2.3189,2.3117,2.3021,2.3021,2.294,2.2832,0.9807,1.0478,0.0,0.0,1.0056,0.0,1.0411,0.8895,0.7794,0.8434,0.9181,0.9622,0.9426,0.9792,0.9596,0.8438,0.0,0.0,0.0,0.8818,0.8804,0.8804,0.8804,0.8804,0.8804,0.8804,0.8804,0.8804,0.8049,0.7723,0.7777,0.7723,0.8103,0.8804,0.8804,0.9159,0.9814,0.9814,1.021,1.0914,1.1566,1.1814,1.1972,1.2618,1.2881,1.2881,1.2881,1.2881,1.2929,1.2978,1.2968,1.2978,1.3017,1.254,1.1913,1.1864,1.1814,1.1814,1.1864,1.2393,1.3062,1.3783,1.4406,1.5386,1.7585,1.8106,1.8419,1.9479,1.969,1.969,1.969,1.8817,1.8106,1.8106,1.7188,1.668,1.7229,0.0,0.0,0.0,0.0,0.0,0.0,1.9945,1.9741,0.0,0.0,0.0,0.0,0.0,2.2839,2.1714,2.1081,2.0948,2.1321,2.1159,2.131,2.1807,2.2157,2.2344,2.2378,2.2327,2.2453,2.2669,2.2669,2.2848,2.3135,2.3135,2.3135,2.3135,2.3135,2.2947,2.2669,2.2669,2.2527,2.231,0.0,0.0,1.2285,1.1284,1.0773,1.0248,0.9675,0.9069,0.8929,0.9477,0.9632,0.982,1.0263,1.017,1.0,0.9675,0.9319,0.9084,0.9084,0.8931,0.8804,0.8804,0.8804,0.8804,0.8804,0.8804,0.8804,0.8804,0.8049,0.799,0.8533,0.7943,0.8103,0.8804,0.8804,0.9159,0.9814,0.9814,1.0466,1.1566,1.1765,1.2138,1.2666,1.2822,1.2881,1.2881,1.2881,1.2881,1.2978,1.342,1.36,1.3695,1.4107,1.3862,1.3246,1.2745,1.2255,1.19,1.251,1.2774,1.318,1.4244,1.5295,1.6429,1.7773,1.8106,1.8419,1.9479,1.969,1.969,1.969,1.8817,1.8106,1.8106,1.7188,1.668,1.7229,1.7747,0.0,0.0,1.9427,1.9874,2.0246,1.9945,2.005,0.0,0.0,0.0,0.0,2.2601,2.2419,2.1412,2.1439,2.1591,2.1843,2.1821,2.2508,2.3796,2.2777,2.2598,2.3122,2.2564,2.2321,2.2371,2.2371,2.2426,2.2508,2.2508,2.2508,2.2508,2.2508,2.2453,2.2371,2.2371,2.2332,2.231,1.2449,1.2693,1.2744,1.1828,1.119,1.0789,1.0645,1.0228,1.0126,1.0732,1.061,1.0536,1.0788,1.0494,1.0321,1.0321,0.978,0.9385,0.919,0.9037,0.8945,0.8811,0.8804,0.8804,0.8804,0.8804,0.8804,0.8804,0.8374,0.8427,0.8804,0.8374,0.8427,0.8804,0.9106,0.9614,1.0261,1.0568,1.1325,1.2295,1.2295,1.2559,1.2881,1.2881,1.2881,1.2881,1.2881,1.2881,1.2978,1.3286,1.3372,1.3467,1.3789,1.3647,1.3324,1.3027,1.2627,1.2363,1.2774,1.2881,1.32,1.4387,1.5808,1.7076,1.7907,1.8302,1.8688,1.953,1.969,1.969,1.969,1.8817,1.8106,1.8106,1.7435,1.7034,1.7585,1.8145,0.0,1.9207,1.9681,2.0054,2.028,2.0296,2.0693,2.1591,2.1755,0.0,2.2543,2.3153,2.3138,2.2391,2.2244,2.2408,2.2936,2.3112,2.3632,2.4506,2.368,2.3342,2.3376,2.2987,2.2632,2.231,2.231,2.231,2.231,2.231,2.231,2.231,2.231,2.231,2.231,2.231,2.231,2.2338,1.3327,1.2986,1.2741,1.2412,1.1645,1.1316,1.215,1.162,1.1218,1.1832,1.165,1.1383,1.1089,1.0795,1.0692,1.0692,1.0127,0.9673,0.9269,0.921,0.9057,0.8824,0.8804,0.8804,0.8804,0.8804,0.8804,0.8804,0.8804,0.8804,0.8804,0.8804,0.8857,0.8956,0.9562,1.0218,1.0965,1.1566,1.2236,1.2881,1.2881,1.2881,1.2881,1.2881,1.2978,1.3065,1.3065,1.3065,1.3065,1.3152,1.3104,1.3065,1.3152,1.3113,1.3065,1.3065,1.2968,1.2881,1.2881,1.3017,1.343,1.4571,1.6015,1.7312,1.7867,1.8341,1.8817,1.9442,1.9566,1.9603,1.969,1.8893,1.8252,1.8349,1.7841,1.7652,1.827,0.0,1.9095,1.9639,2.0,2.0246,2.0382,2.0682,2.1246,2.2133,2.2659,2.2881,2.2686,2.3678,2.4117,2.3837,2.3149,2.3271,2.4232,2.4397,2.4625,2.4845,2.4625,2.4222,2.3731,2.3613,2.3156,2.2479,2.2479,2.2412,2.231,2.231,2.231,2.231,2.231,2.231,2.231,2.231,2.2338,2.2371,1.3587,1.3126,1.2808,1.2761,1.239,1.215,1.2305,1.215,1.2045,1.1904,1.183,1.169,1.139,1.1102,1.0922,1.0922,1.0678,1.0194,0.9653,0.9379,0.9057,0.8824,0.8804,0.8804,0.8804,0.8804,0.8804,0.8804,0.8804,0.8804,0.8804,0.8804,0.9113,0.9666,0.9762,1.0466,1.1665,1.1765,1.2236,1.2881,1.2881,1.2881,1.2881,1.2881,1.3238,1.3637,1.3637,1.3637,1.3732,1.4247,1.4061,1.3732,1.4247,1.4061,1.3637,1.3637,1.3286,1.2881,1.2881,1.3658,1.4606,1.5276,1.6051,1.6752,1.7312,1.7504,1.7827,1.8817,1.9006,1.9169,1.9603,1.9207,1.8951,1.9509,1.8691,1.8365,1.9484,0.0,1.9095,1.9639,1.9747,2.007,2.0829,2.0583,2.1017,2.249,2.2394,2.2737,2.3866,2.3685,2.3983,2.4918,2.3857,2.3806,2.4855,2.4609,2.515,2.6336,2.5116,2.4763,2.5236,2.4594,2.3917,2.3224,2.3224,2.2885,2.231,2.231,2.231,2.231,2.231,2.231,2.231,2.231,2.2436,2.2634,1.3227,1.2939,1.2768,1.2532,1.2392,1.2305,1.2305,1.2305,1.2258,1.2118,1.1964,1.1817,1.1683,1.1403,1.1162,1.1009,1.0868,1.0541,0.9953,0.9639,0.9279,0.8824,0.8804,0.8804,0.8804,0.8804,0.8804,0.8804,0.8804,0.8804,0.8804,0.8804,0.9159,0.9814,1.0167,1.0864,1.1814,1.2236,1.2608,1.2881,1.2881,1.2881,1.2881,1.2881,1.3286,1.3815,1.3815,1.3815,1.3815,1.4097,1.3826,1.3372,1.3658,1.3515,1.3334,1.3334,1.3104,1.2968,1.3286,1.4014,1.4835,1.5454,1.6287,1.6993,1.7229,1.7757,1.829,1.8798,1.9425,1.9817,1.9737,1.9551,1.9526,1.9829,1.9116,0.0,0.0,1.9812,1.9553,2.0161,2.0334,2.0707,2.1503,2.1811,2.2603,2.416,2.4098,2.433,2.5134,2.4927,2.4922,2.5205,2.4938,2.5037,2.5537,2.5631,2.6015,2.6691,2.5998,2.5659,2.5592,2.5253,2.4678,2.3985,2.3985,2.3562,2.2885,2.2885,2.2665,2.231,2.231,2.231,2.231,2.231,2.2463,2.2721,1.2946,1.2815,1.2572,1.2345,1.2305,1.2305,1.2305,1.2305,1.2305,1.2305,1.2104,1.1971,1.1971,1.1643,1.1336,1.1109,1.0969,1.0675,1.0147,0.9907,0.9519,0.8931,0.8844,0.8804,0.8804,0.8804,0.8804,0.8804,0.8804,0.8804,0.8804,0.8804,0.9263,1.0064,1.0559,1.1266,1.208,1.2666,1.2881,1.2881,1.2881,1.2881,1.2881,1.2881,1.3286,1.3815,1.3815,1.3815,1.3815,1.3815,1.342,1.2881,1.2881,1.2881,1.2881,1.2881,1.2881,1.3065,1.3826,1.4468,1.5085,1.5843,1.666,1.7353,1.7496,1.815,1.8793,1.9058,1.9886,2.0436,2.0206,2.0135,2.0142,2.0287,0.0,0.0,0.0,2.0419,2.0124,2.0647,2.0953,2.1389,2.2034,2.2959,2.4096,2.5507,2.5609,2.5748,2.6142,2.6049,2.5815,2.5411,2.5779,2.6049,2.6156,2.6505,2.6691,2.6691,2.6691,2.6404,2.5862,2.5862,2.5456,2.4746,2.4746,2.4222,2.3393,2.3393,2.297,2.231,2.231,2.2349,2.2371,2.2371,2.2616,2.2972,1.3186,1.2719,1.2325,1.2305,1.2305,1.2305,1.2305,1.2305,1.2305,1.2305,1.2285,1.2271,1.2271,1.1764,1.1416,1.1396,1.0902,1.0454,1.014,1.0094,0.982,0.9176,0.8951,0.8804,0.8804,0.8804,0.8804,0.8804,0.8804,0.8804,0.8804,0.8804,0.9465,1.072,1.0762,1.1534,1.2822,1.2881,1.2881,1.2881,1.2881,1.2881,1.2881,1.2881,1.3286,1.3815,1.3815,1.3815,1.3815,1.3815,1.342,1.2881,1.2881,1.2881,1.2881,1.2881,1.2881,1.3162,1.434,1.505,1.5796,1.6995,1.7313,1.7541,1.7999,1.8197,1.8557,1.9617,1.9889,2.0274,2.1346,2.1042,2.0825,2.1476,0.0,0.0,2.155,2.1042,2.0662,2.0707,2.1151,2.1638,2.2048,2.3162,2.4347,2.5509,2.5609,2.5897,2.6624,2.6227,2.5961,2.5924,2.5977,2.6227,2.6657,2.6691,2.6691,2.6691,2.6691,2.6657,2.6623,2.6623,2.6218,2.5524,2.5524,2.4712,2.3393,2.3393,2.297,2.231,2.231,2.2436,2.2669,2.2669,2.3069,2.3628,1.2915,1.2739,1.2518,1.2338,1.2305,1.2305,1.2305,1.2305,1.2305,1.2305,1.2305,1.2305,1.2305,1.2104,1.1824,1.1456,1.1223,1.0895,1.0421,1.0221,0.9853,0.921,0.8965,0.8804,0.8804,0.8804,0.8804,0.8804,0.8804,0.8804,0.8804,0.8804,0.951,1.0813,1.0813,1.1584,1.2881,1.2881,1.2881,1.2881,1.2881,1.2881,1.2881,1.2881,1.3286,1.3815,1.3815,1.3815,1.3815,1.3815,1.3637,1.3467,1.3467,1.3695,1.3931,1.3552,1.3893,1.4425,1.4649,1.5107,1.5858,1.7086,1.7639,1.7953,1.8154,1.8776,1.9409,1.9809,2.0834,2.1642,2.1709,2.1829,2.1874,2.1724,0.0,2.1545,2.2218,2.1739,2.147,2.1874,2.1957,2.2248,2.2844,2.3583,2.4583,2.5868,2.6313,2.6626,2.6823,2.6582,2.6436,2.6436,2.6889,2.6975,2.6691,2.6691,2.6691,2.6691,2.6691,2.6691,2.6691,2.6691,2.6539,2.6251,2.5547,2.4776,2.4019,2.3287,2.2714,2.231,2.231,2.2463,2.2695,2.2695,2.3117,2.3714,1.2864,1.295,1.2761,1.2478,1.2365,1.2305,1.2305,1.2305,1.2305,1.2305,1.2305,1.2305,1.2305,1.2218,1.1971,1.147,1.1343,1.1082,1.0658,1.0194,0.976,0.9203,0.8965,0.8804,0.8804,0.8804,0.8804,0.8804,0.8804,0.891,0.9106,0.9106,0.9814,1.1116,1.1116,1.1792,1.2881,1.2881,1.2881,1.2881,1.2881,1.2881,1.2881,1.2881,1.3152,1.3505,1.3505,1.3505,1.3505,1.3505,1.3637,1.3815,1.3815,1.4146,1.4548,1.437,1.479,1.5279,1.5495,1.5911,1.6547,1.7433,1.8228,1.8827,1.8993,1.9782,2.0576,2.0743,2.1794,2.2628,2.2375,2.2503,2.2532,2.2084,2.1994,2.2158,2.2664,2.2278,2.2173,2.2664,2.2674,2.2925,2.363,2.4327,2.5249,2.6429,2.7085,2.7333,2.7197,2.7091,2.7046,2.7046,2.7554,2.7571,2.7046,2.7046,2.7046,2.7046,2.681,2.6826,2.7029,2.6657,2.647,2.6402,2.5256,2.4512,2.3982,2.3091,2.2471,2.2106,2.2237,2.2544,2.2873,2.2873,2.331,2.3963,1.3382,1.3153,1.2822,1.2822,1.2498,1.2305,1.2305,1.2305,1.2305,1.2305,1.2305,1.2305,1.2298,1.2044,1.175,1.145,1.1156,1.0868,1.0645,1.0013,0.9552,0.9196,0.8965,0.8804,0.8804,0.8804,0.8804,0.8804,0.8811,0.9159,0.9814,0.9814,1.0517,1.1814,1.1814,1.2187,1.2881,1.2881,1.2881,1.2881,1.2881,1.2881,1.2881,1.2881,1.2881,1.2881,1.2881,1.2881,1.2881,1.2881,1.3286,1.3826,1.3815,1.4083,1.4549,1.5293,1.5389,1.5545,1.6912,1.7711,1.8099,1.8199,1.9119,2.0144,2.0677,2.1259,2.1899,2.2558,2.2709,2.2875,2.3508,2.3101,2.2724,2.2724,2.2724,2.2724,2.2724,2.2724,2.2724,2.2724,2.3111,2.3661,2.4327,2.5494,2.6493,2.7153,2.7737,2.803,2.7788,2.7789,2.7789,2.7789,2.7789,2.7789,2.7789,2.7789,2.7789,2.7772,2.7046,2.708,2.7755,2.6559,2.5997,2.5928,2.4742,2.3779,2.309,2.2818,2.2254,2.1658,2.2106,2.266,2.3189,2.3189,2.3746,2.4495,1.1738,1.2396,1.2755,1.2472,1.2365,1.2305,1.2305,1.2305,1.2305,1.2305,1.2305,1.2225,1.2024,1.1917,1.167,1.1169,1.1042,1.0868,1.0645,1.02,0.9853,0.9566,0.9072,0.8804,0.8804,0.8804,0.8804,0.8804,0.9256,0.9614,0.9814,1.0261,1.0965,1.1814,1.1814,1.2187,1.2881,1.2881,1.2881,1.2881,1.2881,1.2881,1.2881,1.2881,1.2881,1.2881,1.2881,1.2881,1.2881,1.2881,1.3563,1.4662,1.5914,1.6327,1.6374,1.6689,1.6904,1.7104,1.7276,1.8288,1.9306,1.9309,2.0281,2.1398,2.1929,2.2578,2.3155,2.3357,2.3376,2.3377,2.3551,2.3445,2.3176,2.2783,2.3041,2.3176,2.2783,2.3041,2.3325,2.3325,2.3859,2.4307,2.4504,2.5302,2.6062,2.6733,2.7683,2.8143,2.8009,2.788,2.7789,2.7789,2.8349,2.8383,2.7789,2.7789,2.7554,2.7029,2.681,2.681,2.7029,2.6657,2.6297,2.5895,2.4207,2.3366,2.3023,2.1972,2.1547,2.1658,2.2106,2.266,2.3189,2.3189,2.3656,2.4339,1.1248,1.1809,1.2222,1.243,1.2074,1.1842,1.2224,1.2305,1.2305,1.2305,1.2305,1.2191,1.1904,1.187,1.163,1.1042,1.0889,1.0748,1.0631,1.0281,1.004,0.9866,0.9292,0.8925,0.8811,0.8804,0.891,0.9211,0.9614,1.0064,1.0618,1.1015,1.1575,1.2236,1.2236,1.2501,1.2881,1.2881,1.2881,1.29,1.3066,1.3135,1.3145,1.3311,1.3379,1.3379,1.3379,1.3271,1.3135,1.3135,1.3772,1.4846,1.6486,1.6991,1.7117,1.7799,1.8111,1.8231,1.8286,1.9193,2.02,2.0413,2.1275,2.2194,2.2869,2.3537,2.4115,2.4414,2.443,2.4388,2.4388,2.4388,2.4178,2.355,2.3759,2.3789,2.3131,2.337,2.3699,2.3969,2.4328,2.4791,2.536,2.5764,2.6354,2.7306,2.775,2.803,2.8106,2.7724,2.7729,2.8264,2.8738,2.8755,2.8281,2.8281,2.7892,2.7131,2.6843,2.6741,2.6837,2.6343,2.5819,2.5271,2.3702,2.2922,2.2702,2.1786,2.1471,2.1658,2.2106,2.266,2.3189,2.3189,2.3678,2.4339,1.1112,1.1239,1.1467,1.247,1.1709,1.1236,1.215,1.2305,1.2305,1.2305,1.2305,1.2184,1.1864,1.183,1.159,1.1002,1.0715,1.0624,1.0624,1.0307,1.0147,1.0114,0.9657,0.9288,0.8991,0.8884,0.9113,0.9814,0.9865,1.0517,1.1814,1.1873,1.2236,1.2881,1.2881,1.2881,1.2881,1.2881,1.2929,1.3008,1.3431,1.3598,1.3647,1.3978,1.4155,1.4068,1.4,1.3828,1.3564,1.3616,1.4043,1.48,1.6102,1.6764,1.7283,1.872,1.9025,1.9011,1.978,2.0376,2.0941,2.1443,2.2014,2.2682,2.3494,2.4109,2.4667,2.5342,2.5503,2.5506,2.5506,2.5553,2.539,2.4686,2.4582,2.4388,2.3684,2.3595,2.3849,2.4507,2.4627,2.5211,2.6467,2.6632,2.7161,2.8321,2.7907,2.7703,2.7947,2.7536,2.7753,2.8783,2.8941,2.8941,2.8837,2.8873,2.8484,2.7671,2.7012,2.684,2.7024,2.587,2.5012,2.4424,2.33,2.2604,2.2291,2.2065,2.1827,2.1658,2.2106,2.2634,2.3165,2.3165,2.3702,2.4425,0.8622,0.985,1.0946,1.1178,1.1658,1.2077,1.2305,1.2305,1.2305,1.2305,1.2305,1.2104,1.1583,1.1523,1.1289,1.0701,1.0658,1.0624,1.0624,1.0501,1.0361,1.0127,1.0562,1.074,1.0423,0.9355,0.9113,0.9814,1.032,1.0973,1.1792,1.2412,1.2774,1.2881,1.2881,1.2881,1.2881,1.2881,1.3152,1.3631,1.4135,1.4312,1.4223,1.4426,1.4337,1.4,1.3389,1.3516,1.4047,1.4572,1.5222,1.6037,1.7217,1.8027,1.8769,1.9997,2.0282,2.0403,2.0949,2.1531,2.1983,2.2108,2.2564,2.3173,2.3966,2.43,2.4462,2.4619,2.4712,2.4728,2.4728,2.5191,2.539,2.4686,2.4582,2.4388,2.3684,2.3595,2.3849,2.4507,2.5076,2.5704,2.6512,2.7066,2.751,2.7795,2.8084,2.7844,2.682,2.8012,2.8378,2.7533,2.8471,2.8541,2.7516,2.7883,2.7689,2.6945,2.6776,2.6742,2.6791,2.6503,2.5892,2.4948,2.4032,2.3155,2.226,2.1859,2.1669,2.1658,2.2106,2.2517,2.2822,2.2822,2.3264,2.3901,0.7799,0.8609,0.9658,1.0634,1.087,1.1174,1.215,1.2305,1.2305,1.2305,1.2305,1.2078,1.149,1.1423,1.1189,1.0672,1.0624,1.0624,1.0624,1.0989,1.1093,1.093,1.1181,1.1248,1.1083,0.989,0.9684,1.0617,1.0751,1.1124,1.1801,1.2569,1.2881,1.2881,1.2881,1.2881,1.2881,1.2881,1.3174,1.3728,1.4547,1.4769,1.4684,1.5268,1.5175,1.4687,1.4248,1.4238,1.4468,1.4573,1.5005,1.5743,1.7076,1.7861,1.8646,2.0241,2.0718,2.0844,2.1343,2.1895,2.2309,2.2309,2.2723,2.3412,2.4553,2.4595,2.4573,2.5278,2.5131,2.4925,2.4984,2.529,2.5339,2.4686,2.4582,2.4388,2.3684,2.3595,2.3849,2.4507,2.5211,2.5989,2.6961,2.7365,2.7625,2.7625,2.7606,2.7393,2.6902,2.778,2.8241,2.8102,2.8703,2.8535,2.7613,2.7507,2.7119,2.6367,2.6367,2.6367,2.6367,2.6087,2.5493,2.467,2.458,2.3926,2.2968,2.3095,2.2859,2.2475,2.2731,2.2771,2.2695,2.2695,2.3117,2.3753,0.7557,0.7706,0.8309,0.9959,0.989,1.0121,1.1774,1.2224,1.2305,1.2305,1.2305,1.2078,1.149,1.1336,1.1082,1.0665,1.0624,1.0681,1.0807,1.1406,1.1826,1.202,1.1745,1.1592,1.1592,1.0535,1.0442,1.135,1.1034,1.1226,1.1899,1.2607,1.2881,1.2881,1.2881,1.2881,1.2881,1.2881,1.3126,1.363,1.4769,1.5067,1.4939,1.5976,1.5965,1.5391,1.5244,1.5019,1.4746,1.4453,1.4755,1.5487,1.6719,1.7523,1.8325,2.0155,2.0718,2.0857,2.1455,2.197,2.2334,2.2422,2.2799,2.3471,2.4894,2.4624,2.4452,2.5673,2.5563,2.5204,2.5152,2.5346,2.5243,2.4562,2.452,2.4372,2.3714,2.3595,2.3894,2.4702,2.548,2.6378,2.7505,2.7625,2.7625,2.7625,2.7066,2.6935,2.7272,2.7513,2.8017,2.8829,2.8963,2.8652,2.7898,2.7229,2.657,2.5852,2.5852,2.5961,2.6104,2.5521,2.4954,2.4462,2.4911,2.4623,2.3934,2.4364,2.4096,2.3376,2.3257,2.2982,2.2634,2.2746,2.3141,2.3671,0.649,0.7176,0.7855,0.8161,0.9513,1.0714,1.0938,1.1768,1.2305,1.2305,1.2305,1.2078,1.149,1.0982,1.0712,1.0631,1.0624,1.0926,1.1586,1.1772,1.2143,1.2826,1.2777,1.2753,1.2753,1.1675,1.0989,1.0782,1.1096,1.1564,1.2261,1.2691,1.2881,1.2881,1.2881,1.2881,1.2881,1.2881,1.323,1.3851,1.4786,1.5133,1.5121,1.5762,1.5746,1.5312,1.458,1.4512,1.4834,1.5137,1.61,1.7258,1.7477,1.8442,1.9639,2.0435,2.0718,2.0945,2.192,2.2246,2.2422,2.2912,2.3075,2.3365,2.4221,2.3826,2.3305,2.3531,2.4047,2.4266,2.3765,2.4627,2.5068,2.3995,2.4202,2.4287,2.3687,2.3595,2.4059,2.533,2.6557,2.743,2.761,2.7625,2.7625,2.7625,2.7535,2.7235,2.6763,2.8216,2.865,2.7596,2.8489,2.8198,2.6559,2.6286,2.5877,2.5297,2.5297,2.5746,2.6556,2.5866,2.5612,2.5711,2.4946,2.4629,2.461,2.389,2.3502,2.3342,2.2699,2.2423,2.2415,2.294,2.3189,2.3369,0.6338,0.6641,0.7176,0.7706,0.8537,0.9321,0.9786,1.0651,1.1184,1.1112,1.1527,1.165,1.1229,1.0808,1.0624,1.0624,1.0624,1.0744,1.1108,1.1524,1.195,1.2328,1.2328,1.2328,1.2328,1.1392,1.0833,1.0639,1.0707,1.1108,1.1737,1.2131,1.2501,1.2881,1.2881,1.2881,1.29,1.3135,1.3501,1.4053,1.5154,1.5473,1.5366,1.5995,1.591,1.5361,1.498,1.5243,1.5782,1.5965,1.6698,1.7688,1.8058,1.8661,1.9377,2.0382,2.0718,2.0903,2.202,2.2309,2.2447,2.3,2.3078,2.3185,2.3543,2.3365,2.3245,2.3649,2.3708,2.3586,2.3388,2.3817,2.4231,2.4155,2.4057,2.4003,2.4164,2.4178,2.4672,2.6004,2.6662,2.7171,2.758,2.7625,2.7625,2.7625,2.7625,2.744,2.7156,2.8245,2.8448,2.7425,2.7834,2.7324,2.5888,2.5377,2.4989,2.4736,2.4736,2.5433,2.6657,2.5631,2.538,2.5765,2.5292,2.4938,2.4628,2.4618,2.4137,2.3359,2.3038,2.2745,2.259,2.3038,2.3323,2.3544]},{"header":{"parameterUnit":"m.s-1","parameterCategory":1,"la1":30.6,"la2":28.766,"lo1":-90.7593,"lo2":-88.6598,"dx":0.0162,"dy":0.0183,"nx":116,"ny":114,"refTime":"2023-01-30T18:00:00:Z","depth":0,"parameterNumber":3,"parameterNumberName":"V-component_of_WINDS"},"data":[0.0,0.0,0.0,0.0,0.0,0.0,0.0,0.0,0.0,0.0,0.0,0.0,0.0,0.0,0.0,0.0,0.0,0.0,0.0,0.0,0.0,0.0,0.0,0.0,0.0,0.0,0.0,0.0,0.0,0.0,0.0,0.0,0.0,0.0,0.0,0.0,0.0,0.0,0.0,0.0,0.0,0.0,0.0,0.0,0.0,0.0,0.0,0.0,0.0,0.0,0.0,0.0,0.0,0.0,0.0,0.0,0.0,0.0,0.0,0.0,0.0,0.0,0.0,0.0,0.0,0.0,0.0,0.0,0.0,0.0,0.0,0.0,0.0,0.0,0.0,0.0,0.0,0.0,0.0,0.0,0.0,0.0,0.0,0.0,0.0,0.0,0.0,0.0,0.0,0.0,0.0,0.0,0.0,0.0,0.0,0.0,0.0,0.0,0.0,0.0,0.0,0.0,0.0,0.0,0.0,0.0,0.0,0.0,0.0,0.0,0.0,0.0,0.0,0.0,0.0,0.0,0.0,0.0,0.0,0.0,0.0,0.0,0.0,0.0,0.0,0.0,0.0,0.0,0.0,0.0,0.0,0.0,0.0,0.0,0.0,0.0,0.0,0.0,0.0,0.0,0.0,0.0,0.0,0.0,0.0,0.0,0.0,0.0,0.0,0.0,0.0,0.0,0.0,0.0,0.0,0.0,0.0,0.0,0.0,0.0,0.0,0.0,0.0,0.0,0.0,0.0,0.0,0.0,0.0,0.0,0.0,0.0,0.0,0.0,0.0,0.0,0.0,0.0,0.0,0.0,0.0,0.0,0.0,0.0,0.0,0.0,0.0,0.0,0.0,0.0,0.0,0.0,0.0,0.0,0.0,0.0,0.0,0.0,0.0,0.0,0.0,0.0,0.0,0.0,0.0,0.0,0.0,0.0,0.0,0.0,0.0,0.0,0.0,0.0,0.0,0.0,0.0,0.0,0.0,0.0,0.0,0.0,0.0,0.0,0.0,0.0,0.0,0.0,0.0,0.0,0.0,0.0,0.0,0.0,0.0,0.0,0.0,0.0,0.0,0.0,0.0,0.0,0.0,0.0,0.0,0.0,0.0,0.0,0.0,0.0,0.0,0.0,0.0,0.0,0.0,0.0,0.0,0.0,0.0,0.0,0.0,0.0,0.0,0.0,0.0,0.0,0.0,0.0,0.0,0.0,0.0,0.0,0.0,0.0,0.0,0.0,0.0,0.0,0.0,0.0,0.0,0.0,0.0,0.0,0.0,0.0,0.0,0.0,0.0,0.0,0.0,0.0,0.0,0.0,0.0,0.0,0.0,0.0,0.0,0.0,0.0,0.0,0.0,0.0,0.0,0.0,0.0,0.0,0.0,0.0,0.0,0.0,0.0,0.0,0.0,0.0,0.0,0.0,0.0,0.0,0.0,0.0,0.0,0.0,0.0,0.0,0.0,0.0,0.0,0.0,0.0,0.0,0.0,0.0,0.0,0.0,0.0,0.0,0.0,0.0,0.0,0.0,0.0,0.0,0.0,0.0,0.0,0.0,0.0,0.0,0.0,0.0,0.0,0.0,0.0,0.0,0.0,0.0,0.0,0.0,0.0,0.0,0.0,0.0,0.0,0.0,0.0,0.0,0.0,0.0,0.0,0.0,0.0,0.0,0.0,0.0,0.0,0.0,0.0,0.0,0.0,0.0,0.0,0.0,0.0,0.0,0.0,0.0,0.0,0.0,0.0,0.0,0.0,0.0,0.0,0.0,0.0,0.0,0.0,0.0,0.0,0.0,0.0,0.0,0.0,0.0,0.0,0.0,0.0,0.0,0.0,0.0,0.0,0.0,0.0,0.0,0.0,0.0,0.0,0.0,0.0,0.0,0.0,0.0,0.0,0.0,0.0,0.0,0.0,0.0,0.0,0.0,0.0,0.0,0.0,0.0,0.0,0.0,0.0,0.0,0.0,0.0,0.0,0.0,0.0,0.0,0.0,0.0,0.0,0.0,0.0,0.0,0.0,0.0,0.0,0.0,0.0,0.0,0.0,0.0,0.0,0.0,0.0,0.0,0.0,0.0,0.0,0.0,0.0,0.0,0.0,0.0,0.0,0.0,0.0,0.0,0.0,0.0,0.0,0.0,0.0,0.0,0.0,0.0,0.0,0.0,0.0,0.0,0.0,0.0,0.0,0.0,0.0,0.0,0.0,0.0,0.0,0.0,0.0,0.0,0.0,0.0,0.0,0.0,0.0,0.0,0.0,0.0,0.0,0.0,0.0,0.0,0.0,0.0,0.0,0.0,0.0,0.0,0.0,0.0,0.0,0.0,0.0,0.0,0.0,0.0,0.0,0.0,0.0,0.0,0.0,0.0,0.0,0.0,0.0,0.0,0.0,0.0,0.0,0.0,0.0,0.0,0.0,0.0,0.0,0.0,0.0,0.0,0.0,0.0,0.0,0.0,0.0,0.0,0.0,0.0,0.0,0.0,0.0,0.0,0.0,0.0,0.0,0.0,0.0,0.0,0.0,0.0,0.0,0.0,0.0,0.0,0.0,0.0,0.0,0.0,0.0,0.0,0.0,0.0,0.0,0.0,0.0,0.0,0.0,0.0,0.0,0.0,0.0,0.0,0.0,0.0,0.0,0.0,0.0,0.0,0.0,0.0,0.0,0.0,0.0,0.0,0.0,0.0,0.0,0.0,0.0,0.0,0.0,0.0,0.0,0.0,0.0,0.0,0.0,0.0,0.0,0.0,0.0,0.0,0.0,0.0,0.0,0.0,0.0,0.0,0.0,0.0,0.0,0.0,0.0,0.0,0.0,0.0,0.0,0.0,0.0,0.0,0.0,0.0,0.0,0.0,0.0,0.0,0.0,0.0,0.0,0.0,0.0,0.0,0.0,0.0,0.0,0.0,0.0,0.0,0.0,0.0,0.0,0.0,0.0,0.0,0.0,0.0,0.0,0.0,0.0,0.0,0.0,0.0,0.0,0.0,0.0,0.0,0.0,0.0,0.0,0.0,0.0,0.0,0.0,0.0,0.0,0.0,0.0,0.0,0.0,0.0,0.0,0.0,0.0,0.0,0.0,0.0,0.0,0.0,0.0,0.0,0.0,0.0,0.0,0.0,0.0,0.0,0.0,0.0,0.0,0.0,0.0,0.0,0.0,0.0,0.0,0.0,0.0,0.0,0.0,0.0,0.0,0.0,0.0,0.0,0.0,0.0,0.0,0.0,0.0,0.0,0.0,0.0,0.0,0.0,0.0,0.0,0.0,0.0,0.0,0.0,0.0,0.0,0.0,0.0,0.0,0.0,0.0,0.0,0.0,0.0,0.0,0.0,0.0,0.0,0.0,0.0,0.0,0.0,0.0,0.0,0.0,0.0,0.0,0.0,0.0,0.0,0.0,0.0,0.0,0.0,0.0,0.0,0.0,0.0,0.0,0.0,0.0,0.0,0.0,0.0,0.0,0.0,0.0,0.0,0.0,0.0,0.0,0.0,0.0,0.0,0.0,0.0,0.0,0.0,0.0,0.0,0.0,0.0,0.0,0.0,0.0,0.0,0.0,0.0,0.0,0.0,0.0,0.0,0.0,0.0,0.0,0.0,0.0,0.0,0.0,0.0,0.0,0.0,0.0,0.0,0.0,0.0,0.0,0.0,0.0,0.0,0.0,0.0,0.0,0.0,0.0,0.0,0.0,0.0,0.0,0.0,0.0,0.0,0.0,0.0,0.0,0.0,0.0,0.0,0.0,0.0,0.0,0.0,0.0,0.0,0.0,0.0,0.0,0.0,0.0,0.0,0.0,0.0,0.0,0.0,0.0,0.0,0.0,0.0,0.0,0.0,0.0,0.0,0.0,0.0,0.0,0.0,0.0,0.0,0.0,0.0,0.0,0.0,0.0,0.0,0.0,0.0,0.0,0.0,0.0,0.0,0.0,0.0,0.0,0.0,0.0,0.0,0.0,0.0,0.0,0.0,0.0,0.0,0.0,0.0,0.0,0.0,0.0,0.0,0.0,0.0,0.0,0.0,0.0,0.0,0.0,0.0,0.0,0.0,0.0,0.0,0.0,0.0,0.0,0.0,0.0,0.0,0.0,0.0,0.0,0.0,0.0,0.0,0.0,0.0,0.0,0.0,0.0,0.0,0.0,0.0,0.0,0.0,0.0,0.0,0.0,0.0,0.0,0.0,0.0,0.0,0.0,0.0,0.0,0.0,0.0,0.0,0.0,0.0,0.0,0.0,0.0,0.0,0.0,0.0,0.0,0.0,0.0,0.0,0.0,0.0,0.0,0.0,0.0,0.0,0.0,0.0,0.0,0.0,0.0,0.0,0.0,0.0,0.0,0.0,0.0,0.0,0.0,0.0,0.0,0.0,0.0,0.0,0.0,0.0,0.0,0.0,0.0,0.0,0.0,0.0,0.0,0.0,0.0,0.0,0.0,0.0,0.0,0.0,0.0,0.0,0.0,0.0,0.0,0.0,0.0,0.0,0.0,0.0,0.0,0.0,0.0,0.0,0.0,0.0,0.0,0.0,0.0,0.0,0.0,0.0,0.0,0.0,0.0,0.0,0.0,0.0,0.0,0.0,0.0,0.0,0.0,0.0,0.0,0.0,0.0,0.0,0.0,0.0,0.0,0.0,0.0,0.0,0.0,0.0,0.0,0.0,0.0,0.0,0.0,0.0,0.0,0.0,0.0,0.0,0.0,0.0,0.0,0.0,0.0,0.0,0.0,0.0,0.0,0.0,0.0,0.0,0.0,0.0,0.0,0.0,0.0,0.0,0.0,0.0,0.0,0.0,0.0,0.0,0.0,0.0,0.0,0.0,0.0,0.0,0.0,0.0,0.0,0.0,0.0,0.0,0.0,0.0,0.0,0.0,0.0,0.0,0.0,0.0,0.0,0.0,0.0,0.0,0.0,0.0,0.0,0.0,0.0,0.0,0.0,0.0,0.0,0.0,0.0,0.0,0.0,0.0,0.0,0.0,0.0,0.0,0.0,0.0,0.0,0.0,0.0,0.0,0.0,0.0,0.0,0.0,0.0,0.0,0.0,0.0,0.0,0.0,0.0,0.0,0.0,0.0,0.0,0.0,0.0,0.0,0.0,0.0,0.0,0.0,0.0,0.0,0.0,0.0,0.0,0.0,0.0,0.0,0.0,0.0,0.0,0.0,0.0,0.0,0.0,0.0,0.0,0.0,0.0,0.0,0.0,0.0,0.0,0.0,0.0,0.0,0.0,0.0,0.0,0.0,0.0,0.0,0.0,0.0,0.0,0.0,0.0,0.0,0.0,0.0,0.0,0.0,0.0,0.0,0.0,0.0,0.0,0.0,0.0,0.0,0.0,0.0,0.0,0.0,0.0,0.0,0.0,0.0,0.0,0.0,0.0,0.0,0.0,0.0,0.0,0.0,0.0,0.0,0.0,0.0,0.0,0.0,0.0,0.0,0.0,0.0,0.0,0.0,0.0,0.0,0.0,0.0,0.0,0.0,0.0,0.0,0.0,0.0,0.0,0.0,0.0,0.0,0.0,0.0,0.0,0.0,0.0,0.0,0.0,0.0,0.0,0.0,0.0,0.0,0.0,0.0,0.0,0.0,0.0,0.0,0.0,0.0,0.0,0.0,0.0,0.0,0.0,0.0,0.0,0.0,0.0,0.0,0.0,0.0,0.0,0.0,0.0,0.0,0.0,0.0,0.0,0.0,0.0,0.0,0.0,0.0,0.0,0.0,0.0,0.0,0.0,0.0,0.0,0.0,0.0,0.0,0.0,0.0,0.0,0.0,0.0,0.0,0.0,0.0,0.0,0.0,0.0,0.0,0.0,0.0,0.0,0.0,0.0,0.0,0.0,0.0,0.0,0.0,0.0,0.0,0.0,0.0,0.0,0.0,0.0,0.0,0.0,0.0,0.0,0.0,0.0,0.0,0.0,0.0,0.0,0.0,0.0,0.0,0.0,0.0,0.0,0.0,0.0,0.0,0.0,0.0,0.0,0.0,0.0,0.0,0.0,0.0,0.0,0.0,0.0,0.0,0.0,0.0,0.0,0.0,0.0,0.0,0.0,0.0,0.0,0.0,0.0,0.0,0.0,0.0,0.0,0.0,0.0,0.0,0.0,0.0,0.0,0.0,0.7719,0.0,0.0,0.0,0.0,0.0,0.0,0.0,0.0,0.0,0.0,0.0,0.0,0.0,0.0,0.0,0.0,0.0,0.0,0.0,0.0,0.0,0.0,0.0,0.0,0.0,0.0,0.0,0.0,0.0,0.0,0.0,0.0,0.0,0.0,0.0,0.0,0.0,0.0,0.0,0.0,0.0,0.0,0.0,0.0,0.0,0.0,0.0,0.0,0.0,0.0,0.0,0.0,0.0,0.0,0.0,0.0,0.0,0.0,0.0,0.0,0.0,0.0,0.0,0.0,0.0,0.0,0.0,0.0,0.0,0.0,0.0,0.0,0.0,0.0,0.0,0.0,0.0,0.0,0.0,0.0,0.0,0.0,0.0,0.0,0.0,0.0,0.0,0.0,0.0,0.0,0.0,0.0,0.0,0.0,0.0,0.0,0.0,0.0,0.0,0.0,0.0,0.0,0.0,0.0,0.0,0.0,0.0,0.0,0.0,0.0,0.0,0.0,0.0,0.0,0.0,0.0,0.7857,0.0,0.0,0.0,0.0,0.0,0.0,0.0,0.0,0.0,0.0,0.0,0.0,0.0,0.0,0.0,0.0,0.0,0.0,0.0,0.0,0.0,0.0,0.0,0.0,0.0,0.0,0.0,0.0,0.0,0.0,0.0,0.0,0.0,0.0,0.0,0.0,0.0,0.0,0.0,0.0,0.0,0.0,0.0,0.0,0.0,0.0,0.0,0.0,0.0,0.0,0.0,0.0,0.0,0.0,0.0,0.0,0.0,0.0,0.0,0.0,0.0,0.0,0.0,0.0,0.0,0.0,0.0,0.0,0.0,0.0,0.0,0.0,0.0,0.0,0.0,0.0,0.0,0.0,0.0,0.0,0.0,0.0,0.0,0.0,0.0,0.0,0.0,0.0,0.0,0.0,0.0,0.0,0.0,0.0,0.0,0.0,0.0,0.0,0.0,0.0,0.0,0.0,0.0,0.0,0.0,0.0,0.0,0.0,1.2228,1.1771,1.1869,1.1468,1.1049,1.057,0.9398,0.9036,0.9287,0.0,0.0,0.0,0.0,0.0,0.0,0.0,0.0,0.0,0.0,0.0,0.0,0.0,0.0,0.0,0.0,0.0,0.0,0.0,0.0,0.0,0.0,0.0,0.0,0.0,0.0,0.0,0.0,0.0,0.0,0.0,0.0,0.0,0.0,0.0,0.0,0.0,0.0,0.0,1.0971,1.0608,1.057,1.0933,0.0,0.0,0.0,0.0,0.0,0.0,0.0,0.0,0.0,0.0,0.0,0.0,0.0,0.0,0.0,0.0,0.0,0.0,0.0,0.0,0.0,0.0,0.0,0.0,0.0,0.0,0.0,0.0,0.0,0.0,0.0,0.0,0.0,0.0,0.0,0.0,0.0,0.0,0.0,0.0,0.0,0.0,0.0,0.0,1.6524,1.6287,0.0,0.0,0.0,0.0,0.0,0.0,0.0,0.0,0.0,0.0,0.0,0.0,0.0,1.4342,1.4909,1.3669,1.3048,1.3037,1.1841,1.1304,1.1359,1.0157,1.0183,1.1119,0.9809,0.0,0.9921,0.8367,0.0,0.0,0.0,0.0,0.0,0.0,0.0,0.0,0.0,0.0,0.0,0.0,0.0,0.0,0.0,0.0,0.0,0.0,0.0,0.0,0.0,0.0,0.0,0.0,0.0,0.0,0.0,0.0,0.0,0.0,0.0,0.0,0.0,0.0,0.0,0.0,1.2896,1.2748,1.2214,1.1433,1.0835,1.0516,1.1314,1.1982,1.2508,1.272,0.0,0.0,0.0,0.0,0.0,0.0,0.0,0.0,0.0,0.0,0.0,0.0,0.0,0.0,0.0,0.0,0.0,0.0,0.0,0.0,0.0,0.0,0.0,0.0,0.0,0.0,0.0,0.0,0.0,0.0,0.0,0.0,0.0,0.0,0.0,0.0,0.0,0.0,0.0,1.7726,1.7861,1.6675,1.6101,1.5389,0.0,0.0,0.0,0.0,0.0,0.0,0.0,0.0,0.0,1.4111,1.4076,1.3955,1.3752,1.2977,1.2574,1.2542,1.1482,1.0982,1.0987,1.0032,0.9906,1.0436,0.9999,1.023,1.0846,0.9843,0.9895,1.0681,0.0,0.0,0.0,0.0,1.2419,1.2946,0.0,0.0,0.0,0.0,0.0,0.0,0.0,0.0,0.0,0.0,0.0,0.0,0.0,0.0,0.0,0.9727,0.0,0.0,0.0,0.0,0.0,0.0,0.0,0.0,0.0,0.0,0.0,0.0,1.3982,1.3651,1.296,1.2078,1.1211,1.0498,1.0676,1.1179,1.1934,1.2318,1.2354,0.0,0.0,0.0,0.0,0.0,0.0,0.0,0.0,0.0,0.0,0.0,0.0,0.0,0.0,0.0,0.0,0.0,0.0,0.0,0.0,0.0,0.0,0.0,0.0,0.0,0.0,0.0,0.0,0.0,0.0,0.0,0.0,0.0,0.0,0.0,0.0,0.0,0.0,1.9018,1.8717,1.6987,1.6544,1.587,0.0,0.0,0.0,0.0,0.0,0.0,1.4519,1.447,1.4228,1.3875,1.3749,1.3437,1.2883,1.2349,1.2086,1.2056,1.1216,1.0814,1.0804,1.0266,1.0117,1.0288,1.0625,1.1227,1.1941,1.1446,1.1316,1.1469,1.1761,1.2156,1.2606,1.3016,1.338,1.3812,0.0,0.0,0.0,0.0,0.0,0.0,0.0,0.0,0.0,0.0,0.0,0.0,0.0,0.0,1.1387,1.0774,1.0077,0.9442,0.0,0.0,0.0,0.0,0.0,0.0,0.0,0.0,0.0,1.399,1.3986,1.3447,1.2341,1.1777,1.1528,1.146,1.055,1.0212,1.0407,1.1886,1.192,1.1056,0.0,0.0,0.0,0.0,0.0,0.0,0.0,0.0,0.0,0.0,0.0,0.0,0.0,0.0,0.0,0.0,0.0,0.0,0.0,0.0,0.0,0.0,0.0,0.0,0.0,0.0,0.0,0.0,0.0,0.0,0.0,0.0,0.0,0.0,0.0,0.0,0.0,0.0,0.0,1.7671,1.7302,0.0,0.0,0.0,0.0,1.6192,1.4621,1.4865,1.7807,1.5032,1.4217,1.6083,1.3816,1.2931,1.3641,1.2415,1.1781,1.1721,1.1088,1.0828,1.0897,1.0735,1.0994,1.1627,1.2084,1.268,1.3235,1.2258,1.2373,1.3212,1.3543,1.3835,1.4134,1.4541,1.4826,1.5038,0.0,0.0,0.0,0.0,0.0,0.0,0.0,0.0,0.0,0.0,0.0,0.0,0.0,1.2403,1.2165,1.115,1.0509,0.9808,0.8935,0.0,0.0,0.0,0.0,0.0,0.0,0.0,1.6021,1.4915,1.4619,1.4039,1.3265,1.2782,1.2371,1.2039,1.2161,1.2057,1.1785,1.2235,1.24,1.2392,1.3393,1.3664,0.0,0.0,0.0,0.0,0.0,0.0,0.0,0.0,0.0,0.0,0.0,0.0,0.0,0.0,0.0,0.0,0.0,0.0,0.0,0.0,0.0,0.0,0.0,0.0,0.0,0.0,0.0,0.0,0.0,0.0,0.0,0.0,0.0,0.0,0.0,0.0,0.0,1.7404,1.6837,0.0,0.0,1.4567,1.4763,1.4652,1.4443,1.452,1.5015,1.4219,1.3733,1.3669,1.3241,1.2843,1.2482,1.2018,1.179,1.176,1.1542,1.1468,1.1482,1.16,1.1815,1.2061,1.2748,1.3252,1.3602,1.3626,1.3831,1.4167,1.4522,1.4694,1.4808,1.5083,1.5599,1.6068,0.0,0.0,0.0,0.0,0.0,0.0,0.0,0.0,0.0,0.0,0.0,1.3378,1.2901,1.3159,1.2847,1.1513,1.0848,1.0165,0.9392,0.0,0.0,0.0,0.0,0.0,0.0,1.7157,1.6679,1.5157,1.4834,1.4376,1.3815,1.3499,1.325,1.3118,1.3476,1.3328,1.2797,1.3077,1.3223,1.3326,1.4011,1.4631,1.5065,0.0,0.0,0.0,0.0,0.0,0.0,0.0,0.0,0.0,0.0,0.0,0.0,0.0,0.0,0.0,0.0,0.0,0.0,0.0,0.0,0.0,0.0,0.0,0.0,0.0,0.0,0.0,0.0,0.0,0.0,0.0,0.0,0.0,0.0,0.0,1.7894,1.7301,1.6478,1.547,1.4201,1.4745,1.5018,1.4543,1.4779,1.4878,1.4783,1.4324,1.3829,1.3248,1.3382,1.3046,1.2156,1.2134,1.2014,1.1805,1.2029,1.2014,1.1826,1.2311,1.2448,1.2376,1.3109,1.3593,1.3891,1.4419,1.4652,1.4729,1.4999,1.5289,1.5595,1.5772,1.6385,1.6971,0.0,0.0,0.0,0.0,0.0,0.0,0.0,0.0,0.0,0.0,1.428,1.4013,1.3724,1.3826,1.3345,1.1917,1.1208,1.0648,1.0197,1.0266,0.0,0.0,0.0,0.0,1.716,1.7763,1.6998,1.4698,1.4698,1.4376,1.3768,1.3815,1.4143,1.4687,1.4305,1.3773,1.3233,1.4353,1.4415,1.3742,1.3907,1.4943,1.6322,0.0,0.0,0.0,0.0,0.0,0.0,0.0,0.0,0.0,0.0,0.0,0.0,0.0,0.0,0.0,0.0,0.0,0.0,0.0,0.0,0.0,0.0,0.0,0.0,0.0,0.0,0.0,0.0,0.0,0.0,0.0,0.0,0.0,1.9865,1.9359,1.8428,1.7433,1.6384,1.5392,1.4524,1.4813,1.5388,1.6233,1.5738,1.6055,1.7535,1.5438,1.4501,1.5191,1.4303,1.3481,1.2792,1.2807,1.2478,1.1835,1.2478,1.2448,1.185,1.2755,1.2958,1.2614,1.3226,1.3715,1.4131,1.4537,1.4776,1.4919,1.5039,1.567,1.6511,1.6619,1.7146,1.7686,0.0,0.0,0.0,0.0,0.0,0.0,0.0,0.0,0.0,0.0,1.4865,1.4752,1.3799,1.4175,1.375,1.1944,1.1359,1.0746,0.9913,0.0,0.0,0.0,0.0,0.0,1.7857,1.8009,1.6998,1.4698,1.4698,1.4154,1.3152,1.4061,1.4514,1.4698,1.5047,1.511,1.4931,1.5237,1.5747,1.6319,1.5931,1.627,1.6922,0.0,0.0,0.0,0.0,0.0,0.0,0.0,0.0,0.0,0.0,0.0,0.0,0.0,0.0,0.0,0.0,0.0,0.0,0.0,0.0,0.0,0.0,0.0,0.0,0.0,0.0,0.0,0.0,0.0,0.0,0.0,0.0,1.9572,2.0044,1.8236,1.7094,1.7737,1.699,1.6182,1.5548,1.6063,1.6266,1.5843,1.5728,1.5652,1.5538,1.449,1.387,1.3786,1.3782,1.3331,1.2386,1.3124,1.3181,1.2531,1.2461,1.2485,1.2531,1.2237,1.2188,1.2356,1.3109,1.3576,1.3846,1.439,1.4738,1.4911,1.5057,1.5612,1.63,1.5857,1.5756,1.5986,0.0,0.0,0.0,0.0,0.0,0.0,0.0,0.0,0.0,0.0,1.5173,1.5031,1.3839,1.43,1.385,1.1725,1.1517,1.1071,1.0162,0.0,0.0,0.0,0.0,1.8893,1.8145,1.8106,1.7136,1.5062,1.4835,1.4468,1.4061,1.4479,1.4835,1.5096,1.5454,1.5309,1.4892,1.5372,1.6138,1.7064,1.7326,1.8114,1.8981,1.8369,1.8309,1.8468,1.7971,1.7426,1.6855,1.623,0.0,0.0,0.0,0.0,0.0,0.0,0.0,0.0,0.0,0.0,0.0,0.0,0.0,0.0,0.0,0.0,0.0,0.0,0.0,0.0,0.0,0.0,0.0,0.0,1.9722,1.9354,1.9266,1.7907,1.7127,1.7808,1.6964,1.6247,1.592,1.6632,1.6792,1.6103,1.6305,1.6193,1.5607,1.4996,1.4429,1.4012,1.4414,1.3986,1.2639,1.3664,1.3735,1.2816,1.2741,1.2751,1.2786,1.2215,1.2043,0.0,1.2903,1.3305,1.3572,1.4093,1.4378,0.0,0.0,0.0,0.0,0.0,1.6534,1.6505,0.0,0.0,0.0,0.0,0.0,0.0,0.0,0.0,0.0,0.0,0.0,1.5031,1.3836,1.4209,1.3623,1.1435,1.1625,1.1677,0.0,0.0,0.0,1.7258,1.8826,1.9207,1.8145,1.8013,1.7177,1.5499,1.4971,1.4926,1.5398,1.5005,1.5107,1.5588,1.5543,1.4949,1.4086,1.5129,1.6023,1.6785,1.8383,2.0013,2.1409,2.047,2.0281,2.0493,2.0217,1.9253,1.816,1.8514,0.0,0.0,0.0,0.0,0.0,0.0,0.0,0.0,0.0,0.0,0.0,0.0,0.0,0.0,0.0,0.0,0.0,0.0,0.0,0.0,0.0,0.0,0.0,0.0,1.9084,1.8395,1.8157,1.8097,1.7959,1.7606,1.6746,1.6169,1.6169,1.6897,1.7247,1.6918,1.7135,1.7155,1.6743,0.0,0.0,0.0,0.0,1.4932,1.331,1.4296,1.4184,1.3041,1.3147,1.3088,1.2897,1.241,1.2177,1.2169,1.2619,1.2968,1.3244,1.3661,1.3877,1.403,1.47,1.5475,1.6402,1.7813,1.8221,1.7949,0.0,0.0,0.0,0.0,0.0,0.0,0.0,0.0,0.0,1.5668,1.5448,1.4838,1.3803,1.3527,1.2889,1.162,1.2037,1.3028,0.0,0.0,1.6908,1.8342,1.9221,1.9207,1.8145,1.7612,1.6553,1.488,1.4755,1.4514,1.419,1.5039,1.5499,1.5588,1.5107,1.5005,1.5264,1.544,1.6279,1.7734,1.9574,2.0606,2.1017,2.0862,2.0957,2.1175,2.0894,2.0982,2.1128,2.0356,2.025,2.0217,1.8889,0.0,0.0,0.0,0.0,0.0,0.0,0.0,0.0,0.0,0.0,0.0,0.0,0.0,0.0,0.0,0.0,0.0,0.0,0.0,0.0,1.9538,1.9249,1.8861,1.8341,1.8455,1.8121,1.6955,1.7373,1.7806,1.7904,1.827,1.8372,1.8096,1.7586,1.7042,1.6441,1.5652,1.5195,1.5104,1.5195,1.4819,1.3912,1.4502,1.4663,1.4393,0.0,0.0,1.3545,1.2138,1.1629,1.1876,1.2195,1.2463,1.2697,1.321,1.3801,1.4448,1.5067,1.576,1.6562,1.7477,1.7337,1.6733,0.0,0.0,0.0,0.0,0.0,0.0,0.0,0.0,0.0,0.0,1.5346,1.4879,1.3863,1.338,1.284,1.2089,1.2653,0.0,0.0,1.6549,1.751,1.8638,1.9331,1.9207,1.8145,1.7717,1.6734,1.5141,1.5026,1.4887,1.4721,1.5309,1.5588,1.5588,1.5276,1.5005,1.4767,1.5572,1.6494,1.7552,1.9808,2.1133,2.1785,2.2192,2.2287,2.2245,2.2513,2.2307,2.1884,2.1436,2.1394,2.1349,2.0081,1.9507,1.9126,0.0,0.0,0.0,0.0,0.0,0.0,0.0,0.0,0.0,0.0,0.0,0.0,0.0,0.0,1.9638,0.0,0.0,1.931,1.9036,1.8942,1.861,1.7803,1.7988,1.8007,1.7452,1.8049,1.8399,1.8129,1.8654,1.8614,1.7675,1.7533,1.715,1.6347,1.5769,1.5359,1.5104,1.5329,1.5038,1.4112,1.4562,1.4633,1.4288,1.3268,1.3161,1.3769,1.2746,1.2478,1.2831,1.3076,1.3261,1.3382,1.3775,1.4406,1.5056,1.4653,1.5038,1.5836,1.6218,1.604,1.569,0.0,0.0,0.0,0.0,0.0,0.0,0.0,0.0,0.0,0.0,1.511,1.4738,1.3774,1.3271,1.2957,0.0,0.0,0.0,0.0,1.7213,1.8065,1.8852,1.9319,1.9095,1.8145,1.7613,1.6767,1.5588,1.5219,1.5161,1.541,1.541,1.5499,1.5576,1.5499,1.5005,1.4411,1.5816,1.6741,1.7474,1.9687,2.1378,2.2565,2.3241,2.3355,2.3234,2.3874,2.3142,2.1898,2.2196,2.2134,2.1779,2.1049,2.0794,2.0627,1.9698,1.9504,0.0,0.0,0.0,0.0,0.0,0.0,0.0,0.0,0.0,2.0263,2.0156,1.995,1.9612,1.9105,1.9002,1.8896,1.8566,1.8575,1.8313,1.7384,1.7664,1.8104,1.8399,1.8664,1.8677,1.8359,1.8904,1.8687,1.7332,1.7409,1.7135,1.6253,1.587,1.5551,1.5255,1.5507,1.5285,1.4428,1.4691,1.4588,1.4184,1.3653,1.3594,1.3964,1.358,1.3535,1.381,1.4029,1.416,1.4247,1.4601,1.5098,1.5502,1.4504,1.4587,1.5217,1.5005,1.5082,1.5221,0.0,0.0,0.0,0.0,0.0,0.0,0.0,0.0,0.0,0.0,0.0,0.0,0.0,0.0,0.0,0.0,0.0,0.0,1.7555,1.7972,1.857,1.9561,1.92,1.8688,1.8106,1.6549,1.572,1.5588,1.4501,1.4233,1.4789,1.4789,1.5107,1.5588,1.5062,1.5332,1.6194,1.6361,1.7247,1.8711,1.9817,2.102,2.219,2.2652,2.3136,2.3627,2.3717,2.3031,2.2167,2.2863,2.2441,2.169,2.1858,2.1727,2.1273,2.023,0.0,2.0011,2.0299,2.1802,2.3524,2.4532,2.4126,2.3736,0.0,0.0,2.2016,2.201,2.1142,2.0104,1.9162,1.9002,1.8825,1.833,1.8493,1.8449,1.7828,1.8489,1.9092,1.9264,1.9053,1.9248,2.0188,1.9749,1.9202,1.8788,1.7546,1.6533,1.5886,1.5418,1.5359,1.5712,1.5359,1.5315,1.5621,1.5081,1.5052,1.5559,1.4337,1.4083,1.4663,1.4038,1.3744,1.381,1.3835,1.3979,1.4254,1.4931,1.5242,1.5309,1.58,1.5883,1.5643,1.4964,1.5296,1.6066,0.0,0.0,0.0,0.0,0.0,0.0,0.0,0.0,0.0,0.0,0.0,0.0,0.0,0.0,0.0,0.0,0.0,0.0,1.7972,1.808,1.844,1.9185,1.8727,1.8185,1.7666,1.6467,1.5599,1.5062,1.446,1.4174,1.419,1.4514,1.4835,1.5096,1.5186,1.5487,1.599,1.697,1.7877,1.8803,2.0138,2.124,2.2124,2.2289,2.2263,2.2212,2.2417,2.2159,0.0,0.0,2.1794,2.1589,2.1572,2.1558,2.1333,2.0266,2.0384,0.0,2.2254,2.3265,0.0,0.0,2.4654,2.4072,2.4221,2.3247,2.2115,2.1399,2.077,2.001,1.8968,1.8473,1.8118,0.0,1.7623,1.7646,1.778,1.7971,1.8415,1.9305,1.947,1.9723,2.0199,1.9751,1.9014,1.8124,1.7227,1.6337,1.5448,1.5195,1.5195,1.5389,1.4968,1.4968,1.5389,1.4183,1.3725,1.3997,1.3426,1.3431,1.3947,1.4365,1.4711,1.4947,1.4947,1.5029,1.5179,1.5479,1.5558,1.5543,1.5479,1.5411,1.5301,1.4606,1.4629,1.49,0.0,0.0,0.0,0.0,0.0,0.0,0.0,0.0,0.0,0.0,0.0,0.0,0.0,0.0,0.0,0.0,0.0,0.0,0.0,1.7961,1.8188,1.8627,1.8127,1.7706,1.7312,1.6244,1.5453,1.4971,1.4286,1.391,1.3826,1.4061,1.4294,1.4468,1.5096,1.5431,1.5648,1.7369,1.8398,1.8943,2.027,2.1144,2.1653,2.1568,2.1044,2.0438,2.108,2.1079,0.0,0.0,2.1025,2.1268,2.1073,2.1293,2.1424,2.0295,2.0554,2.1507,2.3102,0.0,0.0,2.5081,2.4904,2.4394,2.4004,2.3415,2.2637,2.1392,2.0806,2.0172,1.9006,1.8253,0.0,1.7351,1.7164,1.7199,1.7599,1.7797,1.8292,1.9442,2.0069,2.0445,2.0434,1.9734,1.8826,1.7766,1.6804,1.5902,1.5133,1.4982,1.4937,1.4937,1.4658,1.4627,1.4937,1.3779,1.3203,1.3203,1.3203,1.3361,1.3656,1.4554,1.5165,1.561,1.561,1.5668,1.5799,1.5668,1.561,1.5536,1.4934,1.4717,1.4668,1.404,1.3829,1.3767,0.0,0.0,0.0,0.0,0.0,0.0,0.0,0.0,0.0,0.0,0.0,0.0,0.0,0.0,0.0,0.0,0.0,0.0,0.0,1.7746,1.7992,1.7942,1.7554,1.7312,1.7312,1.5632,1.5028,1.5588,1.38,1.3258,1.3779,1.3238,1.3286,1.3862,1.4468,1.505,1.5708,1.7395,1.8589,1.942,2.0081,2.0464,2.0603,2.0208,1.94,1.8637,2.0054,0.0,0.0,0.0,2.0264,2.0525,2.0525,2.1182,0.0,2.0535,2.0255,0.0,0.0,0.0,2.3287,2.4753,2.5188,2.5196,2.4996,2.4834,2.4328,2.3012,2.199,2.0944,1.953,1.8672,1.798,1.7415,1.7559,1.7674,1.7366,1.847,1.95,1.9949,2.091,2.1562,0.0,2.0007,1.8837,1.8407,1.6382,1.5118,1.5104,1.4721,1.4533,1.4533,1.4501,1.4501,1.4533,1.446,1.4446,1.4446,1.4446,1.4446,1.4446,1.4505,1.4752,1.5134,1.5134,1.5389,1.577,1.5329,1.5134,1.5074,1.4676,1.4224,1.3762,1.3305,1.3137,1.3191,0.0,0.0,0.0,0.0,0.0,0.0,0.0,0.0,0.0,0.0,0.0,0.0,0.0,0.0,0.0,0.0,0.0,0.0,0.0,1.694,1.6611,1.6824,1.6097,1.5689,1.564,1.4688,1.4238,1.4411,1.3382,1.3017,1.319,1.2491,1.2276,1.2492,1.3158,1.3964,1.5002,1.6767,1.8282,1.9531,1.9651,1.9909,2.0113,1.9259,1.8717,1.8454,0.0,0.0,0.0,0.0,0.0,0.0,2.0496,0.0,0.0,2.0991,0.0,0.0,0.0,0.0,2.4145,2.406,2.4062,2.4005,2.3621,2.3512,2.3233,2.2443,2.13,2.0038,1.8572,1.7759,1.6987,1.6101,1.6444,1.6825,1.6879,1.7337,1.8083,1.9135,1.9776,0.0,0.0,0.0,0.0,1.8006,1.6154,1.4724,1.3808,1.3644,1.3411,1.3107,1.2857,1.2672,1.2627,1.2657,1.2474,1.2202,1.3076,1.3727,1.4117,1.4374,1.4564,1.469,1.469,1.4783,1.4937,1.4783,1.469,1.4658,1.4192,1.3743,1.3302,1.3106,1.2666,1.2195,0.0,0.0,0.0,0.0,0.0,0.0,0.0,0.0,0.0,0.0,0.0,0.0,0.0,0.0,0.0,0.0,0.0,0.0,0.0,0.0,1.5769,1.5741,1.5194,1.4792,1.4541,1.3956,1.3554,1.3331,1.2879,1.2646,1.2656,1.2064,1.1814,1.1814,1.2483,1.3344,1.4348,1.6095,1.754,1.8599,1.8582,1.8669,1.8701,1.8144,1.7909,0.0,0.0,0.0,0.0,0.0,0.0,0.0,0.0,0.0,0.0,0.0,0.0,0.0,0.0,2.2735,2.322,2.2813,2.2776,2.2678,2.2209,2.208,2.1958,2.1551,2.047,1.9348,1.8528,1.7922,1.7092,1.5706,1.6072,1.6402,1.6068,1.6583,1.7491,1.8763,1.9531,0.0,0.0,0.0,0.0,1.7753,1.6186,1.4695,1.3411,1.3039,1.2683,1.2199,1.1945,1.1846,1.1981,1.2007,1.1931,1.1802,1.2641,1.3272,1.3648,1.3934,1.4117,1.4278,1.4278,1.4374,1.4501,1.4342,1.4154,1.3979,1.3491,1.2936,1.2366,1.2484,1.2186,1.1696,0.0,0.0,0.0,0.0,0.0,0.0,0.0,0.0,0.0,0.0,0.0,0.0,0.0,0.0,0.0,0.0,0.0,0.0,0.0,0.0,0.0,1.4673,1.4763,1.4584,1.405,1.3501,1.3001,1.2563,1.2373,1.2283,1.2312,1.2041,1.1895,1.1917,1.2532,1.3182,1.3811,1.5504,1.644,1.6886,1.7026,1.6928,1.6696,1.6961,0.0,0.0,0.0,0.0,0.0,0.0,0.0,0.0,0.0,0.0,0.0,0.0,0.0,2.017,2.1226,2.1124,2.079,2.1116,2.135,2.1346,2.0795,2.0675,2.0613,2.0454,1.9595,1.8983,0.0,0.0,1.82,1.6144,1.6442,1.6453,1.5053,1.6302,1.7738,0.0,0.0,0.0,0.0,0.0,0.0,1.7727,0.0,1.4949,1.3769,1.2916,1.2246,1.1737,1.1737,1.1982,1.239,1.2425,1.2696,1.3198,1.3198,1.3198,1.3198,1.3198,1.3459,1.3868,1.3868,1.4084,1.4406,1.4019,1.3563,1.3039,1.2614,1.1872,1.1033,1.1504,1.1643,1.1753,0.0,0.0,0.0,0.0,0.0,0.0,0.0,0.0,0.0,0.0,0.0,0.0,0.0,0.0,0.0,0.0,0.0,0.0,0.0,0.0,0.0,0.0,0.0,0.0,0.0,0.0,0.0,0.0,0.0,1.3671,1.4063,1.3476,1.315,1.3076,1.3265,1.3606,1.4144,1.5513,1.6673,1.759,0.0,1.7213,1.7514,0.0,0.0,0.0,0.0,0.0,0.0,0.0,0.0,0.0,0.0,0.0,2.1235,0.0,0.0,2.1551,2.0644,2.0662,2.0747,2.0002,1.9858,1.972,1.9086,1.8937,1.9026,1.9311,1.8933,1.8483,0.0,0.0,0.0,1.6475,1.6772,0.0,1.569,1.6154,0.0,0.0,0.0,1.9326,2.0389,1.9072,0.0,0.0,1.5915,1.404,1.239,1.209,1.159,1.0697,1.1019,1.112,1.0944,1.1641,1.2402,1.3198,1.3198,1.3198,1.3198,1.3198,1.3267,1.3391,1.3391,1.3459,1.3514,1.3425,1.3091,1.2614,1.2174,1.1579,1.0995,1.1065,1.1308,1.1665,0.0,0.0,0.0,0.0,0.0,0.0,0.0,0.0,0.0,0.0,0.0,0.0,0.0,0.0,0.0,0.0,0.0,0.0,0.0,0.0,0.0,0.0,0.0,0.0,0.0,0.0,0.0,0.0,0.0,0.0,0.0,1.4395,1.4384,1.4287,1.4476,1.4861,1.5414,0.0,0.0,0.0,0.0,0.0,0.0,0.0,0.0,0.0,0.0,0.0,0.0,0.0,0.0,1.9696,1.99,2.0336,2.0657,2.0075,0.0,2.058,1.9929,1.9656,1.9386,1.8608,1.8308,1.8074,1.7546,1.7432,1.7615,1.8277,1.8173,0.0,0.0,0.0,0.0,0.0,0.0,0.0,1.551,1.5773,1.6671,0.0,1.8161,0.0,1.9852,1.8322,1.7133,0.0,1.5517,1.3994,1.2489,1.2205,1.1664,1.0649,1.1094,1.1337,1.1324,1.2317,1.3062,1.3584,1.3311,1.3323,1.3584,1.3311,1.3198,1.3198,0.0,1.3198,1.3198,1.3198,1.2791,1.2174,1.1884,1.1356,1.07,1.0833,1.1064,1.1351,0.0,0.0,0.0,0.0,0.0,0.0,0.0,0.0,0.0,0.0,0.0,0.0,0.0,0.0,0.0,0.0,0.0,0.0,0.0,0.0,0.0,0.0,0.0,0.0,0.0,0.0,0.0,0.0,0.0,0.0,0.0,0.0,0.0,0.0,0.0,0.0,0.0,0.0,0.0,0.0,0.0,0.0,0.0,0.0,0.0,0.0,0.0,0.0,0.0,0.0,1.9133,1.9646,1.923,1.9181,1.9277,1.9471,1.9177,1.8871,1.9226,1.8618,1.7794,1.7476,1.7108,1.6686,1.6328,1.628,1.6567,1.7387,0.0,0.0,1.9025,0.0,1.8377,1.6822,0.0,1.6095,1.5061,1.5439,1.6395,1.8007,1.7772,1.7974,1.926,1.735,1.6019,1.5918,1.525,1.43,1.319,1.271,1.2102,1.1244,1.1849,1.2338,1.2579,1.3654,1.4123,1.3972,1.3534,1.3546,1.3959,1.3446,1.3198,1.3198,0.0,0.0,1.3094,1.3094,1.2544,1.17,1.17,1.1223,1.0557,1.0824,1.1053,1.1276,0.0,0.0,0.0,0.0,0.0,0.0,0.0,0.0,0.0,0.0,0.0,0.0,0.0,0.0,0.0,0.0,0.0,0.0,0.0,0.0,0.0,0.0,0.0,0.0,0.0,0.0,0.0,0.0,0.0,0.0,0.0,0.0,0.0,0.0,0.0,0.0,0.0,0.0,0.0,0.0,0.0,0.0,0.0,0.0,0.0,0.0,0.0,0.0,0.0,0.0,1.7856,1.8166,1.8076,1.8472,1.8852,1.8324,1.8898,1.9641,1.9148,1.8839,1.8555,1.7955,1.7283,1.6633,1.6039,1.6262,0.0,0.0,0.0,1.8652,1.9242,1.9017,0.0,1.8114,0.0,0.0,0.0,0.0,1.6083,0.0,0.0,0.0,0.0,0.0,0.0,0.0,0.0,1.4225,1.2699,1.2544,1.2425,1.2246,1.363,1.3939,1.3094,1.4187,1.4274,1.3348,1.3783,1.3722,1.3336,1.3248,1.3198,1.3198,1.3198,0.0,1.2615,1.2615,1.2018,1.1132,1.1132,1.1337,1.1565,1.1134,1.1736,1.2809,0.0,0.0,0.0,0.0,0.0,0.0,0.0,0.0,0.0,0.0,0.0,0.0,0.0,0.0,0.0,0.0,0.0,0.0,0.0,0.0,0.0,0.0,0.0,0.0,0.0,0.0,0.0,0.0,0.0,0.0,0.0,0.0,0.0,0.0,0.0,0.0,0.0,0.0,0.0,0.0,0.0,0.0,0.0,0.0,0.0,0.0,0.0,0.0,0.0,0.0,1.772,1.7337,1.7681,1.8048,1.8268,1.7912,1.8295,1.8745,1.8215,1.7946,1.7682,1.7189,1.6655,1.6191,1.5885,0.0,0.0,0.0,0.0,1.8876,1.9448,0.0,0.0,0.0,0.0,0.0,0.0,0.0,0.0,0.0,0.0,0.0,0.0,0.0,0.0,0.0,0.0,1.4752,1.3392,1.301,1.3373,1.4523,1.4974,1.4975,1.4495,1.5031,1.489,1.4086,1.4097,1.3946,1.3647,1.3323,1.3198,1.3223,1.3534,0.0,1.2875,1.3177,1.2647,1.1746,1.1678,1.1732,1.177,1.146,1.2016,1.2929,0.0,0.0,0.0,0.0,0.0,0.0,0.0,0.0,0.0,0.0,0.0,0.0,0.0,0.0,0.0,0.0,0.0,0.0,0.0,0.0,0.0,0.0,0.0,0.0,0.0,0.0,0.0,0.0,0.0,0.0,0.0,0.0,0.0,0.0,0.0,0.0,0.0,0.0,0.0,0.0,0.0,0.0,0.0,0.0,0.0,0.0,0.0,0.0,0.0,0.0,1.7824,1.7051,1.746,1.7635,1.7704,1.7789,1.7867,1.787,1.7599,1.7237,1.6823,1.6487,1.6087,1.5785,1.5846,1.6412,0.0,0.0,0.0,1.9076,1.9585,0.0,0.0,0.0,0.0,0.0,0.0,0.0,0.0,0.0,0.0,0.0,0.0,0.0,0.0,0.0,0.0,0.0,1.4473,1.4123,1.4687,1.625,1.6005,1.579,1.5694,1.5798,1.548,1.4727,1.4412,1.4135,1.3896,1.3433,1.3261,1.3433,1.3896,0.0,0.0,1.3643,1.3219,1.2254,1.233,1.2278,1.2199,1.2214,1.2675,1.3302,0.0,0.0,0.0,0.0,0.0,0.0,0.0,0.0,0.0,0.0,0.0,0.0,0.0,0.0,0.0,0.0,0.0,0.0,0.0,0.0,0.0,0.0,0.0,0.0,0.0,0.0,0.0,0.0,0.0,0.0,0.0,0.0,0.0,0.0,0.0,0.0,0.0,0.0,0.0,0.0,0.0,0.0,0.0,0.0,0.0,0.0,0.0,0.0,0.0,0.0,0.0,1.7455,1.704,1.7101,1.7415,1.7704,0.0,0.0,1.831,1.7802,1.7177,1.6832,1.6172,1.5698,1.5997,0.0,0.0,0.0,1.9136,1.9615,1.9675,1.9151,0.0,0.0,0.0,0.0,0.0,0.0,0.0,0.0,0.0,0.0,0.0,0.0,0.0,0.0,0.0,0.0,1.5435,1.6225,1.6383,1.563,1.6473,1.6566,1.5694,1.6181,1.5668,1.4173,1.4626,1.4274,1.3273,1.3223,1.3509,1.4009,1.4072,0.0,0.0,1.3268,1.2657,1.1711,1.2256,1.3054,1.3876,1.3883,1.451,1.5408,0.0,0.0,0.0,0.0,0.0,0.0,0.0,0.0,0.0,0.0,0.0,0.0,0.0,0.0,0.0,0.0,0.0,0.0,0.0,0.0,0.0,0.0,0.0,0.0,0.0,0.0,0.0,0.0,0.0,0.0,0.0,0.0,0.0,0.0,0.0,0.0,0.0,0.0,0.0,0.0,0.0,0.0,0.0,0.0,0.0,0.0,0.0,0.0,0.0,0.0,0.0,0.0,1.7173,1.6863,0.0,0.0,1.7154,1.7019,1.6772,1.6108,1.5459,1.5437,1.4692,1.4232,1.5274,0.0,0.0,1.7951,1.8957,1.969,1.969,1.9465,1.9166,0.0,0.0,0.0,0.0,0.0,0.0,0.0,0.0,0.0,0.0,0.0,0.0,0.0,0.0,0.0,1.7457,1.7229,1.703,1.6951,1.7056,1.6959,1.6665,1.6232,1.5517,1.4576,1.4462,1.4186,1.3722,1.3722,1.406,1.4563,1.4538,0.0,0.0,1.3608,1.3322,1.301,1.3207,1.3795,1.4518,1.4518,1.5032,1.5693,0.0,0.0,0.0,0.0,0.0,0.0,0.0,0.0,0.0,0.0,0.0,0.0,0.0,0.0,0.0,0.0,0.0,0.0,0.0,0.0,0.0,0.0,0.0,0.0,0.0,0.0,0.0,0.0,0.0,0.0,0.0,0.0,0.0,0.0,0.0,0.0,0.0,0.0,0.0,0.0,0.0,0.0,0.0,0.0,0.0,0.0,0.0,0.0,0.0,0.0,0.0,0.0,0.0,0.0,0.0,0.0,1.6122,1.554,1.5164,1.45,1.3905,1.3837,1.3498,1.3463,0.0,0.0,1.6597,1.76,1.8708,1.953,1.969,1.9566,1.9294,0.0,0.0,0.0,0.0,0.0,0.0,0.0,0.0,0.0,0.0,0.0,0.0,0.0,0.0,0.0,0.0,1.818,1.7873,1.7906,1.7381,1.7151,1.7299,1.6245,1.5417,1.4903,1.4349,1.4085,1.4085,1.4085,1.44,1.4891,0.0,0.0,0.0,1.3903,1.379,1.3641,1.3647,1.4105,1.4808,1.5019,1.5421,1.5944,0.0,0.0,0.0,0.0,0.0,0.0,0.0,0.0,0.0,0.0,0.0,0.0,0.0,0.0,0.0,0.0,0.0,0.0,0.0,0.0,0.0,0.0,0.0,0.0,0.0,0.0,0.0,0.0,0.0,0.0,0.0,0.0,0.0,0.0,0.0,0.0,0.0,0.0,0.0,0.0,0.0,0.0,0.0,0.0,0.0,0.0,0.0,0.0,0.0,0.0,0.0,0.0,0.0,0.0,0.0,0.0,1.5169,1.4162,1.388,1.3416,1.29,1.2356,1.3041,1.3921,0.0,0.0,1.6641,1.7848,1.852,1.908,1.9603,1.9281,1.8893,1.8916,0.0,0.0,0.0,0.0,0.0,0.0,0.0,0.0,0.0,0.0,0.0,0.0,0.0,0.0,0.0,1.9316,1.9131,1.7935,1.7381,1.7151,1.7299,1.6245,1.5417,1.4903,1.4349,1.4085,1.4085,1.4085,1.437,0.0,0.0,0.0,0.0,1.4005,1.3674,1.3044,1.3126,1.388,1.485,1.5488,1.6032,1.6509,0.0,0.0,0.0,0.0,0.0,0.0,0.0,0.0,0.0,0.0,0.0,0.0,0.0,0.0,0.0,0.0,0.0,0.0,0.0,0.0,0.0,0.0,0.0,0.0,0.0,0.0,0.0,0.0,0.0,0.0,0.0,0.0,0.0,0.0,0.0,0.0,0.0,0.0,0.0,0.0,0.0,0.0,0.0,0.0,0.0,0.0,0.0,0.0,0.0,0.0,0.0,0.0,0.0,0.0,0.0,0.0,0.0,0.0,1.4351,1.3013,1.1795,1.2738,1.2396,1.2241,1.3674,0.0,1.5698,1.7135,1.7908,1.8419,1.8574,1.8458,1.824,1.7857,1.718,0.0,0.0,0.0,0.0,0.0,0.0,0.0,0.0,0.0,0.0,0.0,0.0,0.0,0.0,1.9053,1.8605,1.7409,1.7633,1.7289,1.6232,1.5524,1.489,1.4337,1.4173,1.4085,1.4097,1.4475,0.0,0.0,0.0,0.0,0.0,1.3125,1.3097,1.3652,1.3759,1.4474,1.5484,1.6036,1.6371,1.6522,0.0,0.0,0.0,0.0,0.0,0.0,0.0,0.0,0.0,0.0,0.0,0.0,0.0,0.0,0.0,0.0,0.0,0.0,0.0,0.0,0.0,0.0,0.0,0.0,0.0,0.0,0.0,0.0,0.0,0.0,0.0,0.0,0.0,0.0,0.0,0.0,0.0,0.0,0.0,0.0,0.0,0.0,0.0,0.0,0.0,0.0,0.0,0.0,0.0,0.0,0.0,0.0,0.0,0.0,0.0,0.0,0.0,0.0,0.0,1.248,1.1313,1.1929,1.1661,0.0,0.0,0.0,1.4913,1.6255,1.7209,1.7867,1.8066,1.7947,1.7611,1.7062,0.0,0.0,0.0,0.0,0.0,0.0,0.0,0.0,0.0,0.0,0.0,0.0,0.0,0.0,0.0,1.8612,1.8159,1.7205,1.7366,1.693,1.5693,1.4979,1.4425,1.4085,1.3871,1.3883,1.4097,1.4437,0.0,0.0,0.0,0.0,0.0,1.3197,1.3194,1.364,1.396,1.4624,1.5495,1.6242,1.6616,1.6837,0.0,0.0,0.0,0.0,0.0,0.0,0.0,0.0,0.0,0.0,0.0,0.0,0.0,0.0,0.0,0.0,0.0,0.0,0.0,0.0,0.0,0.0,0.0,0.0,0.0,0.0,0.0,0.0,2.0516,2.0314,2.0265,0.0,0.0,0.0,0.0,0.0,0.0,0.0,0.0,0.0,0.0,0.0,0.0,0.0,0.0,0.0,0.0,0.0,0.0,0.0,0.0,0.0,0.0,0.0,0.0,0.0,0.0,0.0,0.0,0.0,0.0,0.0,0.0,0.0,0.0,0.0,0.0,0.0,1.6484,1.7394,1.7907,1.7585,1.7037,1.6384,0.0,0.0,0.0,0.0,0.0,0.0,0.0,0.0,0.0,0.0,0.0,0.0,0.0,0.0,0.0,1.8027,1.7787,1.7271,1.6718,1.6205,1.563,1.4626,1.406,1.3986,1.3511,1.3536,1.3998,1.4111,0.0,0.0,0.0,0.0,0.0,1.3968,1.3655,1.3229,1.393,1.4541,1.512,1.6205,1.693,1.7422,0.0,0.0,0.0,0.0,0.0,0.0,0.0,0.0,0.0,0.0,0.0,0.0,0.0,0.0,0.0,0.0,0.0,0.0,0.0,0.0,0.0,0.0,0.0,0.0,0.0,0.0,0.0,2.0991,2.0516,2.0314,2.0299,1.9482,0.0,0.0,0.0,0.0,0.0,0.0,0.0,0.0,0.0,0.0,0.0,0.0,0.0,0.0,1.7579,1.7639,0.0,0.0,0.0,0.0,0.0,0.0,0.0,0.0,0.0,0.0,0.0,0.0,0.0,0.0,0.0,0.0,0.0,0.0,0.0,0.0,0.0,1.671,1.6837,1.6752,1.6358,0.0,0.0,0.0,0.0,0.0,0.0,0.0,0.0,0.0,0.0,0.0,0.0,0.0,0.0,0.0,0.0,1.7504,1.7229,1.671,1.6176,1.564,1.5104,1.4425,1.3691,1.2878,1.3989,1.3914,1.2914,1.4093,0.0,0.0,0.0,0.0,1.3918,1.32,1.3191,1.3741,1.4949,1.5621,1.6109,1.7306,1.7824,1.7947,0.0,0.0,0.0,0.0,0.0,0.0,0.0,0.0,0.0,0.0,0.0,0.0,0.0,0.0,0.0,0.0,0.0,0.0,0.0,0.0,0.0,0.0,0.0,0.0,0.0,0.0,0.0,0.0,0.0,2.0159,0.0,0.0,0.0,0.0,0.0,0.0,0.0,0.0,0.0,0.0,0.0,0.0,0.0,0.0,0.0,0.0,1.7303,1.7352,0.0,1.5315,1.4413,1.4158,0.0,0.0,0.0,0.0,1.3815,0.0,0.0,0.0,0.0,0.0,0.0,0.0,0.0,0.0,0.0,0.0,0.0,0.0,1.6552,0.0,0.0,0.0,0.0,0.0,0.0,0.0,0.0,0.0,0.0,0.0,0.0,0.0,0.0,0.0,0.0,0.0,0.0,1.6909,1.6795,1.6522,1.5982,1.5555,1.5254,1.4739,1.4163,1.3606,1.4462,1.4284,1.3219,1.4353,1.4545,0.0,0.0,0.0,1.4368,1.3561,1.3784,1.4798,1.6008,1.661,1.6895,1.803,1.8458,1.8496,0.0,0.0,0.0,0.0,0.0,0.0,0.0,0.0,0.0,0.0,0.0,0.0,0.0,0.0,0.0,0.0,0.0,0.0,0.0,0.0,0.0,0.0,0.0,0.0,0.0,0.0,0.0,0.0,0.0,0.0,0.0,0.0,0.0,0.0,0.0,0.0,0.0,0.0,0.0,0.0,0.0,0.0,0.0,0.0,0.0,0.0,0.0,0.0,0.0,1.5315,1.4144,1.3536,1.3243,0.0,0.0,0.0,0.0,0.0,0.0,0.0,0.0,0.0,0.0,0.0,0.0,0.0,0.0,0.0,0.0,0.0,0.0,0.0,0.0,0.0,0.0,0.0,0.0,0.0,0.0,0.0,0.0,0.0,0.0,0.0,0.0,0.0,0.0,0.0,0.0,1.6522,1.6522,1.6522,1.607,1.5819,1.5819,1.5191,1.4864,1.4787,1.4835,1.4548,1.3917,1.4469,1.4505,1.4104,0.0,0.0,1.4989,1.4523,1.4943,1.5925,1.7089,1.7538,1.765,1.8662,1.9006,1.9095,0.0,0.0,0.0,0.0,0.0,0.0,0.0,0.0,0.0,0.0,0.0,0.0,0.0,0.0,0.0,0.0,0.0,0.0,0.0,0.0,0.0,0.0,0.0,0.0,0.0,0.0,0.0,0.0,0.0,0.0,1.8282,1.6828,1.6061,0.0,0.0,0.0,0.0,0.0,0.0,0.0,0.0,0.0,0.0,0.0,0.0,0.0,0.0,0.0,0.0,1.5525,1.4028,1.2747,1.3523,0.0,0.0,0.0,0.0,0.0,1.5163,1.5226,0.0,0.0,0.0,0.0,0.0,0.0,0.0,0.0,0.0,0.0,0.0,0.0,0.0,0.0,0.0,0.0,0.0,0.0,0.0,0.0,0.0,0.0,0.0,0.0,0.0,0.0,0.0,0.0,0.0,1.6522,1.6522,1.6522,1.6434,1.6396,1.6396,1.5379,1.4658,1.4229,1.4629,1.4275,1.3324,1.3837,1.4286,1.4624,0.0,1.4088,1.5567,1.5552,1.5789,1.6385,1.8003,1.8592,1.8554,1.9328,1.9566,1.9603,0.0,0.0,0.0,0.0,0.0,0.0,0.0,0.0,0.0,0.0,0.0,0.0,0.0,0.0,0.0,0.0,0.0,0.0,0.0,0.0,0.0,0.0,0.0,0.0,0.0,0.0,0.0,0.0,0.0,1.8796,1.7844,1.5881,1.4712,1.428,0.0,0.0,0.0,0.0,0.0,0.0,0.0,0.0,0.0,0.0,0.0,0.0,0.0,0.0,0.0,0.0,1.3561,1.2458,1.2916,0.0,0.0,0.0,0.0,0.0,1.6191,1.661,1.6867,0.0,0.0,0.0,0.0,0.0,0.0,0.0,0.0,0.0,0.0,0.0,0.0,0.0,0.0,0.0,0.0,0.0,0.0,0.0,0.0,0.0,0.0,0.0,0.0,0.0,0.0,0.0,0.0,0.0,1.6522,1.6522,1.6522,1.6522,1.6522,1.6019,1.562,1.5401,1.5629,1.5307,1.4534,1.505,1.5112,1.4796,0.0,1.4918,1.6099,1.5887,1.657,1.778,1.8587,1.9031,1.9271,1.957,1.969,1.969,0.0,0.0,0.0,0.0,0.0,0.0,0.0,0.0,0.0,0.0,0.0,0.0,0.0,0.0,0.0,0.0,0.0,0.0,0.0,0.0,0.0,0.0,0.0,0.0,0.0,0.0,0.0,1.9631,1.9356,1.8514,1.7149,1.502,1.3862,0.0,0.0,0.0,0.0,0.0,0.0,0.0,0.0,0.0,0.0,0.0,0.0,0.0,0.0,0.0,0.0,0.0,0.0,0.0,0.0,0.0,0.0,0.0,1.4929,1.5734,1.6782,1.7481,1.7878,0.0,0.0,1.6059,1.5885,0.0,0.0,0.0,0.0,0.0,0.0,0.0,0.0,0.0,0.0,0.0,0.0,0.0,0.0,0.0,0.0,0.0,0.0,0.0,0.0,0.0,0.0,0.0,0.0,0.0,1.6522,1.6522,1.6522,1.6522,1.6522,1.6522,1.6522,1.6522,1.638,1.6051,1.562,1.5929,1.5679,1.5017,1.5252,1.5881,1.6679,1.656,1.7443,1.8893,1.9043,1.9244,1.953,1.953,1.9442,1.9332,0.0,0.0,0.0,0.0,0.0,0.0,0.0,0.0,0.0,0.0,0.0,0.0,0.0,0.0,0.0,0.0,0.0,0.0,0.0,0.0,0.0,0.0,0.0,0.0,0.0,2.0261,2.0108,1.8792,1.9135,1.8059,1.5622,1.4563,1.4337,0.0,0.0,0.0,0.0,0.0,0.0,0.0,0.0,0.0,0.0,0.0,0.0,0.0,0.0,0.0,0.0,0.0,0.0,0.0,0.0,0.0,0.0,0.0,1.4376,1.5703,1.6231,1.7134,1.7884,1.7759,0.0,0.0,1.7659,0.0,0.0,0.0,0.0,0.0,0.0,0.0,0.0,0.0,0.0,0.0,0.0,0.0,0.0,0.0,0.0,0.0,0.0,0.0,0.0,0.0,0.0,0.0,0.0,0.0,0.0,1.6522,1.6522,1.6522,1.6522,1.6522,1.6522,1.6466,1.5908,1.5632,1.5564,1.5112,1.5136,1.5592,1.6143,1.6718,1.7328,1.8271,1.8774,1.8968,1.9442,1.9369,1.8968,1.8968,1.865,1.8224,0.0,0.0,0.0,0.0,0.0,0.0,0.0,0.0,0.0,0.0,0.0,0.0,0.0,0.0,0.0,0.0,0.0,0.0,0.0,0.0,0.0,0.0,0.0,2.0917,2.0624,2.0121,1.9616,1.9058,1.8082,1.709,1.6034,1.4703,0.0,0.0,0.0,0.0,0.0,0.0,0.0,0.0,0.0,0.0,0.0,0.0,0.0,0.0,0.0,0.0,0.0,0.0,0.0,0.0,0.0,0.0,0.0,0.0,1.5118,1.6127,1.6268,1.7327,1.8283,1.7814,0.0,0.0,0.0,0.0,0.0,0.0,0.0,0.0,0.0,0.0,0.0,0.0,0.0,0.0,0.0,0.0,0.0,0.0,0.0,0.0,0.0,0.0,0.0,0.0,0.0,0.0,0.0,0.0,0.0,1.6522,1.6522,1.668,1.6993,1.6993,1.7146,1.7463,1.66,1.6151,1.6139,1.5942,1.6168,1.6659,1.6911,1.7504,1.8341,1.8727,1.9095,1.9369,1.9244,1.908,1.8855,1.8535,1.8263,1.8106,0.0,0.0,0.0,0.0,0.0,0.0,0.0,0.0,0.0,0.0,0.0,0.0,0.0,0.0,0.0,0.0,0.0,0.0,0.0,0.0,0.0,0.0,0.0,2.1092,2.1251,1.9856,1.925,1.9447,1.7433,1.6514,1.6578,0.0,0.0,0.0,0.0,0.0,0.0,0.0,0.0,0.0,0.0,0.0,0.0,0.0,0.0,0.0,0.0,0.0,0.0,0.0,0.0,0.0,0.0,0.0,0.0,0.0,0.0,1.5806,1.5896,1.7137,0.0,0.0,0.0,0.0,0.0,0.0,0.0,0.0,0.0,0.0,0.0,0.0,0.0,0.0,0.0,0.0,0.0,0.0,0.0,0.0,0.0,0.0,0.0,0.0,0.0,0.0,0.0,0.0,0.0,0.0,0.0,0.0,1.668,1.6909,1.7312,1.7463,1.7747,1.8106,1.7353,1.6909,1.6752,1.6752,1.6951,1.7312,1.7463,1.8066,1.8893,1.8893,1.9006,1.9169,1.8779,1.8535,1.8341,1.7987,1.7747,1.7585,0.0,0.0,0.0,0.0,0.0,0.0,0.0,0.0,0.0,0.0,0.0,0.0,0.0,0.0,0.0,0.0,0.0,0.0,0.0,0.0,0.0,0.0,0.0,2.1318,2.0944,1.9545,1.9127,1.9795,1.7371,1.6501,1.7093,0.0,0.0,0.0,0.0,0.0,0.0,0.0,0.0,0.0,0.0,0.0,0.0,0.0,0.0,0.0,0.0,0.0,0.0,0.0,0.0,0.0,0.0,0.0,0.0,0.0,1.3769,1.461,1.4982,1.6356,0.0,0.0,0.0,0.0,0.0,0.0,0.0,0.0,0.0,0.0,0.0,0.0,0.0,0.0,0.0,0.0,0.0,0.0,0.0,0.0,0.0,0.0,0.0,0.0,0.0,0.0,0.0,0.0,0.0,0.0,0.0,0.0,1.7034,1.7312,1.7312,1.7827,1.8106,1.8145,1.8106,1.7827,1.7312,1.7312,1.7312,1.7353,1.7867,1.8419,1.8893,1.8893,1.8574,1.8106,1.8106,1.7787,1.7312,1.7312,1.6951,1.6522,0.0,0.0,0.0,0.0,0.0,0.0,0.0,0.0,0.0,0.0,0.0,0.0,0.0,0.0,0.0,0.0,0.0,0.0,0.0,0.0,0.0,0.0,0.0,0.0,0.0,0.0,1.9595,1.8042,1.6514,1.6288,0.0,0.0,0.0,1.778,0.0,0.0,0.0,0.0,0.0,0.0,0.0,0.0,0.0,0.0,0.0,0.0,0.0,0.0,0.0,0.0,0.0,0.0,0.0,0.0,0.0,1.3542,1.4386,1.5301,1.5687,0.0,0.0,0.0,0.0,0.0,0.0,0.0,0.0,0.0,0.0,0.0,0.0,0.0,0.0,0.0,0.0,0.0,0.0,0.0,0.0,0.0,0.0,0.0,0.0,0.0,0.0,0.0,0.0,0.0,0.0,0.0,0.0,0.0,1.7787,1.8027,1.8419,1.8574,1.8855,1.9207,1.8855,1.838,1.7867,1.7463,1.7504,1.7867,1.7626,1.7827,1.8341,1.8341,1.8263,1.8066,1.7666,1.7422,1.7229,1.6879,1.6637,1.6522,0.0,0.0,0.0,0.0,0.0,0.0,0.0,0.0,0.0,0.0,0.0,0.0,0.0,0.0,0.0,0.0,0.0,0.0,0.0,0.0,0.0,0.0,0.0,0.0,0.0,2.087,1.9285,0.0,0.0,0.0,0.0,0.0,0.0,1.8231,0.0,0.0,0.0,0.0,0.0,0.0,0.0,0.0,0.0,0.0,0.0,0.0,0.0,0.0,0.0,0.0,0.0,0.0,0.0,0.0,0.0,1.3688,1.4132,1.4692,1.5242,0.0,0.0,0.0,0.0,0.0,0.0,0.0,0.0,0.0,0.0,0.0,0.0,0.0,0.0,0.0,0.0,0.0,0.0,0.0,0.0,0.0,0.0,0.0,0.0,0.0,0.0,0.0,0.0,0.0,0.0,0.0,0.0,0.0,1.8302,1.8574,1.8893,1.9132,1.9281,1.9369,1.9043,1.8612,1.8066,1.7544,1.7463,1.7787,1.7666,1.7666,1.7787,1.7787,1.7666,1.7422,1.7118,1.6993,1.6951,1.6637,1.6522,1.6522,0.0,0.0,0.0,0.0,0.0,0.0,0.0,0.0,0.0,0.0,0.0,0.0,0.0,0.0,0.0,0.0,0.0,0.0,0.0,0.0,0.0,0.0,0.0,0.0,0.0,0.0,0.0,0.0,0.0,0.0,0.0,0.0,1.6992,1.8159,0.0,1.6551,0.0,0.0,0.0,0.0,0.0,0.0,0.0,0.0,0.0,0.0,0.0,0.0,0.0,0.0,0.0,0.0,0.0,0.0,1.3914,1.3615,1.3474,0.0,0.0,0.0,0.0,0.0,0.0,0.0,0.0,0.0,0.0,0.0,0.0,0.0,0.0,0.0,0.0,0.0,0.0,0.0,0.0,0.0,0.0,0.0,0.0,0.0,0.0,0.0,0.0,0.0,0.0,0.0,0.0,0.0,0.0,1.8263,1.8727,1.8968,1.8893,1.9369,1.9369,1.8817,1.8779,1.8496,1.8027,1.7504,1.7271,1.7229,1.7747,1.7666,1.7229,1.7229,1.6951,1.6522,1.6522,1.6522,1.6522,1.6522,1.6522,1.6522,0.0,0.0,0.0,0.0,0.0,0.0,0.0,0.0,0.0,0.0,0.0,0.0,0.0,0.0,0.0,0.0,0.0,0.0,0.0,0.0,0.0,0.0,0.0,0.0,0.0,0.0,0.0,0.0,0.0,0.0,0.0,0.0,0.0,1.7776,0.0,1.6963,0.0,0.0,0.0,0.0,0.0,0.0,0.0,0.0,0.0,0.0,0.0,0.0,0.0,0.0,0.0,0.0,1.2306,1.3098,1.4411,1.383,1.4328,0.0,0.0,0.0,0.0,0.0,0.0,0.0,0.0,0.0,0.0,0.0,0.0,0.0,0.0,0.0,0.0,0.0,0.0,0.0,0.0,0.0,0.0,0.0,0.0,0.0,0.0,0.0,0.0,0.0,0.0,0.0,0.0,0.0,0.0,1.9332,1.9479,1.9332,1.8893,1.9006,1.8817,0.0,1.7867,1.7585,1.7463,1.7353,1.7076,1.668,1.6795,1.6795,1.668,1.668,1.6595,1.6522,1.6522,1.6522,1.6522,1.6522,1.6522,1.6584,0.0,0.0,0.0,0.0,0.0,0.0,0.0,0.0,0.0,0.0,0.0,0.0,0.0,0.0,0.0,0.0,0.0,0.0,0.0,0.0,0.0,0.0,0.0,0.0,0.0,0.0,0.0,0.0,0.0,0.0,0.0,0.0,0.0,1.7238,0.0,1.7024,0.0,0.0,0.0,0.0,0.0,0.0,0.0,0.0,0.0,0.0,1.3374,0.0,0.0,0.0,0.0,0.0,0.0,0.0,1.4498,1.4032,0.0,0.0,0.0,0.0,0.0,0.0,0.0,0.0,0.0,0.0,0.0,0.0,0.0,0.0,0.0,0.0,0.0,0.0,0.0,0.0,0.0,0.0,0.0,0.0,0.0,0.0,0.0,0.0,0.0,0.0,0.0,0.0,0.0,1.9442,1.9281,1.9332,1.9332,1.9043,1.8535,1.8535,1.8263,1.7706,1.7422,1.7146,1.6909,1.6909,1.6752,1.6522,1.6522,1.6522,1.6522,1.6522,1.6522,1.6522,1.6522,1.6522,1.6559,1.6823,1.6936,1.7011,0.0,0.0,0.0,0.0,0.0,0.0,0.0,0.0,0.0,0.0,0.0,0.0,0.0,0.0,0.0,0.0,0.0,0.0,0.0,0.0,0.0,0.0,0.0,0.0,0.0,0.0,0.0,0.0,0.0,0.0,0.0,0.0,0.0,1.6885,0.0,0.0,0.0,0.0,0.0,0.0,0.0,0.0,0.0,0.0,0.0,0.0,1.3405,1.3803,1.4386,1.29,0.0,0.0,0.0,0.0,1.4651,0.0,0.0,0.0,0.0,0.0,0.0,0.0,0.0,0.0,0.0,0.0,0.0,0.0,0.0,0.0,0.0,0.0,0.0,0.0,0.0,0.0,0.0,0.0,0.0,0.0,0.0,0.0,0.0,0.0,0.0,0.0,0.0,0.0,1.969,1.9603,1.9369,1.8893,1.8817,1.8496,1.7987,1.7947,1.7706,1.7146,1.7146,1.6909,1.6522,1.6522,1.6522,1.6522,1.6522,1.6522,1.6522,1.6522,1.6572,1.6672,1.6672,1.6722,1.6861,1.735,1.7468,1.7405,0.0,0.0,0.0,0.0,0.0,0.0,0.0,0.0,0.0,0.0,0.0,0.0,0.0,0.0,0.0,0.0,0.0,0.0,0.0,0.0,0.0,0.0,0.0,0.0,0.0,0.0,0.0,0.0,0.0,0.0,0.0,0.0,0.0,0.0,0.0,0.0,0.0,0.0,0.0,0.0,0.0,0.0,0.0,0.0,0.0,0.0,1.3915,1.4119,1.4456,1.2986,1.3204,0.0,0.0,0.0,0.0,0.0,0.0,0.0,0.0,0.0,0.0,0.0,0.0,0.0,0.0,0.0,0.0,0.0,0.0,0.0,0.0,0.0,0.0,0.0,0.0,0.0,0.0,0.0,0.0,0.0,0.0,0.0,0.0,0.0,0.0,0.0,0.0,0.0,1.969,1.9244,1.8968,1.8893,1.8458,1.7947,1.7435,1.7435,1.7146,1.6595,1.6595,1.6552,1.6522,1.6522,1.6522,1.6522,1.6522,1.6522,1.6522,1.6522,1.681,1.7262,1.7262,1.7551,1.799,1.8066,1.7675,1.7231,0.0,0.0,0.0,0.0,0.0,0.0,0.0,0.0,0.0,0.0,0.0,0.0,0.0,0.0,0.0,0.0,0.0,0.0,0.0,0.0,0.0,0.0,0.0,0.0,0.0,0.0,0.0,0.0,0.0,0.0,0.0,1.7191,1.724,0.0,0.0,0.0,0.0,0.0,0.0,0.0,0.0,0.0,0.0,0.0,0.0,0.0,0.0,1.4322,1.4366,1.2893,1.2936,1.3623,1.3757,0.0,0.0,0.0,0.0,0.0,0.0,0.0,0.0,0.0,0.0,0.0,0.0,0.0,0.0,0.0,0.0,0.0,0.0,0.0,0.0,0.0,0.0,0.0,0.0,0.0,0.0,0.0,0.0,0.0,0.0,0.0,0.0,0.0,0.0,1.9566,1.9281,1.9043,1.8612,1.8027,1.7787,1.7394,1.6879,1.6837,1.657,1.6008,1.6008,1.6008,1.6008,1.6008,1.6194,1.6522,1.6522,1.6697,1.6999,1.6999,1.7338,1.784,1.784,1.799,1.8242,1.8555,1.8179,1.7618,0.0,0.0,0.0,0.0,0.0,0.0,0.0,0.0,0.0,0.0,0.0,0.0,0.0,0.0,0.0,0.0,0.0,0.0,0.0,0.0,0.0,0.0,0.0,0.0,0.0,0.0,0.0,0.0,0.0,0.0,1.6942,1.7432,1.7408,0.0,1.7542,0.0,0.0,0.0,0.0,0.0,0.0,0.0,0.0,0.0,0.0,0.0,0.0,1.4379,1.4242,1.3198,1.2936,1.3194,1.3849,1.4244,0.0,0.0,0.0,0.0,0.0,0.0,0.0,0.0,0.0,0.0,0.0,0.0,0.0,0.0,0.0,0.0,0.0,0.0,0.0,0.0,0.0,0.0,0.0,0.0,0.0,0.0,0.0,0.0,0.0,0.0,0.0,0.0,0.0,1.9332,1.893,1.865,1.8145,1.7353,1.7146,1.6909,1.6522,1.6337,1.6051,1.5588,1.5454,1.5365,1.5365,1.5543,1.5804,1.6215,1.6548,1.6986,1.7388,1.7539,1.7915,1.8405,1.8405,1.8493,1.8607,1.8871,1.8476,1.7868,0.0,0.0,0.0,0.0,0.0,0.0,0.0,0.0,0.0,0.0,0.0,0.0,0.0,0.0,0.0,0.0,0.0,0.0,0.0,0.0,0.0,0.0,0.0,0.0,0.0,0.0,0.0,0.0,0.0,0.0,1.7256,1.732,1.732,1.7296,1.7658,1.7595,1.7296,0.0,0.0,0.0,0.0,0.0,0.0,0.0,0.0,0.0,0.0,0.0,1.4156,1.4329,1.3654,1.2996,1.4525,1.4702,0.0,0.0,0.0,0.0,0.0,0.0,0.0,0.0,0.0,0.0,0.0,0.0,0.0,0.0,0.0,0.0,0.0,0.0,0.0,0.0,0.0,0.0,0.0,0.0,0.0,0.0,0.0,0.0,0.0,0.0,0.0,0.0,0.0,1.893,1.8893,1.7947,1.7353,1.7312,1.6795,1.6522,1.6522,1.5908,1.5632,1.5588,1.5017,1.4744,1.4744,1.532,1.5532,1.5429,1.6788,1.735,1.7426,1.7953,1.848,1.8933,1.8933,1.9284,1.962,1.8931,1.824,1.7544,0.0,0.0,0.0,0.0,0.0,0.0,0.0,0.0,0.0,0.0,0.0,0.0,0.0,0.0,0.0,0.0,0.0,0.0,0.0,0.0,0.0,0.0,0.0,0.0,0.0,0.0,0.0,0.0,0.0,1.6421,1.667,1.6876,1.6977,1.6977,1.732,1.7296,1.6952,1.6747,0.0,0.0,0.0,0.0,0.0,0.0,0.0,0.0,0.0,0.0,0.0,1.447,0.0,0.0,0.0,0.0,0.0,0.0,0.0,0.0,0.0,0.0,0.0,0.0,0.0,0.0,0.0,0.0,0.0,0.0,0.0,0.0,0.0,0.0,0.0,0.0,0.0,0.0,0.0,0.0,0.0,0.0,0.0,0.0,0.0,0.0,0.0,0.0,0.0,0.0,1.7907,1.7504,1.6967,1.6232,1.6411,1.6522,1.6522,1.5908,1.541,1.5017,1.4422,1.4247,1.4489,1.4718,1.5415,1.6497,1.7338,1.7702,1.7763,1.8436,1.9045,1.9522,1.9522,1.9635,1.9695,1.898,1.8221,1.7468,0.0,0.0,0.0,0.0,0.0,0.0,0.0,0.0,0.0,0.0,0.0,0.0,0.0,0.0,0.0,0.0,0.0,0.0,0.0,0.0,0.0,0.0,0.0,0.0,0.0,0.0,0.0,0.0,0.0,0.0,0.0,0.0,1.6633,1.6633,1.6876,0.0,0.0,0.0,0.0,1.5446,0.0,0.0,1.416,0.0,0.0,0.0,0.0,0.0,0.0,0.0,0.0,0.0,0.0,0.0,0.0,0.0,0.0,0.0,0.0,0.0,0.0,0.0,0.0,0.0,0.0,0.0,0.0,0.0,0.0,0.0,0.0,0.0,0.0,0.0,0.0,0.0,0.0,0.0,0.0,0.0,0.0,0.0,0.0,0.0,0.0,0.0,0.0,0.0,1.705,1.6828,1.6361,1.5632,1.6008,1.6293,1.6522,1.5688,1.5096,1.4709,1.3873,1.3659,1.3897,1.4239,1.5131,1.6528,1.7502,1.8044,1.8333,1.8995,1.9497,1.9798,1.9798,1.9798,1.9695,1.8715,1.8004,1.7468,0.0,0.0,0.0,0.0,0.0,0.0,0.0,0.0,0.0,0.0,0.0,0.0,0.0,0.0,0.0,0.0,0.0,0.0,0.0,0.0,0.0,0.0,0.0,0.0,0.0,0.0,0.0,0.0,0.0,0.0,0.0,0.0,1.6313,0.0,1.6313,1.6313,1.6313,0.0,1.6065,1.5707,0.0,1.5087,1.4761,0.0,0.0,0.0,1.5001,1.5335,0.0,0.0,0.0,0.0,0.0,0.0,0.0,0.0,0.0,0.0,0.0,0.0,0.0,0.0,0.0,0.0,0.0,0.0,0.0,0.0,0.0,0.0,0.0,0.0,0.0,0.0,0.0,0.0,0.0,0.0,0.0,0.0,0.0,0.0,0.0,0.0,0.0,0.0,0.0,1.6995,1.6434,1.584,1.5543,1.5588,1.5588,1.5864,1.6466,1.5287,1.4709,1.4663,1.3488,1.29,1.2959,1.3928,1.4702,1.5309,1.7071,1.8297,1.8995,1.9572,1.9786,1.9761,1.9773,1.9773,1.9554,1.8089,1.7556,1.7357,0.0,0.0,0.0,0.0,0.0,0.0,0.0,0.0,0.0,0.0,0.0,0.0,0.0,0.0,0.0,0.0,0.0,0.0,0.0,0.0,0.0,0.0,0.0,0.0,0.0,0.0,0.0,0.0,0.0,0.0,0.0,0.0,0.0,0.0,1.6659,1.6659,1.6633,1.6136,0.0,0.0,1.4769,1.489,0.0,0.0,0.0,0.0,0.0,1.6435,0.0,0.0,1.7138,1.6651,0.0,0.0,0.0,0.0,0.0,0.0,1.7683,0.0,0.0,0.0,0.0,0.0,0.0,0.0,0.0,0.0,0.0,0.0,0.0,0.0,0.0,0.0,0.0,0.0,0.0,0.0,0.0,0.0,0.0,0.0,0.0,0.0,0.0,0.0,1.6689,1.6015,1.584,1.4858,1.4675,1.5588,1.5186,1.5242,1.582,1.5062,1.4468,1.4061,1.356,1.334,1.335,1.3906,1.4821,1.5974,1.6474,1.7345,1.8505,1.9422,1.9346,1.8681,1.9083,1.8919,1.831,1.7361,1.695,1.6652,0.0,0.0,0.0,0.0,0.0,0.0,0.0,0.0,0.0,0.0,0.0,0.0,0.0,0.0,0.0,0.0,0.0,0.0,0.0,0.0,0.0,0.0,0.0,0.0,0.0,0.0,0.0,0.0,0.0,0.0,0.0,0.0,0.0,0.0,0.0,0.0,0.0,0.0,0.0,0.0,1.5308,0.0,0.0,1.5959,1.6496,0.0,0.0,0.0,1.7321,1.7711,1.761,0.0,0.0,0.0,0.0,0.0,0.0,0.0,0.0,0.0,0.0,0.0,0.0,0.0,0.0,1.8743,0.0,0.0,0.0,0.0,0.0,0.0,0.0,0.0,0.0,0.0,0.0,0.0,0.0,0.0,0.0,0.0,0.0,0.0,0.0,1.7312,1.6232,1.5365,1.4858,1.4179,1.4226,1.5186,1.5152,1.5377,1.5952,1.5152,1.4514,1.4143,1.3549,1.3242,1.3262,1.3682,1.4471,1.5526,1.5723,1.6402,1.7503,1.8413,1.8548,1.8242,1.8555,1.8253,1.7594,1.7035,1.6417,1.5873,0.0,0.0,0.0,0.0,0.0,0.0,0.0,0.0,0.0,0.0,0.0,0.0,0.0,0.0,0.0,0.0,0.0,0.0,0.0,0.0,0.0,0.0,0.0,0.0,0.0,0.0,0.0,0.0,0.0,0.0,0.0,0.0,0.0,0.0,0.0,0.0,0.0,0.0,0.0,1.7007,1.6555,1.6786,0.0,0.0,1.849,0.0,1.8917,1.8599,1.7978,1.7912,1.7662,0.0,0.0,0.0,0.0,0.0,1.7272,0.0,0.0,0.0,0.0,0.0,0.0,0.0,1.8028,1.8866,1.9462,0.0,0.0,0.0,0.0,0.0,0.0,0.0,0.0,0.0,0.0,0.0,0.0,0.0,0.0,0.0,0.0,1.7867,1.7271,1.7133,1.6058,1.4949,1.3862,1.3815,1.4097,1.4789,1.532,1.5864,1.638,1.5242,1.4652,1.4617,1.3532,1.2969,1.29,1.3359,1.3902,1.4556,1.4908,1.5532,1.6359,1.6896,1.7459,1.8028,1.8091,1.77,1.7047,1.6723,1.5962,1.5039,0.0,0.0,0.0,0.0,0.0,0.0,0.0,0.0,0.0,0.0,0.0,0.0,0.0,0.0,0.0,0.0,0.0,0.0,0.0,0.0,0.0,0.0,0.0,0.0,0.0,0.0,0.0,0.0,0.0,0.0,0.0,0.0,0.0,0.0,0.0,0.0,0.0,0.0,0.0,1.8442,1.7827,0.0,1.7903,1.8903,1.9077,1.893,1.9841,1.9511,1.8617,0.0,1.8211,1.7685,0.0,0.0,0.0,0.0,0.0,0.0,0.0,0.0,0.0,0.0,0.0,0.0,1.948,1.9541,1.918,0.0,0.0,0.0,0.0,0.0,0.0,0.0,0.0,0.0,0.0,0.0,0.0,0.0,0.0,0.0,0.0,1.7435,1.6925,1.6015,1.4812,1.405,1.3815,1.3815,1.4318,1.541,1.5543,1.5676,1.5764,1.5062,1.4468,1.3967,1.3892,1.3535,1.291,1.3662,1.3972,1.3952,1.4047,1.4724,1.5754,1.5894,1.628,1.6886,1.7363,1.6797,1.5669,1.5624,1.5054,1.4291,0.0,0.0,0.0,0.0,0.0,0.0,0.0,0.0,0.0,0.0,0.0,0.0,0.0,0.0,0.0,0.0,0.0,0.0,0.0,0.0,0.0,0.0,0.0,0.0,0.0,0.0,0.0,0.0,0.0,0.0,0.0,0.0,0.0,0.0,0.0,0.0,0.0,0.0,1.8069,1.8698,1.8091,0.0,1.9279,2.003,2.0312,2.0283,2.0641,1.9892,1.8702,1.8561,1.8087,0.0,0.0,1.7322,1.6789,0.0,1.6917,1.7052,0.0,0.0,0.0,1.863,0.0,0.0,0.0,1.9735,1.9389,0.0,0.0,0.0,0.0,0.0,0.0,0.0,0.0,0.0,0.0,0.0,0.0,0.0,0.0,0.0,0.0,1.6348,1.5652,1.4767,1.4133,1.3684,1.3372,1.392,1.4514,1.5141,1.5732,1.5908,1.5588,1.5017,1.4376,1.3779,1.3591,1.3291,1.29,1.332,1.3462,1.3324,1.3324,1.4061,1.5141,1.4824,1.5231,1.6076,1.6357,1.5718,1.4568,1.4796,1.4273,1.3545,0.0,0.0,0.0,0.0,0.0,0.0,0.0,0.0,0.0,0.0,0.0,0.0,0.0,0.0,0.0,0.0,0.0,0.0,0.0,0.0,0.0,0.0,0.0,2.231,0.0,0.0,0.0,0.0,0.0,0.0,0.0,0.0,0.0,0.0,0.0,0.0,0.0,0.0,0.0,1.9237,0.0,1.9292,2.035,2.0998,2.1278,2.122,2.0879,1.9955,1.8826,1.8433,0.0,1.739,1.754,1.7133,0.0,0.0,0.0,0.0,0.0,0.0,0.0,0.0,0.0,1.9639,0.0,0.0,0.0,0.0,0.0,0.0,0.0,0.0,0.0,0.0,0.0,0.0,0.0,0.0,0.0,0.0,0.0,0.0,0.0,1.5255,1.4428,1.3826,1.3768,1.3597,1.3248,1.4154,1.4789,1.5017,1.5976,1.6281,1.5776,1.5062,1.4468,1.3956,1.3329,1.2959,1.2881,1.2969,1.2959,1.2881,1.2881,1.3525,1.4468,1.4003,1.4365,1.5264,1.5365,1.4767,1.3858,1.4178,1.3726,1.293,0.0,0.0,0.0,0.0,0.0,0.0,0.0,0.0,0.0,0.0,0.0,0.0,0.0,0.0,0.0,0.0,0.0,0.0,2.3135,0.0,0.0,0.0,0.0,0.0,2.231,0.0,0.0,0.0,0.0,0.0,0.0,0.0,0.0,0.0,1.9186,0.0,0.0,0.0,2.0451,0.0,2.1644,2.0753,0.0,2.0963,2.0893,2.0082,1.9905,1.9737,1.948,0.0,1.8215,1.7569,0.0,1.6412,0.0,0.0,0.0,0.0,0.0,0.0,0.0,0.0,1.8726,0.0,0.0,0.0,0.0,0.0,0.0,0.0,0.0,0.0,0.0,0.0,0.0,0.0,0.0,0.0,0.0,0.0,0.0,0.0,0.0,0.0,1.4247,1.3847,1.3639,1.3838,1.4455,1.4606,1.5209,1.625,1.6423,1.6466,1.638,1.5242,1.4652,1.4571,1.3828,1.3242,1.2891,1.3271,1.3232,1.2881,1.2881,1.3286,1.392,1.3815,1.3862,1.405,1.4606,1.4376,1.3826,1.3831,1.346,1.2891,0.0,0.0,0.0,0.0,0.0,0.0,0.0,0.0,0.0,0.0,0.0,0.0,0.0,0.0,0.0,0.0,0.0,2.3566,0.0,0.0,0.0,0.0,0.0,0.0,0.0,0.0,0.0,0.0,2.231,0.0,0.0,0.0,0.0,0.0,1.9944,0.0,2.0063,0.0,0.0,0.0,0.0,0.0,0.0,2.1687,2.1657,2.087,2.0815,2.0483,2.0024,0.0,1.8755,0.0,0.0,0.0,0.0,0.0,0.0,0.0,0.0,0.0,0.0,0.0,0.0,0.0,0.0,0.0,2.0779,0.0,0.0,0.0,0.0,0.0,0.0,0.0,0.0,0.0,0.0,0.0,0.0,0.0,0.0,0.0,0.0,0.0,0.0,0.0,1.3412,1.3561,1.3631,1.434,1.4926,1.5433,1.6151,1.6151,1.5478,1.4926,1.434,1.3658,1.3293,1.3047,1.2891,1.3066,1.3047,1.2881,1.2881,1.3238,1.3768,1.342,1.3457,1.3779,1.3695,1.3515,1.3286,1.3286,1.3104,1.291,0.0,0.0,0.0,0.0,0.0,0.0,0.0,0.0,0.0,0.0,0.0,0.0,2.417,2.3774,0.0,0.0,0.0,2.3735,0.0,0.0,2.3212,0.0,0.0,0.0,0.0,0.0,0.0,0.0,0.0,0.0,0.0,0.0,0.0,0.0,0.0,2.0916,2.0989,0.0,0.0,2.2428,2.2094,2.1718,2.1439,2.1936,2.1888,2.1582,2.146,2.1039,2.0452,2.0264,1.9367,0.0,1.8392,0.0,0.0,0.0,0.0,0.0,1.7468,0.0,0.0,0.0,0.0,0.0,0.0,0.0,0.0,0.0,0.0,0.0,0.0,0.0,0.0,0.0,0.0,0.0,0.0,0.0,0.0,0.0,0.0,0.0,0.0,0.0,0.0,1.292,1.3379,1.3488,1.3182,1.4107,1.4789,1.4926,1.5976,1.602,1.4971,1.4789,1.4201,1.3152,1.2968,1.2881,1.2881,1.2881,1.2881,1.2881,1.2881,1.3152,1.3505,1.3055,1.3152,1.3505,1.3065,1.2881,1.2881,1.2881,1.2959,1.3096,0.0,2.3455,0.0,0.0,0.0,0.0,0.0,0.0,0.0,0.0,0.0,0.0,0.0,0.0,0.0,0.0,0.0,2.417,2.417,0.0,2.3671,0.0,0.0,0.0,0.0,0.0,0.0,0.0,0.0,0.0,0.0,0.0,0.0,0.0,0.0,2.1586,2.2868,2.2116,2.2685,2.4097,2.3764,2.3211,2.2488,0.0,2.1002,2.1552,2.115,0.0,0.0,2.0238,1.9981,0.0,0.0,0.0,0.0,0.0,0.0,0.0,0.0,0.0,0.0,1.9293,0.0,0.0,0.0,0.0,2.0401,0.0,0.0,0.0,0.0,0.0,0.0,0.0,0.0,0.0,0.0,0.0,0.0,0.0,0.0,0.0,0.0,0.0,0.0,1.2939,1.3643,1.3989,1.3773,1.4376,1.4971,1.5543,1.6194,1.6194,1.5588,1.5005,1.4376,1.3779,1.32,1.2881,1.2881,1.2881,1.2881,1.2881,1.2881,1.2929,1.2929,1.2929,1.2929,1.2929,1.2929,1.2881,1.2881,1.2881,1.3135,1.3486,0.0,0.0,0.0,0.0,0.0,0.0,0.0,2.4745,0.0,0.0,0.0,0.0,0.0,0.0,2.3976,0.0,0.0,2.419,2.419,2.3896,0.0,0.0,0.0,2.2695,0.0,0.0,0.0,0.0,0.0,0.0,0.0,0.0,0.0,0.0,0.0,2.2,0.0,0.0,0.0,0.0,0.0,2.2807,2.2392,0.0,0.0,2.2049,2.1915,2.1645,0.0,2.1152,2.0256,1.9367,1.9837,1.935,1.8749,1.9455,1.9667,0.0,0.0,0.0,2.0193,1.9881,0.0,0.0,0.0,0.0,0.0,0.0,0.0,0.0,0.0,0.0,0.0,0.0,0.0,0.0,0.0,0.0,0.0,0.0,0.0,0.0,0.0,0.0,0.0,1.2969,1.3398,1.3568,1.322,1.3789,1.4376,1.4971,1.5599,1.5599,1.5017,1.4789,1.4201,1.32,1.3017,1.2881,1.2881,1.2881,1.2881,1.2881,1.2881,1.2881,1.2881,1.2881,1.2881,1.2881,1.2881,1.2881,1.291,1.3193,1.3213,1.3174,2.5817,0.0,0.0,0.0,0.0,0.0,0.0,0.0,0.0,0.0,2.4377,0.0,2.419,0.0,2.3958,0.0,2.419,2.419,2.419,2.3996,0.0,2.3876,2.3346,0.0,0.0,0.0,0.0,0.0,0.0,2.2417,0.0,0.0,0.0,0.0,0.0,0.0,0.0,0.0,2.3267,0.0,0.0,2.2537,0.0,0.0,2.231,2.231,0.0,2.2106,2.1853,2.1853,2.0912,1.9848,2.0533,1.9924,1.911,1.9799,2.0187,2.0365,2.0069,2.0585,0.0,2.0568,2.1053,0.0,2.0524,0.0,0.0,0.0,0.0,0.0,0.0,0.0,0.0,0.0,0.0,0.0,0.0,0.0,0.0,0.0,0.0,0.0,0.0,0.0,1.4524,1.334,1.379,1.3862,0.0,0.0,1.419,1.4376,1.5186,1.5231,1.4376,1.4376,1.3884,1.2881,1.2881,1.2881,1.2881,1.2881,1.2881,1.2881,1.2881,1.2881,1.2881,1.2881,1.2881,1.2881,1.2881,1.2881,1.291,1.3184,1.3301,1.3428,0.0,0.0,0.0,0.0,2.6451,0.0,0.0,0.0,2.5932,0.0,2.4996,2.4428,2.4228,2.4227,2.419,2.4209,2.4227,0.0,2.419,2.419,0.0,0.0,2.3876,2.3692,2.3692,0.0,0.0,0.0,0.0,0.0,0.0,0.0,0.0,0.0,2.1937,0.0,2.3678,2.3176,2.3227,2.3588,2.2947,2.2527,2.231,2.231,2.231,2.231,2.231,2.231,2.231,2.231,2.1786,2.117,2.1237,2.0653,1.9968,2.0069,2.0636,2.1025,2.0306,2.067,2.1228,2.1177,0.0,0.0,0.0,0.0,1.8146,0.0,0.0,0.0,0.0,0.0,0.0,0.0,0.0,0.0,0.0,0.0,0.0,0.0,0.0,0.0,0.0,1.5317,1.5504,1.4105,1.4677,1.4731,0.0,0.0,1.4362,1.3815,1.4903,1.4949,1.3768,1.3768,1.3457,1.2832,1.2881,1.2881,1.2881,1.2881,1.2881,1.2832,1.2832,1.2832,1.2832,1.2832,1.2881,1.2881,1.2881,1.2881,1.2881,1.29,1.3447,1.4228,2.7824,2.7957,2.7979,0.0,2.7587,2.7396,0.0,0.0,0.0,0.0,2.4962,2.4321,2.441,2.4284,2.4247,2.441,2.4284,0.0,0.0,0.0,0.0,2.419,2.3876,2.3692,2.3692,2.3369,0.0,2.3566,0.0,0.0,2.3151,0.0,0.0,0.0,0.0,0.0,2.3638,2.2924,2.2761,2.2923,2.2554,2.236,0.0,0.0,2.231,2.231,2.231,2.231,2.231,2.231,2.1431,2.0517,2.1667,2.072,1.9519,2.1228,2.1465,2.1262,2.1634,2.187,2.1815,2.0888,2.0994,2.0975,0.0,0.0,0.0,0.0,0.0,0.0,0.0,0.0,0.0,0.0,0.0,0.0,0.0,0.0,0.0,0.0,0.0,0.0,0.0,1.5379,1.5152,1.5081,1.4414,1.3945,0.0,0.0,0.0,1.3789,1.4086,1.3888,1.3072,1.3569,1.3236,1.208,1.2618,1.2881,1.2881,1.2881,1.2608,1.208,1.208,1.208,1.208,1.208,1.2403,1.2881,1.2881,1.2881,1.292,1.3232,1.3887,1.4629,2.8776,0.0,0.0,2.9187,0.0,0.0,2.8936,0.0,0.0,2.7104,2.5862,0.0,2.5148,2.475,2.4478,2.4495,2.4393,0.0,0.0,0.0,0.0,2.419,2.4016,2.3917,2.3917,2.3735,0.0,2.3692,0.0,0.0,2.3459,0.0,0.0,0.0,0.0,2.3066,0.0,2.3012,2.2845,2.2898,2.259,0.0,0.0,2.2349,2.231,2.231,2.231,2.218,2.2032,2.2237,2.1143,1.9913,2.0988,2.0196,1.9147,2.0433,2.0991,2.1305,2.1701,2.2057,2.2136,2.1468,2.1302,2.105,2.0033,1.9594,1.9357,0.0,0.0,0.0,0.0,0.0,0.0,0.0,0.0,0.0,0.0,0.0,0.0,0.0,0.0,0.0,1.6851,1.5862,1.5398,1.5901,1.4773,1.4204,0.0,0.0,0.0,1.343,1.3637,1.3484,1.2861,1.3218,1.3025,1.2295,1.2715,1.2881,1.2881,1.2559,1.2344,1.2236,1.1616,1.1516,1.1765,1.1466,1.1625,1.1999,1.2295,1.2608,1.293,1.335,1.3926,1.4502,0.0,0.0,0.0,0.0,0.0,0.0,0.0,2.8887,0.0,2.8348,0.0,2.5834,2.5853,2.5234,2.4746,2.4591,0.0,2.4428,2.4266,2.4209,2.419,2.419,2.419,2.419,2.419,2.4151,0.0,0.0,0.0,0.0,2.3259,0.0,0.0,0.0,0.0,0.0,0.0,2.3141,2.3117,0.0,2.2764,2.266,2.2608,2.2388,2.231,2.231,2.231,2.2032,2.1748,2.2106,2.1028,1.9619,2.0056,1.958,1.8879,1.913,2.0078,2.1085,2.1187,2.1735,2.2282,2.2209,2.1645,2.0972,2.059,2.0031,1.9531,1.918,1.8866,1.8656,0.0,0.0,0.0,0.0,0.0,0.0,0.0,0.0,0.0,0.0,0.0,0.0,0.0,1.6161,1.5745,1.6442,1.5347,0.0,0.0,0.0,0.0,1.2929,1.342,1.3392,1.2861,0.0,1.2861,1.2861,1.2861,1.2881,1.2881,1.2236,1.2187,1.2569,1.1325,1.1065,1.1516,1.0914,1.0712,1.0864,1.1566,1.2187,1.2822,1.3299,1.3769,1.4087,0.0,0.0,0.0,0.0,0.0,2.9574,2.9141,2.8031,2.7281,2.7415,2.5874,2.4876,2.5146,2.4945,2.4828,2.4911,2.4648,0.0,0.0,0.0,0.0,2.419,2.419,2.419,2.419,2.3917,2.3774,0.0,2.3141,2.3117,2.3628,0.0,0.0,0.0,0.0,0.0,2.2797,2.2797,0.0,2.247,2.2388,2.236,2.236,2.2338,2.231,2.231,2.231,2.2254,2.2135,2.1823,2.1081,2.0442,2.111,1.997,1.8717,2.0321,2.0517,2.0365,2.1008,2.1735,2.2209,2.1823,2.1628,2.125,2.0249,2.0384,2.0528,1.9874,1.9877,1.9973,1.9973,0.0,0.0,0.0,0.0,0.0,0.0,0.0,0.0,0.0,0.0,0.0,0.0,0.0,0.0,0.0,0.0,0.0,0.0,0.0,0.0,0.0,1.3017,0.0,0.0,0.0,1.28,1.2553,1.279,1.2881,1.2881,1.2774,1.2147,1.1174,1.0914,1.0559,1.0167,1.0012,1.0312,1.0864,1.1566,1.1864,1.2126,1.3128,1.3769,1.4136,0.0,0.0,0.0,0.0,0.0,0.0,0.0,2.8151,0.0,2.7813,2.6712,2.5884,2.5838,2.5363,2.5049,2.501,2.478,2.4607,2.4512,2.4321,2.419,2.419,2.419,0.0,2.419,2.3876,2.3692,2.3692,2.3369,2.3392,0.0,0.0,0.0,0.0,0.0,2.2915,0.0,0.0,0.0,2.25,2.25,2.25,2.25,2.2332,2.231,2.231,2.231,2.231,2.2237,2.1764,2.0956,2.0286,2.0849,2.0299,1.969,2.0861,2.1194,2.1269,2.1667,2.204,2.2254,2.2032,2.1495,2.0895,2.0391,2.0346,2.0336,2.0031,2.0144,2.0261,2.0035,1.9582,0.0,0.0,0.0,0.0,0.0,0.0,0.0,0.0,0.0,0.0,0.0,0.0,0.0,0.0,0.0,0.0,0.0,0.0,0.0,0.0,0.0,0.0,0.0,0.0,0.0,1.2714,1.2831,1.2881,1.2881,1.2501,1.1981,1.1266,1.0568,1.0115,0.9762,0.9413,0.9666,1.0312,1.0669,1.0965,1.1342,1.1888,1.2322,1.2824,0.0,3.0452,0.0,0.0,2.9625,0.0,2.913,2.8674,2.839,2.8399,2.7582,2.6897,2.6628,2.5832,2.5243,2.5088,2.4891,2.4731,2.4559,2.4339,2.419,2.419,2.419,2.419,2.419,2.3876,2.3692,0.0,2.3628,2.3628,0.0,0.0,0.0,0.0,0.0,0.0,0.0,0.0,2.2695,2.2695,2.2634,2.2608,2.2599,2.2388,2.231,2.231,2.231,2.231,2.2209,2.1658,2.0888,2.0222,2.061,2.0455,2.0237,2.079,2.1363,2.182,2.182,2.2057,2.2276,2.2124,2.1406,2.064,2.0207,2.0124,2.0049,1.9684,1.9824,1.9899,1.9588,1.9411,0.0,0.0,0.0,0.0,0.0,0.0,0.0,0.0,0.0,0.0,0.0,0.0,0.0,0.0,0.0,1.4313,1.4351,1.3881,1.3488,0.0,0.0,1.3145,1.3382,0.0,1.293,1.3018,1.292,1.2881,1.2881,1.2295,1.1873,1.1516,1.0466,0.9865,0.9562,0.9008,0.9106,0.9614,0.9762,1.0115,1.0626,1.0853,1.1116,1.1622,0.0,0.0,0.0,0.0,0.0,0.0,0.0,2.9318,2.9063,2.8474,2.7224,2.644,2.6581,2.5832,2.5284,2.5274,2.4975,2.479,2.4775,2.4428,2.419,2.419,2.419,2.419,2.419,2.3876,2.3692,0.0,0.0,2.3392,2.3692,0.0,0.0,0.0,0.0,0.0,0.0,2.2822,2.2695,2.2669,2.2453,2.2349,2.2321,2.231,2.231,2.231,2.231,2.231,2.218,2.1323,2.0991,2.0974,2.1362,2.0316,1.9122,1.988,2.0154,2.0221,2.0221,2.1235,2.2141,2.1465,2.1406,2.1002,1.9042,1.98,2.0401,1.8718,1.8717,1.9043,1.8968,1.8469,1.8208,0.0,0.0,0.0,0.0,0.0,0.0,0.0,0.0,0.0,0.0,0.0,0.0,0.0,0.0,1.3609,1.3598,1.3867,1.418,1.4408,0.0,1.3921,1.4955,1.3591,1.3076,1.3447,1.3066,1.2881,1.2881,1.2832,1.2098,1.0864,1.0762,1.0012,0.891,0.8804,0.8857,0.8956,0.9562,0.9814,0.9999,1.093,1.1485,1.1845,0.0,0.0,0.0,0.0,0.0,0.0,0.0,2.9927,2.9647,2.9402,2.7994,2.6899,2.6619,2.5832,2.5253,2.5141,2.4923,2.4746,2.4623,2.4357,2.419,2.419,2.419,2.419,2.419,2.3876,2.3795,0.0,0.0,2.3671,2.3996,2.3996,0.0,0.0,0.0,2.3323,2.3189,2.3069,2.2996,2.2972,2.2652,2.2537,2.2527,2.236,2.231,2.231,2.231,2.2106,2.1869,2.1811,2.1584,2.1337,2.1275,2.0886,2.061,2.12,2.137,2.137,2.137,2.1837,2.2243,2.1938,2.11,2.0167,1.9516,1.9121,1.8722,1.8153,1.8245,1.8419,1.8419,1.8451,1.8425,0.0,0.0,0.0,0.0,0.0,0.0,0.0,0.0,0.0,0.0,0.0,0.0,0.0,0.0,0.0,1.3896,1.4413,1.4769,1.4972,0.0,1.4612,1.5362,1.4104,1.3501,1.3675,1.3144,1.2881,1.2881,1.2881,1.2157,1.0762,0.9969,0.9309,0.8804,0.8804,0.8804,0.8804,0.9106,0.9211,0.9225,0.9655,1.0009,1.0335,3.3006,0.0,3.3673,0.0,3.2335,3.2029,3.0878,3.05,3.0314,3.0142,2.8821,2.7644,2.7042,2.6156,2.542,2.503,2.4823,2.4654,2.4512,2.4321,2.419,2.419,2.419,0.0,2.419,2.3976,2.3958,2.419,2.4019,0.0,2.4284,0.0,0.0,0.0,2.3588,2.3482,2.35,2.3392,2.3346,2.3323,2.2855,2.2695,2.2669,2.2398,2.231,2.231,2.231,2.2106,2.184,2.2032,2.1974,2.1764,2.1477,2.1404,2.1516,2.1976,2.2102,2.2102,2.2102,2.2207,2.2181,2.1625,2.0699,1.9821,1.9329,1.8543,1.7885,1.7749,1.7802,1.7867,1.7867,1.8302,1.8546,1.8266,0.0,0.0,0.0,0.0,0.0,0.0,0.0,1.515,0.0,0.0,0.0,0.0,0.0,0.0,1.4218,1.4748,0.0,0.0,0.0,0.0,0.0,1.4475,1.3815,1.3779,1.32,1.2881,1.2881,1.2666,1.194,1.0762,0.9614,0.8956,0.8804,0.8804,0.8804,0.8804,0.8804,0.891,0.912,0.921,0.9484,0.9878,3.3237,3.387,3.4147,3.2487,3.2643,3.2518,3.1111,3.113,3.1078,3.047,2.9455,2.8555,2.7956,2.6941,2.5945,2.5087,2.4693,2.4512,2.4495,2.4321,2.419,0.0,0.0,2.419,2.419,2.4208,2.4208,2.419,0.0,0.0,2.4495,0.0,2.4393,2.419,2.419,2.419,2.417,2.3837,2.3692,2.3649,2.2972,2.2695,2.2669,2.2398,2.231,2.231,2.231,2.231,2.2209,2.1764,2.1899,2.2282,2.2282,2.1701,2.1087,2.1487,2.1604,2.1604,2.1604,2.1952,2.1855,1.9986,2.028,2.0337,1.7877,1.8142,1.8598,1.7531,1.7299,1.7312,1.7312,1.7747,1.8288,1.8803,0.0,0.0,0.0,0.0,0.0,0.0,1.6323,1.5681,1.4125,0.0,0.0,0.0,0.0,0.0,0.0,0.0,0.0,1.6338,1.5643,0.0,1.636,1.4653,1.3815,1.3779,1.32,1.2881,1.2881,1.2129,1.1466,1.0762,1.0064,0.9413,0.8804,0.8804,0.8804,0.8804,0.8804,0.9211,0.9851,1.0187,1.0678,1.126,3.463,3.5002,3.5164,3.409,3.3715,3.3391,3.2949,3.2129,3.1443,3.1068,3.0195,2.9265,2.8335,2.6967,2.5918,0.0,2.4877,2.4426,0.0,2.4247,2.419,2.419,2.419,2.419,2.419,2.419,2.419,2.419,0.0,0.0,0.0,2.4445,2.4393,2.419,2.419,2.419,2.419,2.4094,2.3917,2.3671,2.3212,2.2898,2.2669,2.2398,2.231,2.231,2.231,2.2106,2.1853,2.2032,2.1957,2.1899,2.2209,2.2238,2.2151,2.2105,2.222,2.2297,2.2131,2.219,2.2091,2.1168,2.0638,2.013,1.9497,1.8817,1.8066,1.6993,1.6752,1.6752,1.6752,1.7504,1.8185,1.8341,1.8731,0.0,0.0,0.0,0.0,0.0,0.0,1.5886,0.0,1.5638,0.0,0.0,0.0,0.0,0.0,0.0,0.0,0.0,1.6586,0.0,1.6407,1.5072,1.419,1.3779,1.32,1.2881,1.2881,1.2138,1.1665,1.1466,1.0762,1.0364,1.0167,1.0167,1.0167,1.0167,1.0167,1.0312,1.0474,1.0593,1.0788,1.1038,3.5514,3.5337,3.509,3.4602,3.4301,3.3978,3.3564,3.2931,3.2158,3.1274,3.0608,2.9863,2.8875,2.7511,0.0,2.5762,2.4892,2.4321,2.4209,2.419,2.419,2.419,2.419,2.419,2.419,0.0,0.0,2.419,2.4284,2.4321,2.4321,2.4426,2.4393,2.419,2.419,2.4132,2.4016,2.4016,2.3816,2.3482,2.3141,2.2898,2.2669,2.2398,2.231,2.231,2.231,2.2106,2.1899,2.2209,2.2106,2.1899,2.2209,2.2473,2.2686,2.25,2.2563,2.2643,2.25,2.2388,2.2084,2.1239,2.0679,2.021,1.9622,1.876,1.7787,1.671,1.6522,1.6522,1.6522,1.7394,1.8106,1.8106,1.8636,1.914,1.9346,0.0,0.0,0.0,0.0,0.0,0.0,1.5885,0.0,0.0,0.0,0.0,0.0,0.0,0.0,1.6959,1.7223,0.0,1.6419,1.5269,1.4376,1.3779,1.32,1.2881,1.2881,1.2403,1.208,1.1765,1.1366,1.1015,1.0813,1.0813,1.0813,1.0813,1.0813,1.0965,1.1166,1.1166,1.1375,1.1633,3.5972,3.509,0.0,0.0,3.4502,0.0,3.3272,3.3487,3.3099,3.1204,3.0748,3.0286,2.9446,2.8439,2.7288,2.5968,0.0,0.0,0.0,2.4226,2.419,2.419,2.419,2.419,2.419,2.419,2.419,2.419,2.441,2.4495,2.4478,2.4495,2.4393,2.419,2.419,2.4016,2.3692,2.3692,2.3482,2.3141,2.2822,2.2695,2.2634,2.2415,2.231,2.231,2.231,2.231,2.2282,2.2254,2.2237,2.2254,2.2209,2.2392,2.2643,2.2669,2.2695,2.2695,2.2669,2.2473,2.1955,2.0434,2.0479,2.0418,1.8531,1.8106,1.7787,1.671,1.6522,1.6522,1.6522,1.7394,1.8106,1.8106,1.9006,1.953,1.8968,0.0,0.0,0.0,0.0,0.0,0.0,1.6151,1.6491,0.0,0.0,0.0,0.0,0.0,1.8004,1.8059,1.7689,1.7115,1.636,1.5303,1.4441,1.3826,1.3182,1.29,1.292,1.2891,1.251,1.1864,1.1864,1.1516,1.0973,1.0973,1.0973,1.0973,1.0973,1.1316,1.1864,1.1864,1.2295,1.2881,0.0,0.0,3.5678,3.525,3.4694,3.4323,3.4306,3.3845,3.3033,3.174,3.1019,3.0222,2.9185,2.8327,2.7662,2.7322,2.5956,2.5127,2.5127,2.4538,2.419,2.419,2.419,2.419,2.419,2.419,2.419,2.419,2.441,2.4409,2.4266,2.4445,2.4393,2.419,2.419,2.4016,2.3692,2.3692,2.3369,2.2822,2.2721,2.259,2.2388,2.2321,2.231,2.231,2.231,2.231,2.2254,2.1899,2.1764,2.1705,2.1415,2.1552,2.1936,2.2298,2.2571,2.2738,2.2453,2.2349,2.2044,2.1019,2.0389,1.9666,1.8405,1.8106,1.7787,1.671,1.6522,1.6522,1.6522,1.7394,1.8106,1.8106,1.9006,1.953,1.8968,1.8458,0.0,0.0,1.674,1.6238,1.5676,1.6151,1.6455,0.0,0.0,0.0,0.0,1.8549,1.8154,1.688,1.7594,1.7251,1.5724,1.535,1.4757,1.4017,1.3283,1.3047,1.335,1.3027,1.2822,1.2657,1.2657,1.2559,1.2412,1.2412,1.2412,1.2412,1.2412,1.251,1.2657,1.2657,1.2764,1.2881,3.6675,3.6095,3.5496,3.4844,3.4439,3.4218,3.4284,3.3982,3.3381,3.2307,3.1483,3.06,2.9641,2.8833,2.8356,2.8356,2.6869,2.5786,2.5421,2.4999,2.4575,2.4208,2.419,2.419,2.419,2.419,2.419,2.419,2.4321,2.4303,2.419,2.4321,2.4303,2.419,2.4036,2.3795,2.3459,2.3323,2.2965,2.2527,2.2527,2.2426,2.231,2.231,2.231,2.231,2.231,2.231,2.2254,2.2003,2.1928,2.1869,2.1645,2.1735,2.1957,2.2225,2.2432,2.2535,2.2349,2.231,2.2077,2.1229,2.0143,1.9132,1.8302,1.7907,1.7504,1.668,1.6522,1.6522,1.6522,1.7394,1.8106,1.8106,1.8779,1.9169,1.8612,1.8066,0.0,1.6993,1.6441,1.5952,1.5632,1.5644,1.5735,1.5904,1.6468,0.0,1.8093,1.8582,1.857,1.7971,1.8337,1.7824,1.621,1.5225,1.4553,1.4077,1.3672,1.3477,1.3496,1.3271,1.3066,1.2881,1.2881,1.2881,1.2881,1.2881,1.2881,1.2881,1.2881,1.2881,1.2881,1.2881,1.2881,1.2832,3.6615,3.5679,3.477,3.41,3.406,3.4068,3.3842,3.3986,3.3771,3.2732,3.2008,3.1274,3.0467,2.9659,2.9177,2.9177,2.7824,2.6576,2.5642,2.5476,2.5054,2.4245,2.419,2.419,2.419,2.419,2.419,2.419,2.419,2.419,2.419,2.419,2.417,2.4113,2.3816,2.35,2.3117,2.2822,2.2537,2.231,2.231,2.231,2.231,2.231,2.2254,2.218,2.218,2.218,2.218,2.2106,2.2135,2.218,2.2106,2.2152,2.218,2.218,2.2237,2.231,2.231,2.2209,2.1915,2.1103,1.9954,1.8893,1.8341,1.7867,1.7394,1.6752,1.6637,1.6595,1.6522,1.7312,1.8014,1.811,1.8475,1.8602,1.819,0.0,1.7118,1.6552,1.6051,1.5676,1.5499,1.5096,1.4946,1.5141,1.5719,1.6321,1.7018,1.8005,1.8843,1.9475,1.9082,1.8181,1.681,1.5024,1.4145,1.4272,1.4145,1.3984,1.3701,1.3633,1.3369,1.2978,1.2978,1.2939,1.2881,1.2881,1.2881,1.2881,1.2881,1.2881,1.2881,1.2881,1.2832,1.2657,3.7331,3.6064,3.4954,3.4825,3.4274,3.3842,3.3807,3.3842,3.3548,3.2706,3.2504,3.2118,3.1292,3.0503,3.0008,3.0008,2.914,2.8007,2.6521,2.5768,2.5054,2.4245,2.419,2.419,2.419,2.419,2.419,2.419,2.419,2.419,2.419,2.419,2.4054,2.3774,2.3714,2.3369,2.2772,2.2721,2.2537,2.231,2.231,2.231,2.231,2.231,2.2032,2.1718,2.1718,2.1718,2.1658,2.1323,2.1446,2.1658,2.1323,2.1446,2.1718,2.1718,2.2003,2.231,2.231,2.1751,2.1055,2.055,2.0,1.9442,1.8893,1.8688,1.838,1.7394,1.7188,1.7034,1.6595,1.6993,1.7595,1.8113,1.8208,1.8205,1.8169,0.0,1.7118,1.6552,1.6423,1.5964,1.4926,1.5231,1.52,1.4605,1.5105,1.5847,1.6789,1.7606,1.799,1.7938,1.8059,1.7376,1.5911,1.4713,1.4447,1.5205,1.4428,1.4297,1.457,1.4199,1.3809,1.3408,1.3408,1.3213,1.2881,1.2881,1.2881,1.2881,1.2881,1.2881,1.2881,1.2881,1.2501,1.1972,3.634,3.555,3.4844,3.4431,3.4045,3.3807,3.3807,3.3807,3.3678,3.3293,3.2871,3.2467,3.21,3.1329,3.0668,3.0246,2.9861,2.8962,2.7346,2.6484,2.5493,2.4245,2.419,2.419,2.419,2.419,2.419,2.419,2.419,2.419,2.419,2.419,2.4016,2.3692,2.3522,2.3165,2.2695,2.2537,2.2398,2.231,2.231,2.231,2.231,2.231,2.2003,2.1582,2.1582,2.1582,2.1582,2.1399,2.1598,2.1928,2.1751,2.184,2.1974,2.1974,2.2135,2.2237,2.2003,2.1477,2.0894,2.0416,1.9758,1.9207,1.8968,1.8959,1.8693,1.7529,1.78,1.7922,1.6708,1.7222,1.7893,1.817,1.7904,0.0,0.0,1.7605,1.6923,1.6992,1.6102,1.5392,1.5056,1.4712,1.4539,1.4588,1.484,1.55,1.6557,1.6972,1.7289,1.7567,1.73,1.6809,1.6113,1.5249,1.5019,1.541,1.501,1.4814,1.4775,1.458,1.4248,1.3848,1.3848,1.3603,1.3213,1.3213,1.3086,1.2881,1.2881,1.2881,1.2881,1.2881,1.2452,1.1765,3.5569,3.4972,3.4541,3.3917,3.3807,3.3807,3.3807,3.3807,3.3807,3.3807,3.3256,3.2889,3.2889,3.199,3.1146,3.0522,3.0136,2.9329,2.7879,2.7218,2.6153,2.4538,2.43,2.419,2.419,2.419,2.419,2.419,2.419,2.419,2.419,2.419,2.3976,2.3566,2.3305,2.2972,2.2599,2.2388,2.231,2.231,2.231,2.231,2.231,2.231,2.2003,2.1582,2.1582,2.1582,2.1582,2.1582,2.1899,2.231,2.231,2.231,2.231,2.231,2.231,2.218,2.1598,2.115,2.0763,2.0462,1.9854,1.9357,1.9517,1.9634,1.9376,1.8165,1.8625,1.8808,1.7182,1.7503,1.8057,1.8187,0.0,0.0,0.0,1.7594,1.6886,1.7325,1.6006,1.5116,1.5285,1.4416,1.4123,1.4727,1.4785,1.5243,1.6177,1.6436,1.6765,1.7302,1.6821,1.6436,1.6265,1.569,1.541,1.541,1.541,1.5244,1.4932,1.4932,1.4697,1.4287,1.4287,1.3984,1.3506,1.3506,1.3262,1.2881,1.2881,1.2774,1.2657,1.2657,1.2089,1.1266,3.6229,3.4945,3.3862,3.3807,3.3807,3.3807,3.3807,3.3807,3.3807,3.3807,3.3752,3.3715,3.3715,3.232,3.1366,3.1311,2.9953,2.8723,2.786,2.7732,2.6979,2.5384,2.4593,2.419,2.419,2.419,2.419,2.419,2.419,2.419,2.419,2.419,2.3876,2.3253,2.3212,2.2883,2.2321,2.231,2.231,2.231,2.231,2.231,2.231,2.231,2.2003,2.1582,2.1582,2.1582,2.1582,2.1582,2.1899,2.231,2.231,2.231,2.231,2.231,2.231,2.2123,2.126,2.0715,2.04,2.0617,2.0632,2.0721,2.1356,2.1496,2.116,1.9963,1.9803,1.9493,1.8312,1.7735,1.763,1.81,0.0,0.0,1.8163,1.7735,1.7338,1.7375,1.6674,1.5939,1.5367,1.5113,1.492,1.4802,1.4785,1.5027,1.5449,1.6151,1.6539,1.6595,1.6549,1.6151,1.5468,1.541,1.541,1.541,1.541,1.5391,1.5371,1.5371,1.5137,1.4736,1.4736,1.4268,1.3506,1.3506,1.3262,1.2881,1.2881,1.2501,1.1864,1.1864,1.1065,0.9969,3.5725,3.5,3.4394,3.3899,3.3807,3.3807,3.3807,3.3807,3.3807,3.3807,3.3807,3.3807,3.3807,3.3256,3.2485,3.1476,3.0834,2.9934,2.8631,2.8081,2.7071,2.5476,2.463,2.419,2.419,2.419,2.419,2.419,2.419,2.419,2.419,2.419,2.3837,2.3189,2.3189,2.2857,2.231,2.231,2.231,2.231,2.231,2.231,2.231,2.231,2.2003,2.1582,2.1582,2.1582,2.1582,2.1582,2.1718,2.1869,2.1869,2.1705,2.1554,2.1794,2.2019,2.2001,2.1215,2.118,2.1236,2.082,2.1021,2.1395,2.1635,2.1695,2.1368,2.0158,2.0207,2.0006,1.8459,1.8317,1.8355,1.8229,0.0,1.8078,1.8643,1.8242,1.8016,1.8355,1.7544,1.6917,1.6904,1.6513,1.6504,1.7041,1.6602,1.6396,1.6598,1.6131,1.5806,1.5806,1.6077,1.5969,1.541,1.541,1.541,1.541,1.541,1.541,1.541,1.541,1.5322,1.5156,1.5275,1.4814,1.3867,1.3993,1.3581,1.2881,1.2881,1.2452,1.1814,1.1814,1.0965,0.9762,3.6076,3.5339,3.4825,3.4284,3.3972,3.3807,3.3807,3.3807,3.3807,3.3807,3.3807,3.3807,3.3807,3.3568,3.2889,3.1513,3.1164,3.0448,2.9085,2.8007,2.6814,2.5458,2.463,2.419,2.419,2.419,2.419,2.419,2.419,2.4151,2.4036,2.4036,2.3692,2.3045,2.3045,2.2773,2.231,2.231,2.231,2.231,2.231,2.231,2.231,2.231,2.2106,2.1823,2.1823,2.1823,2.1823,2.1823,2.1718,2.1582,2.1582,2.1577,2.1568,2.171,2.2135,2.2441,2.1623,2.19,2.216,2.1243,2.1342,2.1754,2.1946,2.1874,2.14,2.0384,2.0502,2.0374,1.8942,1.8882,1.8907,1.853,1.8455,1.8593,1.8933,1.8694,1.8606,1.8933,1.8117,1.7671,1.8132,1.7756,1.7844,1.8678,1.7927,1.7329,1.6995,1.6118,1.5615,1.5615,1.5908,1.5918,1.5615,1.5615,1.5615,1.5615,1.5478,1.5488,1.5605,1.5702,1.5748,1.5786,1.5935,1.5541,1.4768,1.4499,1.3906,1.3152,1.2968,1.2304,1.1466,1.1466,1.0501,0.9079,3.7529,3.6138,3.499,3.499,3.4339,3.3807,3.3807,3.3807,3.3807,3.3807,3.3807,3.3807,3.3788,3.3091,3.2284,3.1458,3.065,2.9861,2.9049,2.7512,2.6245,2.5439,2.463,2.419,2.419,2.419,2.419,2.419,2.4208,2.4016,2.3692,2.3692,2.3346,2.2695,2.2695,2.2563,2.231,2.231,2.231,2.231,2.231,2.231,2.231,2.231,2.231,2.231,2.231,2.231,2.231,2.231,2.2003,2.1598,2.1582,2.2106,2.2619,2.2147,2.2815,2.3486,2.2545,2.2771,2.3062,2.1979,2.1706,2.1887,2.2565,2.2207,2.152,2.0944,2.0809,2.0597,1.9901,1.9384,1.8983,1.8983,1.8983,1.8983,1.8983,1.8983,1.8983,1.8983,1.8384,1.8156,1.8667,1.8608,1.8723,1.9279,1.8533,1.743,1.6205,1.6125,1.6125,1.6125,1.6125,1.6125,1.6125,1.6125,1.6125,1.6115,1.5615,1.5635,1.6105,1.6355,1.6482,1.6518,1.6688,1.6573,1.6093,1.4889,1.4178,1.3732,1.3152,1.2049,1.0813,1.0813,0.9474,0.7723,3.6396,3.5495,3.4807,3.4266,3.3972,3.3807,3.3807,3.3807,3.3807,3.3807,3.3807,3.3587,3.3036,3.2742,3.2063,3.0687,3.0338,2.9861,2.9049,2.8026,2.7071,2.6282,2.4924,2.419,2.419,2.419,2.419,2.419,2.3958,2.3795,2.3692,2.3459,2.3117,2.2695,2.2695,2.2563,2.231,2.231,2.231,2.231,2.231,2.231,2.231,2.231,2.231,2.231,2.231,2.231,2.231,2.231,2.1811,2.1135,2.1023,2.1666,2.2433,2.2248,2.2844,2.3327,2.2514,2.2888,2.342,2.3113,2.3025,2.3148,2.3827,2.2776,2.1592,2.1402,2.0681,2.0055,1.985,1.9673,1.9447,1.9033,1.9334,1.9447,1.9033,1.9334,1.9572,1.9572,1.9756,1.9949,2.011,2.0398,2.0824,2.136,2.0113,1.8805,1.7502,1.6587,1.6125,1.6125,1.6367,1.6387,1.6125,1.6125,1.5908,1.5605,1.5478,1.5478,1.5605,1.5702,1.6036,1.6497,1.6328,1.6209,1.6121,1.503,1.4262,1.3732,1.3152,1.2049,1.0813,1.0813,0.9799,0.8321,3.6224,3.5551,3.4998,3.4385,3.4097,3.391,3.3815,3.3807,3.3807,3.3807,3.3807,3.3495,3.2706,3.2614,3.1953,3.0338,2.9916,2.9531,2.9012,2.8246,2.7585,2.7108,2.5529,2.452,2.4208,2.419,2.4151,2.3996,2.3795,2.3566,2.33,2.3093,2.284,2.2537,2.2537,2.2436,2.231,2.231,2.231,2.2344,2.2632,2.275,2.2767,2.3054,2.3173,2.3173,2.3173,2.2987,2.275,2.275,2.2255,2.1601,2.1101,2.1945,2.3026,2.2578,2.3078,2.3652,2.2989,2.3387,2.4073,2.4328,2.4153,2.4009,2.4099,2.3029,2.1904,2.16,2.0957,2.0464,2.0464,2.0464,2.0288,1.9761,1.9936,1.9962,1.9409,1.961,1.9886,2.0112,2.0504,2.0894,2.128,2.1619,2.1918,2.2112,2.1007,1.9627,1.8078,1.7072,1.6497,1.6318,1.6592,1.6602,1.6328,1.6328,1.6103,1.5664,1.5498,1.5673,1.6125,1.6222,1.6687,1.7368,1.722,1.6962,1.657,1.5468,1.4551,1.3732,1.3152,1.2049,1.0813,1.0813,0.9747,0.8262,3.6633,3.5919,3.5293,3.4972,3.4493,3.4074,3.3842,3.3807,3.3807,3.3807,3.3807,3.3476,3.2596,3.2504,3.1843,3.0228,2.9439,2.8994,2.8994,2.8319,2.7879,2.7787,2.6353,2.5177,2.4371,2.4244,2.4054,2.3692,2.3671,2.3346,2.2695,2.2686,2.2537,2.231,2.231,2.231,2.231,2.231,2.2282,2.2304,2.303,2.3317,2.3401,2.409,2.4394,2.4489,2.4371,2.3951,2.3494,2.3465,2.3143,2.2573,2.1761,2.2656,2.3897,2.3117,2.3599,2.4333,2.3889,2.4283,2.4956,2.5555,2.5324,2.4753,2.4012,2.3282,2.2603,2.1933,2.1686,2.1592,2.1592,2.1536,2.1305,2.0806,2.0718,2.0464,1.9874,1.9798,2.0012,2.0655,2.0756,2.1154,2.2209,2.2347,2.229,2.2027,2.1414,2.022,1.8323,1.7627,1.7174,1.6786,1.6709,1.6709,1.6733,1.667,1.6445,1.6056,1.5596,1.5968,1.7051,1.7286,1.7841,1.8573,1.8617,1.8142,1.7182,1.5884,1.4722,1.3732,1.3152,1.2098,1.0864,1.0864,0.9636,0.7877,3.5571,3.4927,3.4455,3.4401,3.4097,3.3868,3.3807,3.3807,3.3807,3.3807,3.3807,3.3256,3.1825,3.1659,3.1017,2.9402,2.9085,2.8994,2.8994,2.8851,2.8466,2.7824,2.7159,2.6416,2.5638,2.4693,2.4054,2.3692,2.3455,2.3135,2.2773,2.2508,2.2349,2.231,2.231,2.231,2.231,2.231,2.2106,2.1814,2.2512,2.2793,2.2872,2.2975,2.3627,2.4371,2.319,2.341,2.4208,2.3896,2.344,2.301,2.2952,2.297,2.3178,2.3938,2.4387,2.4641,2.5077,2.5659,2.6198,2.6348,2.6653,2.6775,2.604,2.4945,2.4039,2.3878,2.3044,2.2363,2.2363,2.1898,2.1305,2.0806,2.0718,2.0464,1.9874,1.9798,2.0012,2.0655,2.1041,2.1568,2.2246,2.2711,2.288,2.2811,2.214,2.1173,1.9936,1.8895,1.7905,1.7121,1.6854,1.6812,1.7111,1.6506,1.5986,1.5557,1.5459,1.5517,1.5781,1.5846,1.6574,1.7795,1.6516,1.6441,1.7158,1.5023,1.4005,1.3732,1.3152,1.2353,1.1566,1.1566,1.0602,0.9295,3.5181,3.4851,3.4534,3.4246,3.4213,3.4136,3.3842,3.3807,3.3807,3.3807,3.3807,3.3183,3.1568,3.1384,3.0742,2.9122,2.8994,2.8994,2.8994,2.8815,2.8524,2.8106,2.7501,2.6988,2.6591,2.5765,2.4902,2.3986,2.3454,2.3063,2.279,2.2443,2.231,2.231,2.231,2.231,2.231,2.231,2.2365,2.2512,2.2945,2.3521,2.4079,2.4199,2.4763,2.5439,2.4678,2.4661,2.4934,2.4374,2.4248,2.4243,2.383,2.3811,2.3973,2.4446,2.4582,2.4731,2.5435,2.6093,2.6587,2.6587,2.7081,2.7291,2.6215,2.5692,2.5224,2.4517,2.4163,2.3757,2.3095,2.2672,2.2027,2.0898,2.0718,2.0464,1.9874,1.9798,2.0012,2.0655,2.1154,2.1807,2.2623,2.2962,2.3078,2.3078,2.2455,2.1692,2.083,1.9542,1.8516,1.7903,1.7076,1.6976,1.7507,1.6939,1.6375,1.5921,1.5921,1.5921,1.5921,1.6301,1.6794,1.7274,1.6579,1.6291,1.6232,1.5214,1.4354,1.3638,1.3323,1.2622,1.1814,1.1814,1.0965,0.9718,3.5174,3.5122,3.4944,3.4449,3.4489,3.4442,3.3954,3.3815,3.3807,3.3807,3.3807,3.3183,3.1568,3.1146,3.0448,2.9104,2.8994,2.8952,2.8905,2.859,2.8376,2.8316,2.7669,2.7309,2.7309,2.6918,2.6009,2.4619,2.3797,2.3274,2.2981,2.2511,2.231,2.231,2.231,2.231,2.231,2.231,2.262,2.3139,2.3521,2.4348,2.5361,2.5692,2.618,2.6657,2.6404,2.6015,2.5541,2.5033,2.5174,2.5397,2.4555,2.4567,2.4878,2.4669,2.4582,2.4746,2.557,2.6183,2.6617,2.6722,2.7171,2.724,2.5892,2.6176,2.6336,2.5119,2.5231,2.5204,2.3973,2.3739,2.3131,2.1164,2.0942,2.0724,1.9899,1.9798,2.0049,2.0727,2.138,2.2133,2.2977,2.3078,2.3078,2.3078,2.2711,2.2105,2.1403,2.0081,1.9166,1.8722,1.7403,1.7046,1.7859,1.7347,1.6927,1.6708,1.6708,1.6539,1.6312,1.6892,1.707,1.6891,1.6961,1.6375,1.5321,1.5447,1.4694,1.3496,1.3428,1.2805,1.1972,1.1715,1.0914,0.9865,3.5446,3.5273,3.5069,3.4999,3.4595,3.4242,3.4171,3.3935,3.3807,3.3807,3.3807,3.3183,3.1568,3.0173,2.9232,2.9012,2.8994,2.8839,2.8496,2.842,2.8264,2.7982,2.7875,2.7822,2.7822,2.7338,2.6694,2.587,2.4777,2.4108,2.3805,2.2777,2.231,2.231,2.231,2.231,2.231,2.231,2.2128,2.1953,2.321,2.3869,2.4199,2.4742,2.5696,2.6522,2.5253,2.5135,2.5693,2.6218,2.5891,2.5228,2.5077,2.4474,2.393,2.4462,2.4582,2.4851,2.6123,2.6512,2.6722,2.7305,2.75,2.7357,2.6549,2.693,2.7408,2.7188,2.6707,2.6136,2.5374,2.5171,2.4313,2.1891,2.1983,2.1772,2.0053,1.9798,2.0188,2.1255,2.2284,2.2915,2.3065,2.3078,2.3078,2.3078,2.3002,2.2752,2.216,2.107,1.9968,1.9055,1.7543,1.7195,1.8253,1.7152,1.6885,1.7468,1.7468,1.68,1.5565,1.5312,1.5695,1.6458,1.5138,1.5019,1.5678,1.4355,1.3706,1.3477,1.3105,1.2881,1.2618,1.1375,1.0813,1.0466,3.5493,3.5398,3.5273,3.5122,3.4889,3.4485,3.3848,3.3525,3.3185,3.2736,3.2551,3.2008,3.0852,2.9696,2.8994,2.8994,2.8994,2.8929,2.8749,2.8522,2.8324,2.8183,2.8183,2.8183,2.8183,2.8196,2.8038,2.7716,2.569,2.4515,2.4198,2.3058,2.2436,2.231,2.231,2.231,2.2344,2.275,2.3034,2.3274,2.4017,2.4762,2.5447,2.5473,2.5962,2.6607,2.5947,2.5748,2.588,2.618,2.5835,2.5144,2.4855,2.443,2.4143,2.4507,2.4582,2.4911,2.6243,2.6587,2.6752,2.741,2.7625,2.7509,2.7203,2.7357,2.7458,2.7086,2.7034,2.6777,2.5749,2.554,2.4766,2.2525,2.2141,2.1708,2.0456,2.0288,2.0702,2.182,2.2372,2.2799,2.304,2.3078,2.3078,2.3078,2.3078,2.3025,2.2786,2.187,2.0954,2.0201,1.8774,1.8344,1.8895,1.8102,1.7907,1.8221,1.8221,1.7235,1.5391,1.5401,1.5477,1.5481,1.4824,1.4617,1.4871,1.4429,1.3936,1.3486,1.3301,1.2868,1.2138,1.1174,1.0568,1.0115]}]]